<?xml version='1.0' encoding='UTF-8'?>
<gpx version="1.1" creator="https://www.komoot.de" xmlns="http://www.topografix.com/GPX/1/1" xmlns:xsi="http://www.w3.org/2001/XMLSchema-instance" xsi:schemaLocation="http://www.topografix.com/GPX/1/1 http://www.topografix.com/GPX/1/1/gpx.xsd">
  <metadata>
    <name>62_1100SaalhIttent</name>
    <author>
      <link href="https://www.komoot.de">
        <text>komoot</text>
        <type>text/html</type>
      </link>
    </author>
  </metadata>
  <trk>
    <name>62_1100SaalhIttent</name>
    <trkseg>
      <trkpt lat="47.541122" lon="7.871030">
        <ele>340.450999</ele>
        <time>2021-11-16T23:36:25.300Z</time>
      </trkpt>
      <trkpt lat="47.541410" lon="7.870791">
        <ele>340.450999</ele>
        <time>2021-11-16T23:36:31.017Z</time>
      </trkpt>
      <trkpt lat="47.541576" lon="7.870664">
        <ele>340.450999</ele>
        <time>2021-11-16T23:36:35.136Z</time>
      </trkpt>
      <trkpt lat="47.541796" lon="7.871042">
        <ele>340.450999</ele>
        <time>2021-11-16T23:36:42.263Z</time>
      </trkpt>
      <trkpt lat="47.541953" lon="7.871286">
        <ele>341.053304</ele>
        <time>2021-11-16T23:36:47.085Z</time>
      </trkpt>
      <trkpt lat="47.542039" lon="7.871556">
        <ele>341.719932</ele>
        <time>2021-11-16T23:36:51.436Z</time>
      </trkpt>
      <trkpt lat="47.542067" lon="7.871664">
        <ele>341.978260</ele>
        <time>2021-11-16T23:36:53.114Z</time>
      </trkpt>
      <trkpt lat="47.542091" lon="7.871721">
        <ele>342.128264</ele>
        <time>2021-11-16T23:36:53.728Z</time>
      </trkpt>
      <trkpt lat="47.542218" lon="7.871866">
        <ele>342.658642</ele>
        <time>2021-11-16T23:36:58.840Z</time>
      </trkpt>
      <trkpt lat="47.542394" lon="7.872341">
        <ele>343.868537</ele>
        <time>2021-11-16T23:37:08.911Z</time>
      </trkpt>
      <trkpt lat="47.542436" lon="7.872494">
        <ele>344.237336</ele>
        <time>2021-11-16T23:37:12.280Z</time>
      </trkpt>
      <trkpt lat="47.542537" lon="7.872430">
        <ele>344.600702</ele>
        <time>2021-11-16T23:37:14.392Z</time>
      </trkpt>
      <trkpt lat="47.542664" lon="7.872361">
        <ele>345.048150</ele>
        <time>2021-11-16T23:37:19.708Z</time>
      </trkpt>
      <trkpt lat="47.542714" lon="7.872334">
        <ele>345.224184</ele>
        <time>2021-11-16T23:37:21.349Z</time>
      </trkpt>
      <trkpt lat="47.542814" lon="7.872280">
        <ele>345.576252</ele>
        <time>2021-11-16T23:37:24.363Z</time>
      </trkpt>
      <trkpt lat="47.542919" lon="7.872226">
        <ele>345.943902</ele>
        <time>2021-11-16T23:37:28.209Z</time>
      </trkpt>
      <trkpt lat="47.543013" lon="7.872182">
        <ele>346.269985</ele>
        <time>2021-11-16T23:37:31.727Z</time>
      </trkpt>
      <trkpt lat="47.543233" lon="7.872082">
        <ele>347.566889</ele>
        <time>2021-11-16T23:37:38.949Z</time>
      </trkpt>
      <trkpt lat="47.543251" lon="7.872152">
        <ele>347.876214</ele>
        <time>2021-11-16T23:37:42.331Z</time>
      </trkpt>
      <trkpt lat="47.543332" lon="7.872237">
        <ele>348.483450</ele>
        <time>2021-11-16T23:37:45.635Z</time>
      </trkpt>
      <trkpt lat="47.544390" lon="7.872423">
        <ele>355.001099</ele>
        <time>2021-11-16T23:38:27.344Z</time>
      </trkpt>
      <trkpt lat="47.544883" lon="7.872555">
        <ele>358.136210</ele>
        <time>2021-11-16T23:38:49.753Z</time>
      </trkpt>
      <trkpt lat="47.545131" lon="7.872664">
        <ele>359.886811</ele>
        <time>2021-11-16T23:39:00.757Z</time>
      </trkpt>
      <trkpt lat="47.545375" lon="7.872836">
        <ele>361.715437</ele>
        <time>2021-11-16T23:39:11.698Z</time>
      </trkpt>
      <trkpt lat="47.545478" lon="7.872968">
        <ele>362.637085</ele>
        <time>2021-11-16T23:39:18.506Z</time>
      </trkpt>
      <trkpt lat="47.545515" lon="7.873015">
        <ele>362.966918</ele>
        <time>2021-11-16T23:39:20.462Z</time>
      </trkpt>
      <trkpt lat="47.545746" lon="7.873302">
        <ele>365.007138</ele>
        <time>2021-11-16T23:39:33.662Z</time>
      </trkpt>
      <trkpt lat="47.545934" lon="7.873549">
        <ele>366.707627</ele>
        <time>2021-11-16T23:39:43.762Z</time>
      </trkpt>
      <trkpt lat="47.546077" lon="7.873763">
        <ele>368.083156</ele>
        <time>2021-11-16T23:39:52.958Z</time>
      </trkpt>
      <trkpt lat="47.546135" lon="7.873859">
        <ele>368.671680</ele>
        <time>2021-11-16T23:39:56.198Z</time>
      </trkpt>
      <trkpt lat="47.546309" lon="7.874154">
        <ele>370.148758</ele>
        <time>2021-11-16T23:40:07.312Z</time>
      </trkpt>
      <trkpt lat="47.547126" lon="7.875801">
        <ele>376.191353</ele>
        <time>2021-11-16T23:40:53.073Z</time>
      </trkpt>
      <trkpt lat="47.547574" lon="7.876801">
        <ele>377.439198</ele>
        <time>2021-11-16T23:41:12.069Z</time>
      </trkpt>
      <trkpt lat="47.547992" lon="7.877974">
        <ele>377.414866</ele>
        <time>2021-11-16T23:41:24.870Z</time>
      </trkpt>
      <trkpt lat="47.548234" lon="7.878638">
        <ele>376.906321</ele>
        <time>2021-11-16T23:41:30.182Z</time>
      </trkpt>
      <trkpt lat="47.548422" lon="7.878959">
        <ele>375.789807</ele>
        <time>2021-11-16T23:41:33.025Z</time>
      </trkpt>
      <trkpt lat="47.548718" lon="7.879258">
        <ele>374.395410</ele>
        <time>2021-11-16T23:41:36.563Z</time>
      </trkpt>
      <trkpt lat="47.549140" lon="7.879391">
        <ele>372.716143</ele>
        <time>2021-11-16T23:41:40.750Z</time>
      </trkpt>
      <trkpt lat="47.549318" lon="7.879398">
        <ele>372.023084</ele>
        <time>2021-11-16T23:41:42.377Z</time>
      </trkpt>
      <trkpt lat="47.549327" lon="7.879547">
        <ele>371.630086</ele>
        <time>2021-11-16T23:41:43.363Z</time>
      </trkpt>
      <trkpt lat="47.549726" lon="7.880786">
        <ele>368.096421</ele>
        <time>2021-11-16T23:41:52.297Z</time>
      </trkpt>
      <trkpt lat="47.549927" lon="7.881490">
        <ele>366.149710</ele>
        <time>2021-11-16T23:41:57.330Z</time>
      </trkpt>
      <trkpt lat="47.550234" lon="7.883221">
        <ele>361.451059</ele>
        <time>2021-11-16T23:42:09.730Z</time>
      </trkpt>
      <trkpt lat="47.550332" lon="7.884727">
        <ele>357.330402</ele>
        <time>2021-11-16T23:42:19.575Z</time>
      </trkpt>
      <trkpt lat="47.550391" lon="7.885109">
        <ele>356.228656</ele>
        <time>2021-11-16T23:42:22.107Z</time>
      </trkpt>
      <trkpt lat="47.550548" lon="7.885799">
        <ele>353.534278</ele>
        <time>2021-11-16T23:42:26.712Z</time>
      </trkpt>
      <trkpt lat="47.550677" lon="7.886476">
        <ele>350.931276</ele>
        <time>2021-11-16T23:42:31.142Z</time>
      </trkpt>
      <trkpt lat="47.550758" lon="7.887295">
        <ele>347.868395</ele>
        <time>2021-11-16T23:42:36.284Z</time>
      </trkpt>
      <trkpt lat="47.550789" lon="7.887816">
        <ele>345.853160</ele>
        <time>2021-11-16T23:42:39.516Z</time>
      </trkpt>
      <trkpt lat="47.550831" lon="7.888611">
        <ele>342.485278</ele>
        <time>2021-11-16T23:42:44.472Z</time>
      </trkpt>
      <trkpt lat="47.550833" lon="7.889069">
        <ele>340.550916</ele>
        <time>2021-11-16T23:42:47.282Z</time>
      </trkpt>
      <trkpt lat="47.550915" lon="7.890600">
        <ele>334.345195</ele>
        <time>2021-11-16T23:42:56.675Z</time>
      </trkpt>
      <trkpt lat="47.550904" lon="7.891725">
        <ele>330.724632</ele>
        <time>2021-11-16T23:43:03.678Z</time>
      </trkpt>
      <trkpt lat="47.550892" lon="7.893176">
        <ele>326.473893</ele>
        <time>2021-11-16T23:43:13.291Z</time>
      </trkpt>
      <trkpt lat="47.550908" lon="7.894308">
        <ele>325.320749</ele>
        <time>2021-11-16T23:43:22.496Z</time>
      </trkpt>
      <trkpt lat="47.550878" lon="7.895158">
        <ele>324.453879</ele>
        <time>2021-11-16T23:43:29.457Z</time>
      </trkpt>
      <trkpt lat="47.550838" lon="7.895509">
        <ele>324.091341</ele>
        <time>2021-11-16T23:43:32.590Z</time>
      </trkpt>
      <trkpt lat="47.550660" lon="7.896255">
        <ele>322.965291</ele>
        <time>2021-11-16T23:43:39.041Z</time>
      </trkpt>
      <trkpt lat="47.550639" lon="7.896345">
        <ele>322.821835</ele>
        <time>2021-11-16T23:43:40.193Z</time>
      </trkpt>
      <trkpt lat="47.550648" lon="7.896481">
        <ele>322.615973</ele>
        <time>2021-11-16T23:43:41.171Z</time>
      </trkpt>
      <trkpt lat="47.550690" lon="7.896875">
        <ele>322.015068</ele>
        <time>2021-11-16T23:43:44.280Z</time>
      </trkpt>
      <trkpt lat="47.550819" lon="7.898109">
        <ele>320.133924</ele>
        <time>2021-11-16T23:43:52.996Z</time>
      </trkpt>
      <trkpt lat="47.550801" lon="7.900244">
        <ele>314.264271</ele>
        <time>2021-11-16T23:44:06.883Z</time>
      </trkpt>
      <trkpt lat="47.550769" lon="7.901362">
        <ele>311.384026</ele>
        <time>2021-11-16T23:44:14.155Z</time>
      </trkpt>
      <trkpt lat="47.550757" lon="7.901591">
        <ele>310.876803</ele>
        <time>2021-11-16T23:44:16.291Z</time>
      </trkpt>
      <trkpt lat="47.550688" lon="7.902451">
        <ele>308.964290</ele>
        <time>2021-11-16T23:44:24.725Z</time>
      </trkpt>
      <trkpt lat="47.550498" lon="7.903445">
        <ele>306.682901</ele>
        <time>2021-11-16T23:44:35.142Z</time>
      </trkpt>
      <trkpt lat="47.550302" lon="7.904164">
        <ele>306.003205</ele>
        <time>2021-11-16T23:44:43.489Z</time>
      </trkpt>
      <trkpt lat="47.550025" lon="7.904774">
        <ele>305.465296</ele>
        <time>2021-11-16T23:44:51.973Z</time>
      </trkpt>
      <trkpt lat="47.549868" lon="7.905010">
        <ele>305.222853</ele>
        <time>2021-11-16T23:44:55.979Z</time>
      </trkpt>
      <trkpt lat="47.549867" lon="7.905155">
        <ele>305.116759</ele>
        <time>2021-11-16T23:44:57.709Z</time>
      </trkpt>
      <trkpt lat="47.549793" lon="7.905202">
        <ele>305.029483</ele>
        <time>2021-11-16T23:44:59.238Z</time>
      </trkpt>
      <trkpt lat="47.549674" lon="7.905336">
        <ele>304.867458</ele>
        <time>2021-11-16T23:45:02.032Z</time>
      </trkpt>
      <trkpt lat="47.549602" lon="7.905821">
        <ele>304.607083</ele>
        <time>2021-11-16T23:45:08.481Z</time>
      </trkpt>
      <trkpt lat="47.549519" lon="7.906378">
        <ele>304.894062</ele>
        <time>2021-11-16T23:45:16.397Z</time>
      </trkpt>
      <trkpt lat="47.549039" lon="7.907742">
        <ele>305.667973</ele>
        <time>2021-11-16T23:45:40.703Z</time>
      </trkpt>
      <trkpt lat="47.548638" lon="7.908599">
        <ele>306.346135</ele>
        <time>2021-11-16T23:45:59.844Z</time>
      </trkpt>
      <trkpt lat="47.548279" lon="7.909060">
        <ele>306.889825</ele>
        <time>2021-11-16T23:46:12.076Z</time>
      </trkpt>
      <trkpt lat="47.548222" lon="7.909154">
        <ele>306.987434</ele>
        <time>2021-11-16T23:46:14.620Z</time>
      </trkpt>
      <trkpt lat="47.547859" lon="7.909845">
        <ele>307.663806</ele>
        <time>2021-11-16T23:46:28.495Z</time>
      </trkpt>
      <trkpt lat="47.547648" lon="7.910267">
        <ele>308.108599</ele>
        <time>2021-11-16T23:46:36.575Z</time>
      </trkpt>
      <trkpt lat="47.547348" lon="7.911011">
        <ele>309.026900</ele>
        <time>2021-11-16T23:46:46.094Z</time>
      </trkpt>
      <trkpt lat="47.546526" lon="7.912513">
        <ele>312.365955</ele>
        <time>2021-11-16T23:47:13.101Z</time>
      </trkpt>
      <trkpt lat="47.546113" lon="7.913536">
        <ele>319.286440</ele>
        <time>2021-11-16T23:47:49.191Z</time>
      </trkpt>
      <trkpt lat="47.546064" lon="7.913662">
        <ele>320.130684</ele>
        <time>2021-11-16T23:47:58.033Z</time>
      </trkpt>
      <trkpt lat="47.545846" lon="7.913439">
        <ele>322.409278</ele>
        <time>2021-11-16T23:48:11.974Z</time>
      </trkpt>
      <trkpt lat="47.545803" lon="7.913417">
        <ele>322.800561</ele>
        <time>2021-11-16T23:48:16.834Z</time>
      </trkpt>
      <trkpt lat="47.545760" lon="7.913396">
        <ele>323.189986</ele>
        <time>2021-11-16T23:48:21.970Z</time>
      </trkpt>
      <trkpt lat="47.545512" lon="7.913459">
        <ele>325.354197</ele>
        <time>2021-11-16T23:48:35.608Z</time>
      </trkpt>
      <trkpt lat="47.545283" lon="7.913975">
        <ele>328.600568</ele>
        <time>2021-11-16T23:49:06.150Z</time>
      </trkpt>
      <trkpt lat="47.544842" lon="7.914607">
        <ele>333.210930</ele>
        <time>2021-11-16T23:49:46.050Z</time>
      </trkpt>
      <trkpt lat="47.544667" lon="7.914777">
        <ele>334.783357</ele>
        <time>2021-11-16T23:50:02.886Z</time>
      </trkpt>
      <trkpt lat="47.544535" lon="7.914938">
        <ele>336.068104</ele>
        <time>2021-11-16T23:50:07.177Z</time>
      </trkpt>
      <trkpt lat="47.544436" lon="7.915136">
        <ele>337.317865</ele>
        <time>2021-11-16T23:50:13.069Z</time>
      </trkpt>
      <trkpt lat="47.544381" lon="7.915381">
        <ele>338.627434</ele>
        <time>2021-11-16T23:50:15.642Z</time>
      </trkpt>
      <trkpt lat="47.544170" lon="7.916929">
        <ele>337.697982</ele>
        <time>2021-11-16T23:50:32.635Z</time>
      </trkpt>
      <trkpt lat="47.544062" lon="7.917335">
        <ele>337.028895</ele>
        <time>2021-11-16T23:50:36.660Z</time>
      </trkpt>
      <trkpt lat="47.544023" lon="7.917429">
        <ele>336.859723</ele>
        <time>2021-11-16T23:50:37.681Z</time>
      </trkpt>
      <trkpt lat="47.543882" lon="7.917804">
        <ele>336.201576</ele>
        <time>2021-11-16T23:50:41.782Z</time>
      </trkpt>
      <trkpt lat="47.543788" lon="7.917949">
        <ele>335.893334</ele>
        <time>2021-11-16T23:50:43.736Z</time>
      </trkpt>
      <trkpt lat="47.543490" lon="7.918167">
        <ele>336.442617</ele>
        <time>2021-11-16T23:50:48.688Z</time>
      </trkpt>
      <trkpt lat="47.543011" lon="7.918178">
        <ele>337.938563</ele>
        <time>2021-11-16T23:50:59.407Z</time>
      </trkpt>
      <trkpt lat="47.542951" lon="7.918203">
        <ele>338.133194</ele>
        <time>2021-11-16T23:51:02.084Z</time>
      </trkpt>
      <trkpt lat="47.542901" lon="7.918253">
        <ele>338.321572</ele>
        <time>2021-11-16T23:51:03.626Z</time>
      </trkpt>
      <trkpt lat="47.542847" lon="7.918520">
        <ele>338.909108</ele>
        <time>2021-11-16T23:51:10.245Z</time>
      </trkpt>
      <trkpt lat="47.542897" lon="7.919138">
        <ele>340.221133</ele>
        <time>2021-11-16T23:51:30.285Z</time>
      </trkpt>
      <trkpt lat="47.542830" lon="7.919388">
        <ele>340.788129</ele>
        <time>2021-11-16T23:51:39.816Z</time>
      </trkpt>
      <trkpt lat="47.542762" lon="7.919488">
        <ele>341.087334</ele>
        <time>2021-11-16T23:51:44.135Z</time>
      </trkpt>
      <trkpt lat="47.542663" lon="7.919567">
        <ele>341.567941</ele>
        <time>2021-11-16T23:51:57.038Z</time>
      </trkpt>
      <trkpt lat="47.542445" lon="7.919627">
        <ele>342.927929</ele>
        <time>2021-11-16T23:52:21.240Z</time>
      </trkpt>
      <trkpt lat="47.541893" lon="7.920117">
        <ele>346.874954</ele>
        <time>2021-11-16T23:53:30.129Z</time>
      </trkpt>
      <trkpt lat="47.541665" lon="7.920460">
        <ele>348.868075</ele>
        <time>2021-11-16T23:54:04.053Z</time>
      </trkpt>
      <trkpt lat="47.541270" lon="7.921054">
        <ele>352.320393</ele>
        <time>2021-11-16T23:55:01.797Z</time>
      </trkpt>
      <trkpt lat="47.540576" lon="7.921805">
        <ele>354.782922</ele>
        <time>2021-11-16T23:56:19.633Z</time>
      </trkpt>
      <trkpt lat="47.540468" lon="7.922009">
        <ele>355.282650</ele>
        <time>2021-11-16T23:56:35.032Z</time>
      </trkpt>
      <trkpt lat="47.540426" lon="7.922257">
        <ele>355.775505</ele>
        <time>2021-11-16T23:56:49.940Z</time>
      </trkpt>
      <trkpt lat="47.540276" lon="7.922517">
        <ele>356.434766</ele>
        <time>2021-11-16T23:57:10.072Z</time>
      </trkpt>
      <trkpt lat="47.539357" lon="7.923066">
        <ele>360.157606</ele>
        <time>2021-11-16T23:58:38.312Z</time>
      </trkpt>
      <trkpt lat="47.538673" lon="7.923346">
        <ele>363.193986</ele>
        <time>2021-11-16T23:59:47.298Z</time>
      </trkpt>
      <trkpt lat="47.538225" lon="7.923716">
        <ele>365.376891</ele>
        <time>2021-11-17T00:00:42.749Z</time>
      </trkpt>
      <trkpt lat="47.537904" lon="7.924067">
        <ele>366.992750</ele>
        <time>2021-11-17T00:01:23.784Z</time>
      </trkpt>
      <trkpt lat="47.537704" lon="7.924286">
        <ele>368.000018</ele>
        <time>2021-11-17T00:01:48.905Z</time>
      </trkpt>
      <trkpt lat="47.537368" lon="7.924418">
        <ele>369.407829</ele>
        <time>2021-11-17T00:02:22.810Z</time>
      </trkpt>
      <trkpt lat="47.537009" lon="7.924729">
        <ele>371.092138</ele>
        <time>2021-11-17T00:03:02.131Z</time>
      </trkpt>
      <trkpt lat="47.536706" lon="7.925193">
        <ele>372.320351</ele>
        <time>2021-11-17T00:03:13.822Z</time>
      </trkpt>
      <trkpt lat="47.536480" lon="7.925533">
        <ele>371.894950</ele>
        <time>2021-11-17T00:03:20.625Z</time>
      </trkpt>
      <trkpt lat="47.535703" lon="7.925981">
        <ele>370.793841</ele>
        <time>2021-11-17T00:03:33.603Z</time>
      </trkpt>
      <trkpt lat="47.535496" lon="7.926292">
        <ele>370.404465</ele>
        <time>2021-11-17T00:03:37.729Z</time>
      </trkpt>
      <trkpt lat="47.535366" lon="7.926580">
        <ele>370.095583</ele>
        <time>2021-11-17T00:03:41.125Z</time>
      </trkpt>
      <trkpt lat="47.535237" lon="7.926835">
        <ele>370.077802</ele>
        <time>2021-11-17T00:03:44.764Z</time>
      </trkpt>
      <trkpt lat="47.534681" lon="7.927631">
        <ele>370.080678</ele>
        <time>2021-11-17T00:03:58.929Z</time>
      </trkpt>
      <trkpt lat="47.534394" lon="7.928043">
        <ele>370.082164</ele>
        <time>2021-11-17T00:04:08.314Z</time>
      </trkpt>
      <trkpt lat="47.534319" lon="7.928138">
        <ele>370.082531</ele>
        <time>2021-11-17T00:04:10.725Z</time>
      </trkpt>
      <trkpt lat="47.534250" lon="7.928183">
        <ele>370.082812</ele>
        <time>2021-11-17T00:04:12.883Z</time>
      </trkpt>
      <trkpt lat="47.534226" lon="7.928203">
        <ele>370.082914</ele>
        <time>2021-11-17T00:04:13.805Z</time>
      </trkpt>
      <trkpt lat="47.534168" lon="7.928273">
        <ele>370.083193</ele>
        <time>2021-11-17T00:04:16.339Z</time>
      </trkpt>
      <trkpt lat="47.533454" lon="7.928933">
        <ele>371.284972</ele>
        <time>2021-11-17T00:04:40.446Z</time>
      </trkpt>
      <trkpt lat="47.533316" lon="7.929060">
        <ele>371.566400</ele>
        <time>2021-11-17T00:04:43.612Z</time>
      </trkpt>
      <trkpt lat="47.532796" lon="7.929524">
        <ele>372.617972</ele>
        <time>2021-11-17T00:04:56.476Z</time>
      </trkpt>
      <trkpt lat="47.532584" lon="7.929704">
        <ele>373.041257</ele>
        <time>2021-11-17T00:05:03.447Z</time>
      </trkpt>
      <trkpt lat="47.532610" lon="7.929877">
        <ele>373.202565</ele>
        <time>2021-11-17T00:05:04.694Z</time>
      </trkpt>
      <trkpt lat="47.532726" lon="7.930299">
        <ele>373.237539</ele>
        <time>2021-11-17T00:05:12.021Z</time>
      </trkpt>
      <trkpt lat="47.532726" lon="7.930392">
        <ele>373.244677</ele>
        <time>2021-11-17T00:05:12.617Z</time>
      </trkpt>
      <trkpt lat="47.532599" lon="7.930581">
        <ele>373.265145</ele>
        <time>2021-11-17T00:05:17.716Z</time>
      </trkpt>
      <trkpt lat="47.532261" lon="7.931393">
        <ele>373.338366</ele>
        <time>2021-11-17T00:05:25.893Z</time>
      </trkpt>
      <trkpt lat="47.532237" lon="7.931571">
        <ele>373.352299</ele>
        <time>2021-11-17T00:05:28.827Z</time>
      </trkpt>
      <trkpt lat="47.532170" lon="7.931998">
        <ele>373.385948</ele>
        <time>2021-11-17T00:05:32.119Z</time>
      </trkpt>
      <trkpt lat="47.531984" lon="7.932581">
        <ele>373.357369</ele>
        <time>2021-11-17T00:05:37.825Z</time>
      </trkpt>
      <trkpt lat="47.531985" lon="7.932692">
        <ele>373.344854</ele>
        <time>2021-11-17T00:05:38.694Z</time>
      </trkpt>
      <trkpt lat="47.531984" lon="7.932824">
        <ele>373.329971</ele>
        <time>2021-11-17T00:05:39.846Z</time>
      </trkpt>
      <trkpt lat="47.531931" lon="7.933297">
        <ele>373.275915</ele>
        <time>2021-11-17T00:05:44.594Z</time>
      </trkpt>
      <trkpt lat="47.531622" lon="7.934065">
        <ele>373.175122</ele>
        <time>2021-11-17T00:05:53.738Z</time>
      </trkpt>
      <trkpt lat="47.531503" lon="7.934360">
        <ele>373.136380</ele>
        <time>2021-11-17T00:05:57.007Z</time>
      </trkpt>
      <trkpt lat="47.531505" lon="7.934420">
        <ele>373.129607</ele>
        <time>2021-11-17T00:05:57.688Z</time>
      </trkpt>
      <trkpt lat="47.531519" lon="7.934461">
        <ele>373.124427</ele>
        <time>2021-11-17T00:05:58.132Z</time>
      </trkpt>
      <trkpt lat="47.531561" lon="7.934562">
        <ele>373.111054</ele>
        <time>2021-11-17T00:05:59.139Z</time>
      </trkpt>
      <trkpt lat="47.531638" lon="7.934766">
        <ele>373.213526</ele>
        <time>2021-11-17T00:06:01.368Z</time>
      </trkpt>
      <trkpt lat="47.531548" lon="7.934833">
        <ele>373.312097</ele>
        <time>2021-11-17T00:06:03.060Z</time>
      </trkpt>
      <trkpt lat="47.531129" lon="7.935142">
        <ele>373.770133</ele>
        <time>2021-11-17T00:06:11.101Z</time>
      </trkpt>
      <trkpt lat="47.530759" lon="7.935410">
        <ele>374.173183</ele>
        <time>2021-11-17T00:06:19.121Z</time>
      </trkpt>
      <trkpt lat="47.530404" lon="7.935710">
        <ele>374.573147</ele>
        <time>2021-11-17T00:06:27.618Z</time>
      </trkpt>
      <trkpt lat="47.530062" lon="7.936223">
        <ele>375.165818</ele>
        <time>2021-11-17T00:06:38.077Z</time>
      </trkpt>
      <trkpt lat="47.530009" lon="7.936303">
        <ele>375.286214</ele>
        <time>2021-11-17T00:06:39.910Z</time>
      </trkpt>
      <trkpt lat="47.529827" lon="7.936525">
        <ele>375.661328</ele>
        <time>2021-11-17T00:06:44.713Z</time>
      </trkpt>
      <trkpt lat="47.529626" lon="7.936730">
        <ele>376.049597</ele>
        <time>2021-11-17T00:06:49.658Z</time>
      </trkpt>
      <trkpt lat="47.529468" lon="7.936891">
        <ele>376.354717</ele>
        <time>2021-11-17T00:06:53.264Z</time>
      </trkpt>
      <trkpt lat="47.529273" lon="7.937297">
        <ele>376.889935</ele>
        <time>2021-11-17T00:06:59.750Z</time>
      </trkpt>
      <trkpt lat="47.529185" lon="7.937741">
        <ele>377.387015</ele>
        <time>2021-11-17T00:07:06.254Z</time>
      </trkpt>
      <trkpt lat="47.529106" lon="7.937991">
        <ele>377.683528</ele>
        <time>2021-11-17T00:07:11.039Z</time>
      </trkpt>
      <trkpt lat="47.528958" lon="7.938333">
        <ele>378.416891</ele>
        <time>2021-11-17T00:07:17.706Z</time>
      </trkpt>
      <trkpt lat="47.528822" lon="7.938652">
        <ele>379.127055</ele>
        <time>2021-11-17T00:07:23.759Z</time>
      </trkpt>
      <trkpt lat="47.528658" lon="7.939111">
        <ele>380.104588</ele>
        <time>2021-11-17T00:07:33.027Z</time>
      </trkpt>
      <trkpt lat="47.528467" lon="7.939644">
        <ele>381.240452</ele>
        <time>2021-11-17T00:07:44.099Z</time>
      </trkpt>
      <trkpt lat="47.528286" lon="7.940193">
        <ele>382.390508</ele>
        <time>2021-11-17T00:07:55.424Z</time>
      </trkpt>
      <trkpt lat="47.528232" lon="7.940349">
        <ele>382.720504</ele>
        <time>2021-11-17T00:07:58.514Z</time>
      </trkpt>
      <trkpt lat="47.528193" lon="7.940482">
        <ele>383.063015</ele>
        <time>2021-11-17T00:08:01.034Z</time>
      </trkpt>
      <trkpt lat="47.528074" lon="7.940914">
        <ele>384.181784</ele>
        <time>2021-11-17T00:08:10.081Z</time>
      </trkpt>
      <trkpt lat="47.527738" lon="7.942144">
        <ele>387.363412</ele>
        <time>2021-11-17T00:08:36.415Z</time>
      </trkpt>
      <trkpt lat="47.527562" lon="7.942799">
        <ele>389.053831</ele>
        <time>2021-11-17T00:08:49.955Z</time>
      </trkpt>
      <trkpt lat="47.527379" lon="7.943358">
        <ele>391.157651</ele>
        <time>2021-11-17T00:09:02.318Z</time>
      </trkpt>
      <trkpt lat="47.527098" lon="7.943983">
        <ele>393.738734</ele>
        <time>2021-11-17T00:09:20.647Z</time>
      </trkpt>
      <trkpt lat="47.526465" lon="7.944912">
        <ele>398.275477</ele>
        <time>2021-11-17T00:09:54.559Z</time>
      </trkpt>
      <trkpt lat="47.526210" lon="7.945167">
        <ele>399.797432</ele>
        <time>2021-11-17T00:10:06.327Z</time>
      </trkpt>
      <trkpt lat="47.526080" lon="7.945282">
        <ele>400.546337</ele>
        <time>2021-11-17T00:10:11.984Z</time>
      </trkpt>
      <trkpt lat="47.525932" lon="7.945400">
        <ele>401.377632</ele>
        <time>2021-11-17T00:10:18.032Z</time>
      </trkpt>
      <trkpt lat="47.525755" lon="7.945530">
        <ele>402.354757</ele>
        <time>2021-11-17T00:10:25.322Z</time>
      </trkpt>
      <trkpt lat="47.525003" lon="7.946035">
        <ele>406.438410</ele>
        <time>2021-11-17T00:10:53.698Z</time>
      </trkpt>
      <trkpt lat="47.524540" lon="7.946546">
        <ele>408.647491</ele>
        <time>2021-11-17T00:11:10.141Z</time>
      </trkpt>
      <trkpt lat="47.524015" lon="7.947474">
        <ele>411.454614</ele>
        <time>2021-11-17T00:11:30.254Z</time>
      </trkpt>
      <trkpt lat="47.522871" lon="7.949842">
        <ele>419.792717</ele>
        <time>2021-11-17T00:12:33.313Z</time>
      </trkpt>
      <trkpt lat="47.522583" lon="7.950558">
        <ele>422.380668</ele>
        <time>2021-11-17T00:12:51.830Z</time>
      </trkpt>
      <trkpt lat="47.522583" lon="7.950558">
        <ele>422.380668</ele>
        <time>2021-11-17T00:12:51.912Z</time>
      </trkpt>
      <trkpt lat="47.522583" lon="7.950558">
        <ele>422.380668</ele>
        <time>2021-11-17T00:12:51.919Z</time>
      </trkpt>
      <trkpt lat="47.522551" lon="7.950637">
        <ele>422.672374</ele>
        <time>2021-11-17T00:12:57.298Z</time>
      </trkpt>
      <trkpt lat="47.522166" lon="7.951598">
        <ele>426.210621</ele>
        <time>2021-11-17T00:13:23.511Z</time>
      </trkpt>
      <trkpt lat="47.521866" lon="7.952202">
        <ele>428.584839</ele>
        <time>2021-11-17T00:13:40.061Z</time>
      </trkpt>
      <trkpt lat="47.520960" lon="7.953410">
        <ele>433.905614</ele>
        <time>2021-11-17T00:14:14.784Z</time>
      </trkpt>
      <trkpt lat="47.520913" lon="7.953457">
        <ele>434.147156</ele>
        <time>2021-11-17T00:14:17.229Z</time>
      </trkpt>
      <trkpt lat="47.520196" lon="7.954168">
        <ele>437.796542</ele>
        <time>2021-11-17T00:14:46.843Z</time>
      </trkpt>
      <trkpt lat="47.519633" lon="7.954614">
        <ele>440.119502</ele>
        <time>2021-11-17T00:15:09.259Z</time>
      </trkpt>
      <trkpt lat="47.519421" lon="7.954816">
        <ele>441.036668</ele>
        <time>2021-11-17T00:15:17.626Z</time>
      </trkpt>
      <trkpt lat="47.518961" lon="7.955426">
        <ele>443.283218</ele>
        <time>2021-11-17T00:15:35.514Z</time>
      </trkpt>
      <trkpt lat="47.518757" lon="7.955695">
        <ele>444.182024</ele>
        <time>2021-11-17T00:15:41.661Z</time>
      </trkpt>
      <trkpt lat="47.518060" lon="7.957077">
        <ele>443.844930</ele>
        <time>2021-11-17T00:15:57.434Z</time>
      </trkpt>
      <trkpt lat="47.517852" lon="7.957582">
        <ele>443.729328</ele>
        <time>2021-11-17T00:16:02.019Z</time>
      </trkpt>
      <trkpt lat="47.517628" lon="7.958176">
        <ele>443.590460</ele>
        <time>2021-11-17T00:16:07.418Z</time>
      </trkpt>
      <trkpt lat="47.517484" lon="7.958473">
        <ele>443.513157</ele>
        <time>2021-11-17T00:16:10.332Z</time>
      </trkpt>
      <trkpt lat="47.517422" lon="7.958602">
        <ele>443.479680</ele>
        <time>2021-11-17T00:16:11.664Z</time>
      </trkpt>
      <trkpt lat="47.516682" lon="7.959949">
        <ele>443.112546</ele>
        <time>2021-11-17T00:16:28.749Z</time>
      </trkpt>
      <trkpt lat="47.516286" lon="7.960801">
        <ele>444.173072</ele>
        <time>2021-11-17T00:16:42.343Z</time>
      </trkpt>
      <trkpt lat="47.515417" lon="7.961931">
        <ele>445.996187</ele>
        <time>2021-11-17T00:17:10.300Z</time>
      </trkpt>
      <trkpt lat="47.515199" lon="7.962207">
        <ele>446.414506</ele>
        <time>2021-11-17T00:17:14.775Z</time>
      </trkpt>
      <trkpt lat="47.515187" lon="7.962222">
        <ele>446.437410</ele>
        <time>2021-11-17T00:17:16.431Z</time>
      </trkpt>
      <trkpt lat="47.514883" lon="7.962671">
        <ele>447.063643</ele>
        <time>2021-11-17T00:17:24.349Z</time>
      </trkpt>
      <trkpt lat="47.514842" lon="7.962822">
        <ele>447.223949</ele>
        <time>2021-11-17T00:17:25.746Z</time>
      </trkpt>
      <trkpt lat="47.514838" lon="7.962840">
        <ele>447.242614</ele>
        <time>2021-11-17T00:17:25.886Z</time>
      </trkpt>
      <trkpt lat="47.514838" lon="7.963162">
        <ele>447.559788</ele>
        <time>2021-11-17T00:17:31.179Z</time>
      </trkpt>
      <trkpt lat="47.514830" lon="7.963311">
        <ele>447.707018</ele>
        <time>2021-11-17T00:17:32.828Z</time>
      </trkpt>
      <trkpt lat="47.514809" lon="7.963450">
        <ele>447.847318</ele>
        <time>2021-11-17T00:17:34.124Z</time>
      </trkpt>
      <trkpt lat="47.514722" lon="7.963775">
        <ele>448.191676</ele>
        <time>2021-11-17T00:17:40.453Z</time>
      </trkpt>
      <trkpt lat="47.514703" lon="7.963873">
        <ele>448.292106</ele>
        <time>2021-11-17T00:17:41.320Z</time>
      </trkpt>
      <trkpt lat="47.514699" lon="7.963986">
        <ele>448.403565</ele>
        <time>2021-11-17T00:17:42.664Z</time>
      </trkpt>
      <trkpt lat="47.514665" lon="7.964238">
        <ele>448.720020</ele>
        <time>2021-11-17T00:17:48.002Z</time>
      </trkpt>
      <trkpt lat="47.514616" lon="7.964407">
        <ele>449.033852</ele>
        <time>2021-11-17T00:17:49.919Z</time>
      </trkpt>
      <trkpt lat="47.514429" lon="7.964841">
        <ele>449.912302</ele>
        <time>2021-11-17T00:17:57.049Z</time>
      </trkpt>
      <trkpt lat="47.514345" lon="7.964927">
        <ele>450.170326</ele>
        <time>2021-11-17T00:17:58.976Z</time>
      </trkpt>
      <trkpt lat="47.514266" lon="7.964968">
        <ele>450.381826</ele>
        <time>2021-11-17T00:18:00.964Z</time>
      </trkpt>
      <trkpt lat="47.514153" lon="7.964997">
        <ele>450.671578</ele>
        <time>2021-11-17T00:18:03.880Z</time>
      </trkpt>
      <trkpt lat="47.514025" lon="7.964995">
        <ele>450.994988</ele>
        <time>2021-11-17T00:18:06.537Z</time>
      </trkpt>
      <trkpt lat="47.513988" lon="7.964994">
        <ele>451.088484</ele>
        <time>2021-11-17T00:18:07.321Z</time>
      </trkpt>
      <trkpt lat="47.513857" lon="7.965014">
        <ele>451.421211</ele>
        <time>2021-11-17T00:18:10.852Z</time>
      </trkpt>
      <trkpt lat="47.513799" lon="7.965061">
        <ele>451.588261</ele>
        <time>2021-11-17T00:18:12.667Z</time>
      </trkpt>
      <trkpt lat="47.513691" lon="7.965208">
        <ele>451.958905</ele>
        <time>2021-11-17T00:18:16.082Z</time>
      </trkpt>
      <trkpt lat="47.513617" lon="7.965308">
        <ele>452.212033</ele>
        <time>2021-11-17T00:18:18.674Z</time>
      </trkpt>
      <trkpt lat="47.513496" lon="7.965435">
        <ele>452.586764</ele>
        <time>2021-11-17T00:18:22.781Z</time>
      </trkpt>
      <trkpt lat="47.513552" lon="7.965694">
        <ele>453.050826</ele>
        <time>2021-11-17T00:18:28.107Z</time>
      </trkpt>
      <trkpt lat="47.513574" lon="7.965795">
        <ele>453.364751</ele>
        <time>2021-11-17T00:18:30.634Z</time>
      </trkpt>
      <trkpt lat="47.513607" lon="7.966067">
        <ele>454.369822</ele>
        <time>2021-11-17T00:18:36.405Z</time>
      </trkpt>
      <trkpt lat="47.513677" lon="7.966493">
        <ele>455.964334</ele>
        <time>2021-11-17T00:18:46.680Z</time>
      </trkpt>
      <trkpt lat="47.513719" lon="7.966609">
        <ele>456.443009</ele>
        <time>2021-11-17T00:18:50.355Z</time>
      </trkpt>
      <trkpt lat="47.513963" lon="7.966968">
        <ele>458.295291</ele>
        <time>2021-11-17T00:19:03.424Z</time>
      </trkpt>
      <trkpt lat="47.514175" lon="7.967361">
        <ele>460.124504</ele>
        <time>2021-11-17T00:19:15.591Z</time>
      </trkpt>
      <trkpt lat="47.514265" lon="7.967596">
        <ele>461.107005</ele>
        <time>2021-11-17T00:19:22.214Z</time>
      </trkpt>
      <trkpt lat="47.514516" lon="7.968208">
        <ele>464.238365</ele>
        <time>2021-11-17T00:19:40.559Z</time>
      </trkpt>
      <trkpt lat="47.514581" lon="7.968390">
        <ele>465.420409</ele>
        <time>2021-11-17T00:19:47.888Z</time>
      </trkpt>
      <trkpt lat="47.514762" lon="7.968835">
        <ele>468.402889</ele>
        <time>2021-11-17T00:20:04.567Z</time>
      </trkpt>
      <trkpt lat="47.515012" lon="7.969232">
        <ele>471.519281</ele>
        <time>2021-11-17T00:20:23.016Z</time>
      </trkpt>
      <trkpt lat="47.515227" lon="7.969425">
        <ele>473.656628</ele>
        <time>2021-11-17T00:20:35.777Z</time>
      </trkpt>
      <trkpt lat="47.515307" lon="7.969493">
        <ele>474.440791</ele>
        <time>2021-11-17T00:20:41.145Z</time>
      </trkpt>
      <trkpt lat="47.515780" lon="7.969896">
        <ele>478.975305</ele>
        <time>2021-11-17T00:21:10.389Z</time>
      </trkpt>
      <trkpt lat="47.516258" lon="7.970425">
        <ele>483.512696</ele>
        <time>2021-11-17T00:21:41.449Z</time>
      </trkpt>
      <trkpt lat="47.516475" lon="7.970786">
        <ele>485.994363</ele>
        <time>2021-11-17T00:21:59.142Z</time>
      </trkpt>
      <trkpt lat="47.516639" lon="7.971156">
        <ele>488.266977</ele>
        <time>2021-11-17T00:22:13.974Z</time>
      </trkpt>
      <trkpt lat="47.516849" lon="7.971986">
        <ele>491.342620</ele>
        <time>2021-11-17T00:22:35.332Z</time>
      </trkpt>
      <trkpt lat="47.517017" lon="7.972944">
        <ele>489.303639</ele>
        <time>2021-11-17T00:22:43.080Z</time>
      </trkpt>
      <trkpt lat="47.517070" lon="7.973149">
        <ele>488.851442</ele>
        <time>2021-11-17T00:22:44.504Z</time>
      </trkpt>
      <trkpt lat="47.517191" lon="7.973538">
        <ele>487.969174</ele>
        <time>2021-11-17T00:22:47.296Z</time>
      </trkpt>
      <trkpt lat="47.517208" lon="7.973572">
        <ele>487.882026</ele>
        <time>2021-11-17T00:22:47.539Z</time>
      </trkpt>
      <trkpt lat="47.517263" lon="7.973683">
        <ele>487.598420</ele>
        <time>2021-11-17T00:22:48.372Z</time>
      </trkpt>
      <trkpt lat="47.517422" lon="7.973976">
        <ele>486.824120</ele>
        <time>2021-11-17T00:22:50.701Z</time>
      </trkpt>
      <trkpt lat="47.517539" lon="7.974133">
        <ele>486.342490</ele>
        <time>2021-11-17T00:22:52.094Z</time>
      </trkpt>
      <trkpt lat="47.517601" lon="7.974216">
        <ele>485.709438</ele>
        <time>2021-11-17T00:22:52.822Z</time>
      </trkpt>
      <trkpt lat="47.517803" lon="7.974479">
        <ele>483.267125</ele>
        <time>2021-11-17T00:22:55.169Z</time>
      </trkpt>
      <trkpt lat="47.517897" lon="7.974601">
        <ele>482.132167</ele>
        <time>2021-11-17T00:22:56.233Z</time>
      </trkpt>
      <trkpt lat="47.518511" lon="7.975376">
        <ele>474.806537</ele>
        <time>2021-11-17T00:23:03.145Z</time>
      </trkpt>
      <trkpt lat="47.518771" lon="7.975833">
        <ele>471.142377</ele>
        <time>2021-11-17T00:23:06.658Z</time>
      </trkpt>
      <trkpt lat="47.518954" lon="7.976318">
        <ele>468.542791</ele>
        <time>2021-11-17T00:23:09.999Z</time>
      </trkpt>
      <trkpt lat="47.519021" lon="7.976610">
        <ele>467.341762</ele>
        <time>2021-11-17T00:23:11.917Z</time>
      </trkpt>
      <trkpt lat="47.519068" lon="7.976937">
        <ele>466.039748</ele>
        <time>2021-11-17T00:23:14.005Z</time>
      </trkpt>
      <trkpt lat="47.519130" lon="7.977741">
        <ele>462.888252</ele>
        <time>2021-11-17T00:23:19.016Z</time>
      </trkpt>
      <trkpt lat="47.519217" lon="7.979377">
        <ele>459.132455</ele>
        <time>2021-11-17T00:23:29.807Z</time>
      </trkpt>
      <trkpt lat="47.519262" lon="7.980038">
        <ele>458.760082</ele>
        <time>2021-11-17T00:23:35.022Z</time>
      </trkpt>
      <trkpt lat="47.518938" lon="7.980093">
        <ele>458.489414</ele>
        <time>2021-11-17T00:24:11.475Z</time>
      </trkpt>
      <trkpt lat="47.518298" lon="7.980206">
        <ele>458.745161</ele>
        <time>2021-11-17T00:25:28.286Z</time>
      </trkpt>
      <trkpt lat="47.517633" lon="7.980418">
        <ele>461.662079</ele>
        <time>2021-11-17T00:26:55.814Z</time>
      </trkpt>
      <trkpt lat="47.517255" lon="7.980642">
        <ele>463.407967</ele>
        <time>2021-11-17T00:27:50.726Z</time>
      </trkpt>
      <trkpt lat="47.516970" lon="7.981153">
        <ele>465.327231</ele>
        <time>2021-11-17T00:28:50.325Z</time>
      </trkpt>
      <trkpt lat="47.516666" lon="7.982302">
        <ele>468.110419</ele>
        <time>2021-11-17T00:30:35.189Z</time>
      </trkpt>
      <trkpt lat="47.516360" lon="7.983035">
        <ele>469.970715</ele>
        <time>2021-11-17T00:31:46.287Z</time>
      </trkpt>
      <trkpt lat="47.516251" lon="7.983296">
        <ele>470.633186</ele>
        <time>2021-11-17T00:32:10.653Z</time>
      </trkpt>
      <trkpt lat="47.516037" lon="7.983705">
        <ele>471.718064</ele>
        <time>2021-11-17T00:32:52.447Z</time>
      </trkpt>
      <trkpt lat="47.516036" lon="7.983707">
        <ele>471.722598</ele>
        <time>2021-11-17T00:32:52.550Z</time>
      </trkpt>
      <trkpt lat="47.515459" lon="7.984619">
        <ele>473.999513</ele>
        <time>2021-11-17T00:34:38.191Z</time>
      </trkpt>
      <trkpt lat="47.515212" lon="7.985092">
        <ele>475.088910</ele>
        <time>2021-11-17T00:35:26.498Z</time>
      </trkpt>
      <trkpt lat="47.515029" lon="7.985591">
        <ele>476.123513</ele>
        <time>2021-11-17T00:36:12.381Z</time>
      </trkpt>
      <trkpt lat="47.514984" lon="7.985795">
        <ele>476.574255</ele>
        <time>2021-11-17T00:36:30.081Z</time>
      </trkpt>
      <trkpt lat="47.514955" lon="7.985985">
        <ele>477.109549</ele>
        <time>2021-11-17T00:36:45.690Z</time>
      </trkpt>
      <trkpt lat="47.514922" lon="7.986199">
        <ele>477.712763</ele>
        <time>2021-11-17T00:37:04.467Z</time>
      </trkpt>
      <trkpt lat="47.514895" lon="7.986454">
        <ele>478.422073</ele>
        <time>2021-11-17T00:37:25.442Z</time>
      </trkpt>
      <trkpt lat="47.514857" lon="7.986612">
        <ele>478.882971</ele>
        <time>2021-11-17T00:37:39.723Z</time>
      </trkpt>
      <trkpt lat="47.514801" lon="7.986869">
        <ele>479.625065</ele>
        <time>2021-11-17T00:38:02.478Z</time>
      </trkpt>
      <trkpt lat="47.514696" lon="7.987074">
        <ele>480.332088</ele>
        <time>2021-11-17T00:38:24.076Z</time>
      </trkpt>
      <trkpt lat="47.514488" lon="7.987298">
        <ele>481.378583</ele>
        <time>2021-11-17T00:38:56.103Z</time>
      </trkpt>
      <trkpt lat="47.514195" lon="7.987607">
        <ele>482.842239</ele>
        <time>2021-11-17T00:39:46.028Z</time>
      </trkpt>
      <trkpt lat="47.514055" lon="7.987689">
        <ele>483.454820</ele>
        <time>2021-11-17T00:40:08.177Z</time>
      </trkpt>
      <trkpt lat="47.513697" lon="7.987670">
        <ele>485.985129</ele>
        <time>2021-11-17T00:40:55.502Z</time>
      </trkpt>
      <trkpt lat="47.513512" lon="7.987549">
        <ele>487.545466</ele>
        <time>2021-11-17T00:41:19.960Z</time>
      </trkpt>
      <trkpt lat="47.513196" lon="7.987138">
        <ele>490.790499</ele>
        <time>2021-11-17T00:42:17.778Z</time>
      </trkpt>
      <trkpt lat="47.513120" lon="7.987065">
        <ele>491.489421</ele>
        <time>2021-11-17T00:42:33.810Z</time>
      </trkpt>
      <trkpt lat="47.513070" lon="7.987017">
        <ele>491.949164</ele>
        <time>2021-11-17T00:42:44.334Z</time>
      </trkpt>
      <trkpt lat="47.512195" lon="7.986702">
        <ele>498.524677</ele>
        <time>2021-11-17T00:44:55.579Z</time>
      </trkpt>
      <trkpt lat="47.511832" lon="7.986684">
        <ele>500.528245</ele>
        <time>2021-11-17T00:45:48.279Z</time>
      </trkpt>
      <trkpt lat="47.511754" lon="7.986681">
        <ele>500.958668</ele>
        <time>2021-11-17T00:45:59.672Z</time>
      </trkpt>
      <trkpt lat="47.511677" lon="7.986666">
        <ele>501.387090</ele>
        <time>2021-11-17T00:46:13.560Z</time>
      </trkpt>
      <trkpt lat="47.511625" lon="7.986656">
        <ele>501.676351</ele>
        <time>2021-11-17T00:46:21.444Z</time>
      </trkpt>
      <trkpt lat="47.511388" lon="7.986757">
        <ele>503.036817</ele>
        <time>2021-11-17T00:46:51.868Z</time>
      </trkpt>
      <trkpt lat="47.511287" lon="7.986937">
        <ele>503.908731</ele>
        <time>2021-11-17T00:47:13.333Z</time>
      </trkpt>
      <trkpt lat="47.511285" lon="7.987015">
        <ele>504.199569</ele>
        <time>2021-11-17T00:47:19.519Z</time>
      </trkpt>
      <trkpt lat="47.511279" lon="7.987254">
        <ele>505.090700</ele>
        <time>2021-11-17T00:47:39.702Z</time>
      </trkpt>
      <trkpt lat="47.511291" lon="7.987928">
        <ele>507.481588</ele>
        <time>2021-11-17T00:48:36.048Z</time>
      </trkpt>
      <trkpt lat="47.511279" lon="7.989103">
        <ele>505.897625</ele>
        <time>2021-11-17T00:50:03.926Z</time>
      </trkpt>
      <trkpt lat="47.511281" lon="7.989398">
        <ele>505.499975</ele>
        <time>2021-11-17T00:50:24.537Z</time>
      </trkpt>
      <trkpt lat="47.511310" lon="7.989658">
        <ele>505.144775</ele>
        <time>2021-11-17T00:50:42.151Z</time>
      </trkpt>
      <trkpt lat="47.511323" lon="7.989943">
        <ele>504.759749</ele>
        <time>2021-11-17T00:51:01.529Z</time>
      </trkpt>
      <trkpt lat="47.511276" lon="7.990072">
        <ele>504.562187</ele>
        <time>2021-11-17T00:51:11.076Z</time>
      </trkpt>
      <trkpt lat="47.511333" lon="7.990498">
        <ele>503.976824</ele>
        <time>2021-11-17T00:51:39.467Z</time>
      </trkpt>
      <trkpt lat="47.511524" lon="7.990642">
        <ele>502.693744</ele>
        <time>2021-11-17T00:51:59.764Z</time>
      </trkpt>
      <trkpt lat="47.511515" lon="7.991186">
        <ele>500.289039</ele>
        <time>2021-11-17T00:52:34.148Z</time>
      </trkpt>
      <trkpt lat="47.511385" lon="7.991709">
        <ele>497.826322</ele>
        <time>2021-11-17T00:53:09.001Z</time>
      </trkpt>
      <trkpt lat="47.510997" lon="7.992648">
        <ele>492.961888</ele>
        <time>2021-11-17T00:54:18.035Z</time>
      </trkpt>
      <trkpt lat="47.510818" lon="7.992811">
        <ele>491.633483</ele>
        <time>2021-11-17T00:54:37.525Z</time>
      </trkpt>
      <trkpt lat="47.509204" lon="7.992776">
        <ele>481.934437</ele>
        <time>2021-11-17T00:57:07.778Z</time>
      </trkpt>
      <trkpt lat="47.509038" lon="7.992773">
        <ele>481.478665</ele>
        <time>2021-11-17T00:57:24.588Z</time>
      </trkpt>
      <trkpt lat="47.508977" lon="7.992786">
        <ele>481.594739</ele>
        <time>2021-11-17T00:57:30.217Z</time>
      </trkpt>
      <trkpt lat="47.508933" lon="7.992795">
        <ele>481.678398</ele>
        <time>2021-11-17T00:57:35.228Z</time>
      </trkpt>
      <trkpt lat="47.508590" lon="7.991481">
        <ele>483.470579</ele>
        <time>2021-11-17T00:59:23.730Z</time>
      </trkpt>
      <trkpt lat="47.508561" lon="7.991069">
        <ele>483.997573</ele>
        <time>2021-11-17T00:59:58.273Z</time>
      </trkpt>
      <trkpt lat="47.508932" lon="7.990221">
        <ele>487.087519</ele>
        <time>2021-11-17T01:01:36.230Z</time>
      </trkpt>
      <trkpt lat="47.508930" lon="7.989875">
        <ele>488.982833</ele>
        <time>2021-11-17T01:02:11.960Z</time>
      </trkpt>
      <trkpt lat="47.508822" lon="7.989054">
        <ele>493.564421</ele>
        <time>2021-11-17T01:03:33.183Z</time>
      </trkpt>
      <trkpt lat="47.508812" lon="7.988947">
        <ele>494.156107</ele>
        <time>2021-11-17T01:03:44.852Z</time>
      </trkpt>
      <trkpt lat="47.508804" lon="7.988871">
        <ele>494.577429</ele>
        <time>2021-11-17T01:03:52.870Z</time>
      </trkpt>
      <trkpt lat="47.508539" lon="7.986509">
        <ele>506.889058</ele>
        <time>2021-11-17T01:07:42.473Z</time>
      </trkpt>
      <trkpt lat="47.508861" lon="7.985423">
        <ele>512.741003</ele>
        <time>2021-11-17T01:09:33.338Z</time>
      </trkpt>
      <trkpt lat="47.508982" lon="7.985006">
        <ele>514.804594</ele>
        <time>2021-11-17T01:10:16.148Z</time>
      </trkpt>
      <trkpt lat="47.509006" lon="7.984925">
        <ele>515.206765</ele>
        <time>2021-11-17T01:10:24.272Z</time>
      </trkpt>
      <trkpt lat="47.509029" lon="7.984818">
        <ele>515.717320</ele>
        <time>2021-11-17T01:10:34.958Z</time>
      </trkpt>
      <trkpt lat="47.509056" lon="7.984659">
        <ele>516.462768</ele>
        <time>2021-11-17T01:10:50.613Z</time>
      </trkpt>
      <trkpt lat="47.509054" lon="7.984474">
        <ele>517.304046</ele>
        <time>2021-11-17T01:11:07.710Z</time>
      </trkpt>
      <trkpt lat="47.509026" lon="7.984256">
        <ele>518.313024</ele>
        <time>2021-11-17T01:11:28.684Z</time>
      </trkpt>
      <trkpt lat="47.508909" lon="7.983878">
        <ele>520.203596</ele>
        <time>2021-11-17T01:12:07.887Z</time>
      </trkpt>
      <trkpt lat="47.508402" lon="7.982292">
        <ele>525.702361</ele>
        <time>2021-11-17T01:14:51.092Z</time>
      </trkpt>
      <trkpt lat="47.508315" lon="7.981894">
        <ele>526.282221</ele>
        <time>2021-11-17T01:15:27.332Z</time>
      </trkpt>
      <trkpt lat="47.508252" lon="7.981311">
        <ele>527.100629</ele>
        <time>2021-11-17T01:16:13.641Z</time>
      </trkpt>
      <trkpt lat="47.508287" lon="7.980547">
        <ele>528.162089</ele>
        <time>2021-11-17T01:17:08.819Z</time>
      </trkpt>
      <trkpt lat="47.508295" lon="7.980412">
        <ele>528.176162</ele>
        <time>2021-11-17T01:17:20.003Z</time>
      </trkpt>
      <trkpt lat="47.508298" lon="7.980362">
        <ele>527.970495</ele>
        <time>2021-11-17T01:17:23.602Z</time>
      </trkpt>
      <trkpt lat="47.508160" lon="7.980614">
        <ele>526.641321</ele>
        <time>2021-11-17T01:17:26.537Z</time>
      </trkpt>
      <trkpt lat="47.507123" lon="7.982752">
        <ele>515.357928</ele>
        <time>2021-11-17T01:17:49.314Z</time>
      </trkpt>
      <trkpt lat="47.507055" lon="7.982858">
        <ele>514.564739</ele>
        <time>2021-11-17T01:17:50.546Z</time>
      </trkpt>
      <trkpt lat="47.507011" lon="7.982902">
        <ele>514.138227</ele>
        <time>2021-11-17T01:17:51.186Z</time>
      </trkpt>
      <trkpt lat="47.506875" lon="7.982899">
        <ele>513.045680</ele>
        <time>2021-11-17T01:17:52.900Z</time>
      </trkpt>
      <trkpt lat="47.506692" lon="7.982561">
        <ele>510.695301</ele>
        <time>2021-11-17T01:17:56.546Z</time>
      </trkpt>
      <trkpt lat="47.506233" lon="7.982148">
        <ele>506.380747</ele>
        <time>2021-11-17T01:18:03.293Z</time>
      </trkpt>
      <trkpt lat="47.505601" lon="7.981812">
        <ele>500.611192</ele>
        <time>2021-11-17T01:18:11.704Z</time>
      </trkpt>
      <trkpt lat="47.505399" lon="7.981833">
        <ele>498.673256</ele>
        <time>2021-11-17T01:18:14.235Z</time>
      </trkpt>
      <trkpt lat="47.505275" lon="7.981948">
        <ele>497.272902</ele>
        <time>2021-11-17T01:18:16.074Z</time>
      </trkpt>
      <trkpt lat="47.505164" lon="7.982187">
        <ele>495.397854</ele>
        <time>2021-11-17T01:18:18.486Z</time>
      </trkpt>
      <trkpt lat="47.505153" lon="7.982527">
        <ele>493.197275</ele>
        <time>2021-11-17T01:18:21.320Z</time>
      </trkpt>
      <trkpt lat="47.505235" lon="7.983158">
        <ele>489.043141</ele>
        <time>2021-11-17T01:18:26.598Z</time>
      </trkpt>
      <trkpt lat="47.505184" lon="7.983498">
        <ele>486.791547</ele>
        <time>2021-11-17T01:18:29.431Z</time>
      </trkpt>
      <trkpt lat="47.505169" lon="7.983598">
        <ele>486.129313</ele>
        <time>2021-11-17T01:18:30.262Z</time>
      </trkpt>
      <trkpt lat="47.505014" lon="7.983996">
        <ele>482.776707</ele>
        <time>2021-11-17T01:18:34.003Z</time>
      </trkpt>
      <trkpt lat="47.504558" lon="7.985032">
        <ele>473.595362</ele>
        <time>2021-11-17T01:18:44.077Z</time>
      </trkpt>
      <trkpt lat="47.504408" lon="7.985264">
        <ele>471.210840</ele>
        <time>2021-11-17T01:18:46.682Z</time>
      </trkpt>
      <trkpt lat="47.503784" lon="7.986110">
        <ele>462.168299</ele>
        <time>2021-11-17T01:18:56.881Z</time>
      </trkpt>
      <trkpt lat="47.502975" lon="7.987226">
        <ele>450.787428</ele>
        <time>2021-11-17T01:19:10.346Z</time>
      </trkpt>
      <trkpt lat="47.502461" lon="7.987886">
        <ele>444.170114</ele>
        <time>2021-11-17T01:19:18.677Z</time>
      </trkpt>
      <trkpt lat="47.501201" lon="7.989503">
        <ele>429.022513</ele>
        <time>2021-11-17T01:19:39.278Z</time>
      </trkpt>
      <trkpt lat="47.498444" lon="7.993225">
        <ele>399.217937</ele>
        <time>2021-11-17T01:20:26.130Z</time>
      </trkpt>
      <trkpt lat="47.498171" lon="7.993563">
        <ele>396.887315</ele>
        <time>2021-11-17T01:20:30.671Z</time>
      </trkpt>
      <trkpt lat="47.497169" lon="7.994210">
        <ele>389.755650</ele>
        <time>2021-11-17T01:20:44.953Z</time>
      </trkpt>
      <trkpt lat="47.495891" lon="7.995038">
        <ele>384.302917</ele>
        <time>2021-11-17T01:21:04.656Z</time>
      </trkpt>
      <trkpt lat="47.495297" lon="7.995227">
        <ele>382.230194</ele>
        <time>2021-11-17T01:21:13.624Z</time>
      </trkpt>
      <trkpt lat="47.494770" lon="7.995288">
        <ele>380.909438</ele>
        <time>2021-11-17T01:21:21.363Z</time>
      </trkpt>
      <trkpt lat="47.494663" lon="7.995312">
        <ele>380.639041</ele>
        <time>2021-11-17T01:21:23.015Z</time>
      </trkpt>
      <trkpt lat="47.494655" lon="7.995343">
        <ele>380.583021</ele>
        <time>2021-11-17T01:21:23.265Z</time>
      </trkpt>
      <trkpt lat="47.494627" lon="7.995447">
        <ele>380.394026</ele>
        <time>2021-11-17T01:21:24.049Z</time>
      </trkpt>
      <trkpt lat="47.494368" lon="7.995845">
        <ele>379.461177</ele>
        <time>2021-11-17T01:21:28.100Z</time>
      </trkpt>
      <trkpt lat="47.494293" lon="7.995952">
        <ele>379.200899</ele>
        <time>2021-11-17T01:21:29.248Z</time>
      </trkpt>
      <trkpt lat="47.494203" lon="7.996025">
        <ele>378.944474</ele>
        <time>2021-11-17T01:21:30.340Z</time>
      </trkpt>
      <trkpt lat="47.493967" lon="7.996177">
        <ele>378.301403</ele>
        <time>2021-11-17T01:21:33.257Z</time>
      </trkpt>
      <trkpt lat="47.493868" lon="7.996295">
        <ele>378.179752</ele>
        <time>2021-11-17T01:21:34.659Z</time>
      </trkpt>
      <trkpt lat="47.493757" lon="7.996428">
        <ele>378.066087</ele>
        <time>2021-11-17T01:21:36.320Z</time>
      </trkpt>
      <trkpt lat="47.493684" lon="7.996562">
        <ele>377.973522</ele>
        <time>2021-11-17T01:21:37.612Z</time>
      </trkpt>
      <trkpt lat="47.493652" lon="7.996488">
        <ele>377.926276</ele>
        <time>2021-11-17T01:21:38.279Z</time>
      </trkpt>
      <trkpt lat="47.493567" lon="7.996156">
        <ele>377.735352</ele>
        <time>2021-11-17T01:21:41.071Z</time>
      </trkpt>
      <trkpt lat="47.493524" lon="7.995985">
        <ele>377.637233</ele>
        <time>2021-11-17T01:21:42.453Z</time>
      </trkpt>
      <trkpt lat="47.493430" lon="7.995894">
        <ele>377.547837</ele>
        <time>2021-11-17T01:21:43.903Z</time>
      </trkpt>
      <trkpt lat="47.492867" lon="7.995700">
        <ele>377.087767</ele>
        <time>2021-11-17T01:21:51.498Z</time>
      </trkpt>
      <trkpt lat="47.492390" lon="7.995213">
        <ele>377.071122</ele>
        <time>2021-11-17T01:22:01.437Z</time>
      </trkpt>
      <trkpt lat="47.492344" lon="7.995171">
        <ele>377.117775</ele>
        <time>2021-11-17T01:22:02.447Z</time>
      </trkpt>
      <trkpt lat="47.492271" lon="7.995104">
        <ele>377.191918</ele>
        <time>2021-11-17T01:22:04.063Z</time>
      </trkpt>
      <trkpt lat="47.492156" lon="7.994971">
        <ele>377.317895</ele>
        <time>2021-11-17T01:22:06.592Z</time>
      </trkpt>
      <trkpt lat="47.491996" lon="7.994807">
        <ele>377.485888</ele>
        <time>2021-11-17T01:22:11.272Z</time>
      </trkpt>
      <trkpt lat="47.491759" lon="7.994592">
        <ele>377.725828</ele>
        <time>2021-11-17T01:22:17.767Z</time>
      </trkpt>
      <trkpt lat="47.491577" lon="7.994479">
        <ele>377.896187</ele>
        <time>2021-11-17T01:22:22.524Z</time>
      </trkpt>
      <trkpt lat="47.491370" lon="7.994298">
        <ele>378.103715</ele>
        <time>2021-11-17T01:22:28.453Z</time>
      </trkpt>
      <trkpt lat="47.490495" lon="7.993473">
        <ele>379.292799</ele>
        <time>2021-11-17T01:22:54.683Z</time>
      </trkpt>
      <trkpt lat="47.489739" lon="7.992457">
        <ele>380.600638</ele>
        <time>2021-11-17T01:23:20.632Z</time>
      </trkpt>
      <trkpt lat="47.489640" lon="7.992334">
        <ele>380.773611</ele>
        <time>2021-11-17T01:23:23.901Z</time>
      </trkpt>
      <trkpt lat="47.489544" lon="7.992214">
        <ele>380.951536</ele>
        <time>2021-11-17T01:23:27.215Z</time>
      </trkpt>
      <trkpt lat="47.489090" lon="7.991643">
        <ele>381.795137</ele>
        <time>2021-11-17T01:23:42.239Z</time>
      </trkpt>
      <trkpt lat="47.488771" lon="7.991233">
        <ele>382.393370</ele>
        <time>2021-11-17T01:23:53.001Z</time>
      </trkpt>
      <trkpt lat="47.488698" lon="7.991149">
        <ele>382.524299</ele>
        <time>2021-11-17T01:23:55.484Z</time>
      </trkpt>
      <trkpt lat="47.487359" lon="7.989771">
        <ele>385.077112</ele>
        <time>2021-11-17T01:24:39.097Z</time>
      </trkpt>
      <trkpt lat="47.487298" lon="7.989709">
        <ele>385.197931</ele>
        <time>2021-11-17T01:24:41.407Z</time>
      </trkpt>
      <trkpt lat="47.487127" lon="7.989547">
        <ele>385.529422</ele>
        <time>2021-11-17T01:24:46.567Z</time>
      </trkpt>
      <trkpt lat="47.486511" lon="7.989012">
        <ele>386.669449</ele>
        <time>2021-11-17T01:25:05.776Z</time>
      </trkpt>
      <trkpt lat="47.486162" lon="7.988596">
        <ele>387.364135</ele>
        <time>2021-11-17T01:25:17.704Z</time>
      </trkpt>
      <trkpt lat="47.485848" lon="7.988106">
        <ele>388.071525</ele>
        <time>2021-11-17T01:25:29.856Z</time>
      </trkpt>
      <trkpt lat="47.485496" lon="7.987549">
        <ele>388.870398</ele>
        <time>2021-11-17T01:25:42.785Z</time>
      </trkpt>
      <trkpt lat="47.484679" lon="7.986270">
        <ele>390.960156</ele>
        <time>2021-11-17T01:26:14.287Z</time>
      </trkpt>
      <trkpt lat="47.484557" lon="7.985988">
        <ele>391.360336</ele>
        <time>2021-11-17T01:26:20.758Z</time>
      </trkpt>
      <trkpt lat="47.484546" lon="7.985963">
        <ele>391.395990</ele>
        <time>2021-11-17T01:26:21.384Z</time>
      </trkpt>
      <trkpt lat="47.484451" lon="7.985647">
        <ele>391.809343</ele>
        <time>2021-11-17T01:26:28.146Z</time>
      </trkpt>
      <trkpt lat="47.484219" lon="7.985842">
        <ele>392.310014</ele>
        <time>2021-11-17T01:26:36.075Z</time>
      </trkpt>
      <trkpt lat="47.484091" lon="7.985948">
        <ele>392.625587</ele>
        <time>2021-11-17T01:26:40.277Z</time>
      </trkpt>
      <trkpt lat="47.484049" lon="7.985980">
        <ele>392.727221</ele>
        <time>2021-11-17T01:26:41.679Z</time>
      </trkpt>
      <trkpt lat="47.483826" lon="7.986159">
        <ele>393.273029</ele>
        <time>2021-11-17T01:26:49.125Z</time>
      </trkpt>
      <trkpt lat="47.483550" lon="7.986378">
        <ele>393.946804</ele>
        <time>2021-11-17T01:26:58.316Z</time>
      </trkpt>
      <trkpt lat="47.483462" lon="7.986151">
        <ele>394.327293</ele>
        <time>2021-11-17T01:27:02.346Z</time>
      </trkpt>
      <trkpt lat="47.483382" lon="7.985915">
        <ele>394.711168</ele>
        <time>2021-11-17T01:27:06.559Z</time>
      </trkpt>
      <trkpt lat="47.483274" lon="7.985553">
        <ele>395.286499</ele>
        <time>2021-11-17T01:27:12.593Z</time>
      </trkpt>
      <trkpt lat="47.483173" lon="7.985106">
        <ele>395.971773</ele>
        <time>2021-11-17T01:27:19.941Z</time>
      </trkpt>
      <trkpt lat="47.483153" lon="7.984996">
        <ele>396.108223</ele>
        <time>2021-11-17T01:27:21.716Z</time>
      </trkpt>
      <trkpt lat="47.483130" lon="7.984873">
        <ele>396.248516</ele>
        <time>2021-11-17T01:27:23.622Z</time>
      </trkpt>
      <trkpt lat="47.483001" lon="7.984129">
        <ele>397.092872</ele>
        <time>2021-11-17T01:27:35.892Z</time>
      </trkpt>
      <trkpt lat="47.482897" lon="7.983529">
        <ele>397.773792</ele>
        <time>2021-11-17T01:27:44.688Z</time>
      </trkpt>
      <trkpt lat="47.482842" lon="7.983213">
        <ele>398.132503</ele>
        <time>2021-11-17T01:27:48.997Z</time>
      </trkpt>
      <trkpt lat="47.482840" lon="7.983205">
        <ele>398.141880</ele>
        <time>2021-11-17T01:27:49.293Z</time>
      </trkpt>
      <trkpt lat="47.482729" lon="7.982770">
        <ele>398.653022</ele>
        <time>2021-11-17T01:27:55.232Z</time>
      </trkpt>
      <trkpt lat="47.482704" lon="7.982687">
        <ele>398.752915</ele>
        <time>2021-11-17T01:27:56.566Z</time>
      </trkpt>
      <trkpt lat="47.482652" lon="7.982524">
        <ele>398.950045</ele>
        <time>2021-11-17T01:27:58.783Z</time>
      </trkpt>
      <trkpt lat="47.482594" lon="7.982339">
        <ele>399.144038</ele>
        <time>2021-11-17T01:28:01.478Z</time>
      </trkpt>
      <trkpt lat="47.482563" lon="7.982231">
        <ele>399.255653</ele>
        <time>2021-11-17T01:28:03.051Z</time>
      </trkpt>
      <trkpt lat="47.482472" lon="7.981944">
        <ele>399.557212</ele>
        <time>2021-11-17T01:28:07.188Z</time>
      </trkpt>
      <trkpt lat="47.482458" lon="7.981897">
        <ele>399.606071</ele>
        <time>2021-11-17T01:28:07.907Z</time>
      </trkpt>
      <trkpt lat="47.482159" lon="7.980898">
        <ele>400.645383</ele>
        <time>2021-11-17T01:28:23.258Z</time>
      </trkpt>
      <trkpt lat="47.482099" lon="7.980698">
        <ele>400.853534</ele>
        <time>2021-11-17T01:28:26.297Z</time>
      </trkpt>
      <trkpt lat="47.482025" lon="7.980480">
        <ele>401.085594</ele>
        <time>2021-11-17T01:28:29.738Z</time>
      </trkpt>
      <trkpt lat="47.481977" lon="7.980334">
        <ele>401.240038</ele>
        <time>2021-11-17T01:28:32.151Z</time>
      </trkpt>
      <trkpt lat="47.481757" lon="7.979824">
        <ele>401.913265</ele>
        <time>2021-11-17T01:28:40.700Z</time>
      </trkpt>
      <trkpt lat="47.481673" lon="7.979611">
        <ele>402.215178</ele>
        <time>2021-11-17T01:28:44.218Z</time>
      </trkpt>
      <trkpt lat="47.481627" lon="7.979494">
        <ele>402.380890</ele>
        <time>2021-11-17T01:28:46.224Z</time>
      </trkpt>
      <trkpt lat="47.481508" lon="7.979190">
        <ele>402.810983</ele>
        <time>2021-11-17T01:28:50.942Z</time>
      </trkpt>
      <trkpt lat="47.481417" lon="7.978989">
        <ele>403.107169</ele>
        <time>2021-11-17T01:28:54.666Z</time>
      </trkpt>
      <trkpt lat="47.481331" lon="7.978796">
        <ele>403.390185</ele>
        <time>2021-11-17T01:28:57.867Z</time>
      </trkpt>
      <trkpt lat="47.481075" lon="7.978353">
        <ele>404.103761</ele>
        <time>2021-11-17T01:29:06.840Z</time>
      </trkpt>
      <trkpt lat="47.481057" lon="7.978315">
        <ele>404.160572</ele>
        <time>2021-11-17T01:29:07.945Z</time>
      </trkpt>
      <trkpt lat="47.480540" lon="7.977249">
        <ele>406.171753</ele>
        <time>2021-11-17T01:29:29.097Z</time>
      </trkpt>
      <trkpt lat="47.480294" lon="7.976615">
        <ele>407.417365</ele>
        <time>2021-11-17T01:29:41.140Z</time>
      </trkpt>
      <trkpt lat="47.480258" lon="7.976521">
        <ele>407.601455</ele>
        <time>2021-11-17T01:29:43.230Z</time>
      </trkpt>
      <trkpt lat="47.480172" lon="7.976321">
        <ele>408.005352</ele>
        <time>2021-11-17T01:29:46.640Z</time>
      </trkpt>
      <trkpt lat="47.480019" lon="7.976061">
        <ele>408.592750</ele>
        <time>2021-11-17T01:29:52.379Z</time>
      </trkpt>
      <trkpt lat="47.479744" lon="7.975611">
        <ele>409.854440</ele>
        <time>2021-11-17T01:30:02.904Z</time>
      </trkpt>
      <trkpt lat="47.479662" lon="7.975458">
        <ele>410.398704</ele>
        <time>2021-11-17T01:30:06.922Z</time>
      </trkpt>
      <trkpt lat="47.479650" lon="7.975428">
        <ele>410.495870</ele>
        <time>2021-11-17T01:30:07.528Z</time>
      </trkpt>
      <trkpt lat="47.479548" lon="7.975187">
        <ele>411.288447</ele>
        <time>2021-11-17T01:30:13.309Z</time>
      </trkpt>
      <trkpt lat="47.479521" lon="7.975122">
        <ele>411.501103</ele>
        <time>2021-11-17T01:30:14.966Z</time>
      </trkpt>
      <trkpt lat="47.479256" lon="7.974388">
        <ele>413.820578</ele>
        <time>2021-11-17T01:30:33.186Z</time>
      </trkpt>
      <trkpt lat="47.479198" lon="7.974266">
        <ele>414.236330</ele>
        <time>2021-11-17T01:30:36.897Z</time>
      </trkpt>
      <trkpt lat="47.479172" lon="7.974215">
        <ele>414.414388</ele>
        <time>2021-11-17T01:30:38.671Z</time>
      </trkpt>
      <trkpt lat="47.479095" lon="7.974066">
        <ele>414.937189</ele>
        <time>2021-11-17T01:30:42.949Z</time>
      </trkpt>
      <trkpt lat="47.479061" lon="7.974014">
        <ele>415.138854</ele>
        <time>2021-11-17T01:30:44.148Z</time>
      </trkpt>
      <trkpt lat="47.478952" lon="7.973850">
        <ele>415.779971</ele>
        <time>2021-11-17T01:30:49.224Z</time>
      </trkpt>
      <trkpt lat="47.478606" lon="7.973396">
        <ele>417.592581</ele>
        <time>2021-11-17T01:31:04.988Z</time>
      </trkpt>
      <trkpt lat="47.478494" lon="7.973191">
        <ele>418.257918</ele>
        <time>2021-11-17T01:31:09.863Z</time>
      </trkpt>
      <trkpt lat="47.478424" lon="7.973015">
        <ele>418.773358</ele>
        <time>2021-11-17T01:31:15.466Z</time>
      </trkpt>
      <trkpt lat="47.478295" lon="7.972689">
        <ele>419.726847</ele>
        <time>2021-11-17T01:31:22.810Z</time>
      </trkpt>
      <trkpt lat="47.478213" lon="7.972508">
        <ele>420.276838</ele>
        <time>2021-11-17T01:31:28.078Z</time>
      </trkpt>
      <trkpt lat="47.478198" lon="7.972475">
        <ele>420.377216</ele>
        <time>2021-11-17T01:31:28.872Z</time>
      </trkpt>
      <trkpt lat="47.478083" lon="7.972275">
        <ele>421.039994</ele>
        <time>2021-11-17T01:31:33.181Z</time>
      </trkpt>
      <trkpt lat="47.477778" lon="7.971876">
        <ele>422.560397</ele>
        <time>2021-11-17T01:31:45.286Z</time>
      </trkpt>
      <trkpt lat="47.477698" lon="7.971759">
        <ele>422.980479</ele>
        <time>2021-11-17T01:31:48.780Z</time>
      </trkpt>
      <trkpt lat="47.477623" lon="7.971640">
        <ele>423.391171</ele>
        <time>2021-11-17T01:31:51.029Z</time>
      </trkpt>
      <trkpt lat="47.477553" lon="7.971461">
        <ele>423.549531</ele>
        <time>2021-11-17T01:31:54.689Z</time>
      </trkpt>
      <trkpt lat="47.477522" lon="7.971381">
        <ele>423.616481</ele>
        <time>2021-11-17T01:31:56.678Z</time>
      </trkpt>
      <trkpt lat="47.477370" lon="7.970827">
        <ele>424.050573</ele>
        <time>2021-11-17T01:32:05.058Z</time>
      </trkpt>
      <trkpt lat="47.477322" lon="7.970682">
        <ele>424.167795</ele>
        <time>2021-11-17T01:32:07.181Z</time>
      </trkpt>
      <trkpt lat="47.477284" lon="7.970600">
        <ele>424.239978</ele>
        <time>2021-11-17T01:32:08.120Z</time>
      </trkpt>
      <trkpt lat="47.477262" lon="7.970548">
        <ele>424.284518</ele>
        <time>2021-11-17T01:32:08.915Z</time>
      </trkpt>
      <trkpt lat="47.477203" lon="7.970445">
        <ele>424.382542</ele>
        <time>2021-11-17T01:32:10.727Z</time>
      </trkpt>
      <trkpt lat="47.477135" lon="7.970342">
        <ele>424.487077</ele>
        <time>2021-11-17T01:32:12.419Z</time>
      </trkpt>
      <trkpt lat="47.477029" lon="7.970212">
        <ele>424.634973</ele>
        <time>2021-11-17T01:32:14.181Z</time>
      </trkpt>
      <trkpt lat="47.476944" lon="7.970103">
        <ele>424.755800</ele>
        <time>2021-11-17T01:32:16.083Z</time>
      </trkpt>
      <trkpt lat="47.476670" lon="7.969631">
        <ele>425.207532</ele>
        <time>2021-11-17T01:32:21.813Z</time>
      </trkpt>
      <trkpt lat="47.476396" lon="7.969182">
        <ele>425.955219</ele>
        <time>2021-11-17T01:32:29.054Z</time>
      </trkpt>
      <trkpt lat="47.476327" lon="7.969094">
        <ele>426.149842</ele>
        <time>2021-11-17T01:32:30.607Z</time>
      </trkpt>
      <trkpt lat="47.476103" lon="7.968806">
        <ele>426.783856</ele>
        <time>2021-11-17T01:32:36.505Z</time>
      </trkpt>
      <trkpt lat="47.475871" lon="7.968576">
        <ele>427.380495</ele>
        <time>2021-11-17T01:32:43.143Z</time>
      </trkpt>
      <trkpt lat="47.475729" lon="7.968403">
        <ele>427.773488</ele>
        <time>2021-11-17T01:32:47.376Z</time>
      </trkpt>
      <trkpt lat="47.475684" lon="7.968334">
        <ele>427.911945</ele>
        <time>2021-11-17T01:32:48.830Z</time>
      </trkpt>
      <trkpt lat="47.475616" lon="7.968229">
        <ele>428.121933</ele>
        <time>2021-11-17T01:32:51.028Z</time>
      </trkpt>
      <trkpt lat="47.475312" lon="7.968548">
        <ele>428.918183</ele>
        <time>2021-11-17T01:33:01.150Z</time>
      </trkpt>
      <trkpt lat="47.474879" lon="7.968783">
        <ele>431.483168</ele>
        <time>2021-11-17T01:33:15.907Z</time>
      </trkpt>
      <trkpt lat="47.474555" lon="7.968862">
        <ele>433.710972</ele>
        <time>2021-11-17T01:33:28.809Z</time>
      </trkpt>
      <trkpt lat="47.474238" lon="7.968922">
        <ele>435.879162</ele>
        <time>2021-11-17T01:33:43.111Z</time>
      </trkpt>
      <trkpt lat="47.473628" lon="7.969058">
        <ele>440.064388</ele>
        <time>2021-11-17T01:34:13.221Z</time>
      </trkpt>
      <trkpt lat="47.472626" lon="7.969301">
        <ele>446.388311</ele>
        <time>2021-11-17T01:35:01.898Z</time>
      </trkpt>
      <trkpt lat="47.471877" lon="7.969497">
        <ele>451.025731</ele>
        <time>2021-11-17T01:35:29.900Z</time>
      </trkpt>
      <trkpt lat="47.471196" lon="7.969654">
        <ele>452.050278</ele>
        <time>2021-11-17T01:35:47.432Z</time>
      </trkpt>
      <trkpt lat="47.469542" lon="7.970235">
        <ele>450.643450</ele>
        <time>2021-11-17T01:36:05.757Z</time>
      </trkpt>
      <trkpt lat="47.469339" lon="7.970255">
        <ele>450.329861</ele>
        <time>2021-11-17T01:36:07.774Z</time>
      </trkpt>
      <trkpt lat="47.469022" lon="7.970240">
        <ele>449.840998</ele>
        <time>2021-11-17T01:36:11.107Z</time>
      </trkpt>
      <trkpt lat="47.468142" lon="7.970113">
        <ele>448.478159</ele>
        <time>2021-11-17T01:36:22.195Z</time>
      </trkpt>
      <trkpt lat="47.467469" lon="7.970226">
        <ele>449.279727</ele>
        <time>2021-11-17T01:36:32.722Z</time>
      </trkpt>
      <trkpt lat="47.467356" lon="7.970255">
        <ele>449.424903</ele>
        <time>2021-11-17T01:36:36.086Z</time>
      </trkpt>
      <trkpt lat="47.467243" lon="7.970284">
        <ele>449.570079</ele>
        <time>2021-11-17T01:36:38.321Z</time>
      </trkpt>
      <trkpt lat="47.466575" lon="7.970455">
        <ele>450.428225</ele>
        <time>2021-11-17T01:36:53.865Z</time>
      </trkpt>
      <trkpt lat="47.466209" lon="7.970465">
        <ele>450.972349</ele>
        <time>2021-11-17T01:37:02.543Z</time>
      </trkpt>
      <trkpt lat="47.465838" lon="7.970388">
        <ele>451.675466</ele>
        <time>2021-11-17T01:37:11.662Z</time>
      </trkpt>
      <trkpt lat="47.465273" lon="7.970155">
        <ele>452.776302</ele>
        <time>2021-11-17T01:37:23.815Z</time>
      </trkpt>
      <trkpt lat="47.464851" lon="7.969824">
        <ele>453.672774</ele>
        <time>2021-11-17T01:37:34.679Z</time>
      </trkpt>
      <trkpt lat="47.463869" lon="7.968734">
        <ele>455.935589</ele>
        <time>2021-11-17T01:38:01.509Z</time>
      </trkpt>
      <trkpt lat="47.463713" lon="7.968547">
        <ele>456.304128</ele>
        <time>2021-11-17T01:38:06.207Z</time>
      </trkpt>
      <trkpt lat="47.463389" lon="7.968088">
        <ele>457.127544</ele>
        <time>2021-11-17T01:38:15.996Z</time>
      </trkpt>
      <trkpt lat="47.463153" lon="7.967669">
        <ele>457.858108</ele>
        <time>2021-11-17T01:38:24.210Z</time>
      </trkpt>
      <trkpt lat="47.462955" lon="7.967287">
        <ele>458.535209</ele>
        <time>2021-11-17T01:38:31.737Z</time>
      </trkpt>
      <trkpt lat="47.462416" lon="7.966027">
        <ele>460.632635</ele>
        <time>2021-11-17T01:38:55.199Z</time>
      </trkpt>
      <trkpt lat="47.462208" lon="7.965649">
        <ele>461.292105</ele>
        <time>2021-11-17T01:39:03.279Z</time>
      </trkpt>
      <trkpt lat="47.461753" lon="7.965074">
        <ele>462.350999</ele>
        <time>2021-11-17T01:39:17.188Z</time>
      </trkpt>
      <trkpt lat="47.461085" lon="7.964391">
        <ele>463.787855</ele>
        <time>2021-11-17T01:39:34.618Z</time>
      </trkpt>
      <trkpt lat="47.460768" lon="7.963901">
        <ele>464.542813</ele>
        <time>2021-11-17T01:39:44.086Z</time>
      </trkpt>
      <trkpt lat="47.460551" lon="7.963411">
        <ele>465.098956</ele>
        <time>2021-11-17T01:39:51.603Z</time>
      </trkpt>
      <trkpt lat="47.460489" lon="7.963238">
        <ele>465.284858</ele>
        <time>2021-11-17T01:39:53.800Z</time>
      </trkpt>
      <trkpt lat="47.460405" lon="7.962956">
        <ele>465.577434</ele>
        <time>2021-11-17T01:39:57.921Z</time>
      </trkpt>
      <trkpt lat="47.460083" lon="7.961991">
        <ele>466.599157</ele>
        <time>2021-11-17T01:40:12.547Z</time>
      </trkpt>
      <trkpt lat="47.459581" lon="7.961147">
        <ele>468.436396</ele>
        <time>2021-11-17T01:40:30.551Z</time>
      </trkpt>
      <trkpt lat="47.459416" lon="7.960954">
        <ele>469.011060</ele>
        <time>2021-11-17T01:40:35.805Z</time>
      </trkpt>
      <trkpt lat="47.459280" lon="7.960788">
        <ele>469.492757</ele>
        <time>2021-11-17T01:40:40.412Z</time>
      </trkpt>
      <trkpt lat="47.459074" lon="7.960615">
        <ele>470.139891</ele>
        <time>2021-11-17T01:40:46.470Z</time>
      </trkpt>
      <trkpt lat="47.458898" lon="7.960485">
        <ele>470.677306</ele>
        <time>2021-11-17T01:40:52.086Z</time>
      </trkpt>
      <trkpt lat="47.457199" lon="7.959536">
        <ele>476.504806</ele>
        <time>2021-11-17T01:41:43.858Z</time>
      </trkpt>
      <trkpt lat="47.456734" lon="7.959350">
        <ele>478.183774</ele>
        <time>2021-11-17T01:41:56.612Z</time>
      </trkpt>
      <trkpt lat="47.455967" lon="7.959329">
        <ele>481.270894</ele>
        <time>2021-11-17T01:42:18.836Z</time>
      </trkpt>
      <trkpt lat="47.455234" lon="7.959555">
        <ele>484.284080</ele>
        <time>2021-11-17T01:42:43.198Z</time>
      </trkpt>
      <trkpt lat="47.455065" lon="7.959595">
        <ele>484.972831</ele>
        <time>2021-11-17T01:42:48.786Z</time>
      </trkpt>
      <trkpt lat="47.454959" lon="7.959615">
        <ele>485.549866</ele>
        <time>2021-11-17T01:42:52.698Z</time>
      </trkpt>
      <trkpt lat="47.454626" lon="7.959663">
        <ele>487.407977</ele>
        <time>2021-11-17T01:43:04.508Z</time>
      </trkpt>
      <trkpt lat="47.453337" lon="7.959692">
        <ele>494.567391</ele>
        <time>2021-11-17T01:43:54.304Z</time>
      </trkpt>
      <trkpt lat="47.450176" lon="7.960171">
        <ele>510.462912</ele>
        <time>2021-11-17T01:45:49.320Z</time>
      </trkpt>
      <trkpt lat="47.449207" lon="7.960269">
        <ele>512.860039</ele>
        <time>2021-11-17T01:46:13.515Z</time>
      </trkpt>
      <trkpt lat="47.449168" lon="7.960272">
        <ele>512.876921</ele>
        <time>2021-11-17T01:46:13.904Z</time>
      </trkpt>
      <trkpt lat="47.448152" lon="7.960399">
        <ele>513.317691</ele>
        <time>2021-11-17T01:46:29.306Z</time>
      </trkpt>
      <trkpt lat="47.446978" lon="7.960776">
        <ele>513.075293</ele>
        <time>2021-11-17T01:46:43.051Z</time>
      </trkpt>
      <trkpt lat="47.446670" lon="7.960908">
        <ele>512.952424</ele>
        <time>2021-11-17T01:46:47.521Z</time>
      </trkpt>
      <trkpt lat="47.446265" lon="7.961081">
        <ele>512.790901</ele>
        <time>2021-11-17T01:46:54.503Z</time>
      </trkpt>
      <trkpt lat="47.445731" lon="7.961482">
        <ele>514.025475</ele>
        <time>2021-11-17T01:47:07.013Z</time>
      </trkpt>
      <trkpt lat="47.445632" lon="7.961583">
        <ele>514.348833</ele>
        <time>2021-11-17T01:47:10.159Z</time>
      </trkpt>
      <trkpt lat="47.445405" lon="7.961813">
        <ele>515.088636</ele>
        <time>2021-11-17T01:47:17.206Z</time>
      </trkpt>
      <trkpt lat="47.445186" lon="7.962043">
        <ele>515.810800</ele>
        <time>2021-11-17T01:47:24.253Z</time>
      </trkpt>
      <trkpt lat="47.444993" lon="7.962238">
        <ele>516.439231</ele>
        <time>2021-11-17T01:47:30.811Z</time>
      </trkpt>
      <trkpt lat="47.444976" lon="7.962255">
        <ele>516.494405</ele>
        <time>2021-11-17T01:47:31.370Z</time>
      </trkpt>
      <trkpt lat="47.444826" lon="7.962406">
        <ele>516.982256</ele>
        <time>2021-11-17T01:47:36.404Z</time>
      </trkpt>
      <trkpt lat="47.444267" lon="7.962981">
        <ele>519.750645</ele>
        <time>2021-11-17T01:47:58.329Z</time>
      </trkpt>
      <trkpt lat="47.443663" lon="7.963570">
        <ele>523.174620</ele>
        <time>2021-11-17T01:48:23.358Z</time>
      </trkpt>
      <trkpt lat="47.443323" lon="7.963902">
        <ele>525.102811</ele>
        <time>2021-11-17T01:48:37.060Z</time>
      </trkpt>
      <trkpt lat="47.443282" lon="7.963930">
        <ele>525.316532</ele>
        <time>2021-11-17T01:48:39.299Z</time>
      </trkpt>
      <trkpt lat="47.443115" lon="7.964042">
        <ele>526.215542</ele>
        <time>2021-11-17T01:48:45.325Z</time>
      </trkpt>
      <trkpt lat="47.442282" lon="7.964392">
        <ele>531.689377</ele>
        <time>2021-11-17T01:49:16.580Z</time>
      </trkpt>
      <trkpt lat="47.441371" lon="7.965446">
        <ele>539.829782</ele>
        <time>2021-11-17T01:50:05.974Z</time>
      </trkpt>
      <trkpt lat="47.441328" lon="7.965473">
        <ele>540.283884</ele>
        <time>2021-11-17T01:50:10.119Z</time>
      </trkpt>
      <trkpt lat="47.441204" lon="7.965554">
        <ele>541.601593</ele>
        <time>2021-11-17T01:50:16.084Z</time>
      </trkpt>
      <trkpt lat="47.440933" lon="7.965666">
        <ele>544.336764</ele>
        <time>2021-11-17T01:50:31.430Z</time>
      </trkpt>
      <trkpt lat="47.440543" lon="7.965818">
        <ele>548.257172</ele>
        <time>2021-11-17T01:50:53.840Z</time>
      </trkpt>
      <trkpt lat="47.440012" lon="7.966095">
        <ele>553.730489</ele>
        <time>2021-11-17T01:51:22.236Z</time>
      </trkpt>
      <trkpt lat="47.439942" lon="7.966121">
        <ele>554.432051</ele>
        <time>2021-11-17T01:51:29.256Z</time>
      </trkpt>
      <trkpt lat="47.439807" lon="7.966143">
        <ele>555.919821</ele>
        <time>2021-11-17T01:51:38.980Z</time>
      </trkpt>
      <trkpt lat="47.439737" lon="7.966170">
        <ele>556.768786</ele>
        <time>2021-11-17T01:51:42.424Z</time>
      </trkpt>
      <trkpt lat="47.439678" lon="7.966197">
        <ele>557.493576</ele>
        <time>2021-11-17T01:51:45.593Z</time>
      </trkpt>
      <trkpt lat="47.439608" lon="7.966261">
        <ele>558.459427</ele>
        <time>2021-11-17T01:51:51.145Z</time>
      </trkpt>
      <trkpt lat="47.439547" lon="7.966322">
        <ele>559.323646</ele>
        <time>2021-11-17T01:51:57.617Z</time>
      </trkpt>
      <trkpt lat="47.439287" lon="7.966643">
        <ele>563.298752</ele>
        <time>2021-11-17T01:52:18.266Z</time>
      </trkpt>
      <trkpt lat="47.438790" lon="7.967000">
        <ele>569.783118</ele>
        <time>2021-11-17T01:52:52.888Z</time>
      </trkpt>
      <trkpt lat="47.438609" lon="7.967099">
        <ele>572.047902</ele>
        <time>2021-11-17T01:53:08.200Z</time>
      </trkpt>
      <trkpt lat="47.438462" lon="7.967152">
        <ele>573.823544</ele>
        <time>2021-11-17T01:53:16.196Z</time>
      </trkpt>
      <trkpt lat="47.438044" lon="7.967266">
        <ele>577.758732</ele>
        <time>2021-11-17T01:53:40.975Z</time>
      </trkpt>
      <trkpt lat="47.437738" lon="7.967468">
        <ele>580.191265</ele>
        <time>2021-11-17T01:53:57.405Z</time>
      </trkpt>
      <trkpt lat="47.437561" lon="7.967616">
        <ele>581.667312</ele>
        <time>2021-11-17T01:54:07.293Z</time>
      </trkpt>
      <trkpt lat="47.437098" lon="7.968128">
        <ele>585.864238</ele>
        <time>2021-11-17T01:54:29.562Z</time>
      </trkpt>
      <trkpt lat="47.437006" lon="7.968207">
        <ele>586.636514</ele>
        <time>2021-11-17T01:54:34.291Z</time>
      </trkpt>
      <trkpt lat="47.436936" lon="7.968257">
        <ele>587.200822</ele>
        <time>2021-11-17T01:54:35.111Z</time>
      </trkpt>
      <trkpt lat="47.436435" lon="7.968422">
        <ele>591.032624</ele>
        <time>2021-11-17T01:54:53.322Z</time>
      </trkpt>
      <trkpt lat="47.436240" lon="7.968528">
        <ele>592.628621</ele>
        <time>2021-11-17T01:54:59.259Z</time>
      </trkpt>
      <trkpt lat="47.436210" lon="7.968545">
        <ele>592.875424</ele>
        <time>2021-11-17T01:55:00.492Z</time>
      </trkpt>
      <trkpt lat="47.436171" lon="7.968569">
        <ele>593.199932</ele>
        <time>2021-11-17T01:55:02.319Z</time>
      </trkpt>
      <trkpt lat="47.435945" lon="7.968713">
        <ele>595.090392</ele>
        <time>2021-11-17T01:55:11.594Z</time>
      </trkpt>
      <trkpt lat="47.435622" lon="7.969103">
        <ele>598.293989</ele>
        <time>2021-11-17T01:55:29.295Z</time>
      </trkpt>
      <trkpt lat="47.435592" lon="7.969165">
        <ele>598.690089</ele>
        <time>2021-11-17T01:55:31.600Z</time>
      </trkpt>
      <trkpt lat="47.435499" lon="7.969359">
        <ele>599.925618</ele>
        <time>2021-11-17T01:55:37.899Z</time>
      </trkpt>
      <trkpt lat="47.435217" lon="7.969930">
        <ele>604.390659</ele>
        <time>2021-11-17T01:56:08.112Z</time>
      </trkpt>
      <trkpt lat="47.435033" lon="7.970303">
        <ele>609.601163</ele>
        <time>2021-11-17T01:56:31.880Z</time>
      </trkpt>
      <trkpt lat="47.434854" lon="7.970659">
        <ele>614.607700</ele>
        <time>2021-11-17T01:56:52.547Z</time>
      </trkpt>
      <trkpt lat="47.434835" lon="7.970711">
        <ele>615.274760</ele>
        <time>2021-11-17T01:56:56.866Z</time>
      </trkpt>
      <trkpt lat="47.434817" lon="7.970756">
        <ele>615.864819</ele>
        <time>2021-11-17T01:57:00.661Z</time>
      </trkpt>
      <trkpt lat="47.434760" lon="7.971172">
        <ele>620.655448</ele>
        <time>2021-11-17T01:57:21.145Z</time>
      </trkpt>
      <trkpt lat="47.434732" lon="7.971724">
        <ele>626.903208</ele>
        <time>2021-11-17T01:57:59.108Z</time>
      </trkpt>
      <trkpt lat="47.434713" lon="7.971956">
        <ele>629.540849</ele>
        <time>2021-11-17T01:58:15.424Z</time>
      </trkpt>
      <trkpt lat="47.434644" lon="7.972421">
        <ele>634.607522</ele>
        <time>2021-11-17T01:58:46.291Z</time>
      </trkpt>
      <trkpt lat="47.434376" lon="7.973524">
        <ele>645.786381</ele>
        <time>2021-11-17T01:59:48.981Z</time>
      </trkpt>
      <trkpt lat="47.434340" lon="7.973566">
        <ele>646.433047</ele>
        <time>2021-11-17T01:59:54.003Z</time>
      </trkpt>
      <trkpt lat="47.434299" lon="7.973598">
        <ele>647.086809</ele>
        <time>2021-11-17T01:59:56.124Z</time>
      </trkpt>
      <trkpt lat="47.434264" lon="7.973594">
        <ele>647.581812</ele>
        <time>2021-11-17T01:59:57.821Z</time>
      </trkpt>
      <trkpt lat="47.434245" lon="7.973591">
        <ele>647.851252</ele>
        <time>2021-11-17T01:59:58.784Z</time>
      </trkpt>
      <trkpt lat="47.434197" lon="7.973559">
        <ele>648.593733</ele>
        <time>2021-11-17T02:00:01.917Z</time>
      </trkpt>
      <trkpt lat="47.434160" lon="7.973499">
        <ele>649.368158</ele>
        <time>2021-11-17T02:00:05.922Z</time>
      </trkpt>
      <trkpt lat="47.434124" lon="7.973362">
        <ele>650.770048</ele>
        <time>2021-11-17T02:00:11.624Z</time>
      </trkpt>
      <trkpt lat="47.434139" lon="7.972983">
        <ele>654.391268</ele>
        <time>2021-11-17T02:00:26.745Z</time>
      </trkpt>
      <trkpt lat="47.434066" lon="7.972679">
        <ele>657.468219</ele>
        <time>2021-11-17T02:00:39.160Z</time>
      </trkpt>
      <trkpt lat="47.433999" lon="7.972513">
        <ele>658.562604</ele>
        <time>2021-11-17T02:00:43.334Z</time>
      </trkpt>
      <trkpt lat="47.433985" lon="7.972481">
        <ele>658.657407</ele>
        <time>2021-11-17T02:00:44.659Z</time>
      </trkpt>
      <trkpt lat="47.433652" lon="7.971751">
        <ele>660.847715</ele>
        <time>2021-11-17T02:01:10.120Z</time>
      </trkpt>
      <trkpt lat="47.433359" lon="7.971344">
        <ele>662.326277</ele>
        <time>2021-11-17T02:01:17.064Z</time>
      </trkpt>
      <trkpt lat="47.432959" lon="7.971039">
        <ele>663.981440</ele>
        <time>2021-11-17T02:01:25.459Z</time>
      </trkpt>
      <trkpt lat="47.432214" lon="7.970755">
        <ele>667.030061</ele>
        <time>2021-11-17T02:01:40.601Z</time>
      </trkpt>
      <trkpt lat="47.431927" lon="7.970836">
        <ele>668.228685</ele>
        <time>2021-11-17T02:01:48.404Z</time>
      </trkpt>
      <trkpt lat="47.431712" lon="7.971054">
        <ele>669.298216</ele>
        <time>2021-11-17T02:01:57.530Z</time>
      </trkpt>
      <trkpt lat="47.431585" lon="7.971539">
        <ele>670.741446</ele>
        <time>2021-11-17T02:02:10.263Z</time>
      </trkpt>
      <trkpt lat="47.431594" lon="7.972217">
        <ele>673.035368</ele>
        <time>2021-11-17T02:02:27.107Z</time>
      </trkpt>
      <trkpt lat="47.431599" lon="7.972246">
        <ele>673.221500</ele>
        <time>2021-11-17T02:02:29.248Z</time>
      </trkpt>
      <trkpt lat="47.431630" lon="7.972434">
        <ele>674.425006</ele>
        <time>2021-11-17T02:02:35.490Z</time>
      </trkpt>
      <trkpt lat="47.432052" lon="7.973957">
        <ele>684.661107</ele>
        <time>2021-11-17T02:03:30.581Z</time>
      </trkpt>
      <trkpt lat="47.432488" lon="7.974763">
        <ele>692.048202</ele>
        <time>2021-11-17T02:04:13.298Z</time>
      </trkpt>
      <trkpt lat="47.432533" lon="7.974869">
        <ele>693.161354</ele>
        <time>2021-11-17T02:04:21.460Z</time>
      </trkpt>
      <trkpt lat="47.432566" lon="7.974989">
        <ele>694.313571</ele>
        <time>2021-11-17T02:04:25.894Z</time>
      </trkpt>
      <trkpt lat="47.432621" lon="7.975362">
        <ele>697.709266</ele>
        <time>2021-11-17T02:04:42.769Z</time>
      </trkpt>
      <trkpt lat="47.432600" lon="7.975672">
        <ele>700.480469</ele>
        <time>2021-11-17T02:04:53.830Z</time>
      </trkpt>
      <trkpt lat="47.432583" lon="7.975764">
        <ele>701.328779</ele>
        <time>2021-11-17T02:04:57.783Z</time>
      </trkpt>
      <trkpt lat="47.432536" lon="7.975879">
        <ele>702.523889</ele>
        <time>2021-11-17T02:05:07.396Z</time>
      </trkpt>
      <trkpt lat="47.432376" lon="7.976074">
        <ele>705.250570</ele>
        <time>2021-11-17T02:05:18.932Z</time>
      </trkpt>
      <trkpt lat="47.432203" lon="7.976081">
        <ele>707.526235</ele>
        <time>2021-11-17T02:05:34.314Z</time>
      </trkpt>
      <trkpt lat="47.432098" lon="7.976005">
        <ele>709.063518</ele>
        <time>2021-11-17T02:05:41.419Z</time>
      </trkpt>
      <trkpt lat="47.431773" lon="7.975449">
        <ele>715.702934</ele>
        <time>2021-11-17T02:06:17.766Z</time>
      </trkpt>
      <trkpt lat="47.431648" lon="7.975443">
        <ele>717.401845</ele>
        <time>2021-11-17T02:06:29.157Z</time>
      </trkpt>
      <trkpt lat="47.431567" lon="7.975556">
        <ele>718.914769</ele>
        <time>2021-11-17T02:06:36.050Z</time>
      </trkpt>
      <trkpt lat="47.431696" lon="7.976161">
        <ele>724.743897</ele>
        <time>2021-11-17T02:07:08.785Z</time>
      </trkpt>
      <trkpt lat="47.431738" lon="7.976680">
        <ele>729.547114</ele>
        <time>2021-11-17T02:07:32.307Z</time>
      </trkpt>
      <trkpt lat="47.431600" lon="7.977440">
        <ele>736.778156</ele>
        <time>2021-11-17T02:08:06.289Z</time>
      </trkpt>
      <trkpt lat="47.431606" lon="7.978215">
        <ele>741.381784</ele>
        <time>2021-11-17T02:08:37.916Z</time>
      </trkpt>
      <trkpt lat="47.431692" lon="7.978805">
        <ele>744.929138</ele>
        <time>2021-11-17T02:08:59.707Z</time>
      </trkpt>
      <trkpt lat="47.432006" lon="7.980108">
        <ele>752.831249</ele>
        <time>2021-11-17T02:09:37.921Z</time>
      </trkpt>
      <trkpt lat="47.432096" lon="7.980282">
        <ele>753.554105</ele>
        <time>2021-11-17T02:09:45.201Z</time>
      </trkpt>
      <trkpt lat="47.432171" lon="7.980388">
        <ele>754.060315</ele>
        <time>2021-11-17T02:09:48.137Z</time>
      </trkpt>
      <trkpt lat="47.432724" lon="7.981066">
        <ele>757.565270</ele>
        <time>2021-11-17T02:10:12.582Z</time>
      </trkpt>
      <trkpt lat="47.433139" lon="7.981160">
        <ele>759.613496</ele>
        <time>2021-11-17T02:10:25.246Z</time>
      </trkpt>
      <trkpt lat="47.433235" lon="7.981249">
        <ele>760.166314</ele>
        <time>2021-11-17T02:10:28.354Z</time>
      </trkpt>
      <trkpt lat="47.433244" lon="7.981277">
        <ele>760.268618</ele>
        <time>2021-11-17T02:10:29.467Z</time>
      </trkpt>
      <trkpt lat="47.433251" lon="7.981321">
        <ele>760.417784</ele>
        <time>2021-11-17T02:10:31.361Z</time>
      </trkpt>
      <trkpt lat="47.433227" lon="7.981456">
        <ele>760.878425</ele>
        <time>2021-11-17T02:10:35.324Z</time>
      </trkpt>
      <trkpt lat="47.433123" lon="7.981545">
        <ele>761.431599</ele>
        <time>2021-11-17T02:10:37.871Z</time>
      </trkpt>
      <trkpt lat="47.432188" lon="7.981293">
        <ele>765.047833</ele>
        <time>2021-11-17T02:11:07.596Z</time>
      </trkpt>
      <trkpt lat="47.432020" lon="7.981325">
        <ele>765.692342</ele>
        <time>2021-11-17T02:11:11.105Z</time>
      </trkpt>
      <trkpt lat="47.431915" lon="7.981428">
        <ele>766.171817</ele>
        <time>2021-11-17T02:11:15.626Z</time>
      </trkpt>
      <trkpt lat="47.431876" lon="7.981495">
        <ele>766.399324</ele>
        <time>2021-11-17T02:11:18.580Z</time>
      </trkpt>
      <trkpt lat="47.431857" lon="7.981543">
        <ele>766.542468</ele>
        <time>2021-11-17T02:11:19.638Z</time>
      </trkpt>
      <trkpt lat="47.431828" lon="7.981811">
        <ele>767.241041</ele>
        <time>2021-11-17T02:11:23.729Z</time>
      </trkpt>
      <trkpt lat="47.431888" lon="7.982446">
        <ele>769.288864</ele>
        <time>2021-11-17T02:11:35.806Z</time>
      </trkpt>
      <trkpt lat="47.431877" lon="7.982519">
        <ele>769.585724</ele>
        <time>2021-11-17T02:11:38.155Z</time>
      </trkpt>
      <trkpt lat="47.431868" lon="7.982566">
        <ele>769.779611</ele>
        <time>2021-11-17T02:11:39.362Z</time>
      </trkpt>
      <trkpt lat="47.431846" lon="7.982640">
        <ele>770.100454</ele>
        <time>2021-11-17T02:11:40.686Z</time>
      </trkpt>
      <trkpt lat="47.431777" lon="7.982815">
        <ele>770.904462</ele>
        <time>2021-11-17T02:11:43.769Z</time>
      </trkpt>
      <trkpt lat="47.431599" lon="7.983256">
        <ele>772.942844</ele>
        <time>2021-11-17T02:11:54.779Z</time>
      </trkpt>
      <trkpt lat="47.431475" lon="7.983571">
        <ele>774.389472</ele>
        <time>2021-11-17T02:12:04.729Z</time>
      </trkpt>
      <trkpt lat="47.431322" lon="7.983937">
        <ele>776.097255</ele>
        <time>2021-11-17T02:12:18.089Z</time>
      </trkpt>
      <trkpt lat="47.431170" lon="7.984115">
        <ele>777.235090</ele>
        <time>2021-11-17T02:12:29.136Z</time>
      </trkpt>
      <trkpt lat="47.430499" lon="7.984297">
        <ele>780.545773</ele>
        <time>2021-11-17T02:13:00.734Z</time>
      </trkpt>
      <trkpt lat="47.430461" lon="7.984320">
        <ele>780.720684</ele>
        <time>2021-11-17T02:13:04.430Z</time>
      </trkpt>
      <trkpt lat="47.430267" lon="7.984456">
        <ele>781.635279</ele>
        <time>2021-11-17T02:13:08.581Z</time>
      </trkpt>
      <trkpt lat="47.430233" lon="7.984472">
        <ele>781.787270</ele>
        <time>2021-11-17T02:13:10.679Z</time>
      </trkpt>
      <trkpt lat="47.430199" lon="7.984483">
        <ele>781.935527</ele>
        <time>2021-11-17T02:13:14.426Z</time>
      </trkpt>
      <trkpt lat="47.429895" lon="7.984539">
        <ele>783.240484</ele>
        <time>2021-11-17T02:13:20.029Z</time>
      </trkpt>
      <trkpt lat="47.429731" lon="7.984658">
        <ele>784.018696</ele>
        <time>2021-11-17T02:13:30.358Z</time>
      </trkpt>
      <trkpt lat="47.429305" lon="7.985346">
        <ele>785.824973</ele>
        <time>2021-11-17T02:13:43.106Z</time>
      </trkpt>
      <trkpt lat="47.429235" lon="7.985450">
        <ele>785.128013</ele>
        <time>2021-11-17T02:13:44.805Z</time>
      </trkpt>
      <trkpt lat="47.429168" lon="7.985548">
        <ele>784.466098</ele>
        <time>2021-11-17T02:13:45.612Z</time>
      </trkpt>
      <trkpt lat="47.429061" lon="7.985728">
        <ele>783.327740</ele>
        <time>2021-11-17T02:13:50.674Z</time>
      </trkpt>
      <trkpt lat="47.428926" lon="7.985968">
        <ele>781.844914</ele>
        <time>2021-11-17T02:13:52.487Z</time>
      </trkpt>
      <trkpt lat="47.428874" lon="7.986072">
        <ele>781.230536</ele>
        <time>2021-11-17T02:13:54.258Z</time>
      </trkpt>
      <trkpt lat="47.428790" lon="7.986347">
        <ele>779.797080</ele>
        <time>2021-11-17T02:13:55.976Z</time>
      </trkpt>
      <trkpt lat="47.428769" lon="7.986424">
        <ele>779.402665</ele>
        <time>2021-11-17T02:13:56.454Z</time>
      </trkpt>
      <trkpt lat="47.428725" lon="7.986611">
        <ele>778.462072</ele>
        <time>2021-11-17T02:13:57.731Z</time>
      </trkpt>
      <trkpt lat="47.428672" lon="7.986831">
        <ele>777.352613</ele>
        <time>2021-11-17T02:13:59.056Z</time>
      </trkpt>
      <trkpt lat="47.428672" lon="7.986831">
        <ele>777.352613</ele>
        <time>2021-11-17T02:13:59.092Z</time>
      </trkpt>
      <trkpt lat="47.428672" lon="7.986831">
        <ele>777.352613</ele>
        <time>2021-11-17T02:13:59.174Z</time>
      </trkpt>
      <trkpt lat="47.428661" lon="7.986875">
        <ele>777.129762</ele>
        <time>2021-11-17T02:13:59.436Z</time>
      </trkpt>
      <trkpt lat="47.428625" lon="7.987034">
        <ele>776.333208</ele>
        <time>2021-11-17T02:14:00.514Z</time>
      </trkpt>
      <trkpt lat="47.428588" lon="7.987191">
        <ele>775.543375</ele>
        <time>2021-11-17T02:14:01.451Z</time>
      </trkpt>
      <trkpt lat="47.428553" lon="7.987337">
        <ele>774.807502</ele>
        <time>2021-11-17T02:14:02.330Z</time>
      </trkpt>
      <trkpt lat="47.428505" lon="7.987540">
        <ele>773.785883</ele>
        <time>2021-11-17T02:14:03.612Z</time>
      </trkpt>
      <trkpt lat="47.428340" lon="7.988229">
        <ele>769.532339</ele>
        <time>2021-11-17T02:14:07.787Z</time>
      </trkpt>
      <trkpt lat="47.428196" lon="7.988995">
        <ele>764.894854</ele>
        <time>2021-11-17T02:14:12.447Z</time>
      </trkpt>
      <trkpt lat="47.428133" lon="7.989996">
        <ele>759.030661</ele>
        <time>2021-11-17T02:14:18.447Z</time>
      </trkpt>
      <trkpt lat="47.428136" lon="7.990193">
        <ele>758.288338</ele>
        <time>2021-11-17T02:14:19.676Z</time>
      </trkpt>
      <trkpt lat="47.428160" lon="7.991096">
        <ele>759.098796</ele>
        <time>2021-11-17T02:14:26.469Z</time>
      </trkpt>
      <trkpt lat="47.428177" lon="7.991445">
        <ele>759.412599</ele>
        <time>2021-11-17T02:14:30.720Z</time>
      </trkpt>
      <trkpt lat="47.428179" lon="7.991656">
        <ele>759.601847</ele>
        <time>2021-11-17T02:14:33.173Z</time>
      </trkpt>
      <trkpt lat="47.428254" lon="7.991766">
        <ele>759.741909</ele>
        <time>2021-11-17T02:14:38.732Z</time>
      </trkpt>
      <trkpt lat="47.428414" lon="7.992310">
        <ele>760.273893</ele>
        <time>2021-11-17T02:14:54.559Z</time>
      </trkpt>
      <trkpt lat="47.428545" lon="7.992620">
        <ele>760.601689</ele>
        <time>2021-11-17T02:15:04.796Z</time>
      </trkpt>
      <trkpt lat="47.428609" lon="7.992725">
        <ele>761.108441</ele>
        <time>2021-11-17T02:15:11.064Z</time>
      </trkpt>
      <trkpt lat="47.428872" lon="7.993171">
        <ele>763.472622</ele>
        <time>2021-11-17T02:15:30.293Z</time>
      </trkpt>
      <trkpt lat="47.428914" lon="7.993346">
        <ele>764.214603</ele>
        <time>2021-11-17T02:15:34.888Z</time>
      </trkpt>
      <trkpt lat="47.428982" lon="7.993609">
        <ele>765.339660</ele>
        <time>2021-11-17T02:15:58.049Z</time>
      </trkpt>
      <trkpt lat="47.429023" lon="7.993750">
        <ele>765.952921</ele>
        <time>2021-11-17T02:16:08.540Z</time>
      </trkpt>
      <trkpt lat="47.429200" lon="7.994283">
        <ele>768.325488</ele>
        <time>2021-11-17T02:16:27.301Z</time>
      </trkpt>
      <trkpt lat="47.429436" lon="7.994888">
        <ele>771.116084</ele>
        <time>2021-11-17T02:16:47.375Z</time>
      </trkpt>
      <trkpt lat="47.430262" lon="7.996571">
        <ele>770.591557</ele>
        <time>2021-11-17T02:17:23.052Z</time>
      </trkpt>
      <trkpt lat="47.430351" lon="7.996950">
        <ele>770.464029</ele>
        <time>2021-11-17T02:17:26.561Z</time>
      </trkpt>
      <trkpt lat="47.430695" lon="7.997762">
        <ele>763.675185</ele>
        <time>2021-11-17T02:17:34.947Z</time>
      </trkpt>
      <trkpt lat="47.430754" lon="7.998487">
        <ele>757.113920</ele>
        <time>2021-11-17T02:17:40.755Z</time>
      </trkpt>
      <trkpt lat="47.430837" lon="7.998796">
        <ele>754.126622</ele>
        <time>2021-11-17T02:17:43.495Z</time>
      </trkpt>
      <trkpt lat="47.430871" lon="7.998792">
        <ele>753.673595</ele>
        <time>2021-11-17T02:17:43.920Z</time>
      </trkpt>
      <trkpt lat="47.431729" lon="7.999779">
        <ele>738.115302</ele>
        <time>2021-11-17T02:17:56.384Z</time>
      </trkpt>
      <trkpt lat="47.432207" lon="7.999836">
        <ele>730.766693</ele>
        <time>2021-11-17T02:18:01.920Z</time>
      </trkpt>
      <trkpt lat="47.432590" lon="8.000023">
        <ele>724.585814</ele>
        <time>2021-11-17T02:18:06.672Z</time>
      </trkpt>
      <trkpt lat="47.432723" lon="7.999986">
        <ele>722.511963</ele>
        <time>2021-11-17T02:18:08.335Z</time>
      </trkpt>
      <trkpt lat="47.432779" lon="7.999924">
        <ele>721.439841</ele>
        <time>2021-11-17T02:18:09.136Z</time>
      </trkpt>
      <trkpt lat="47.432795" lon="7.999877">
        <ele>720.894428</ele>
        <time>2021-11-17T02:18:10.639Z</time>
      </trkpt>
      <trkpt lat="47.432800" lon="7.999710">
        <ele>719.161626</ele>
        <time>2021-11-17T02:18:12.072Z</time>
      </trkpt>
      <trkpt lat="47.432711" lon="7.999579">
        <ele>718.348822</ele>
        <time>2021-11-17T02:18:13.666Z</time>
      </trkpt>
      <trkpt lat="47.432038" lon="7.999152">
        <ele>714.431698</ele>
        <time>2021-11-17T02:18:23.022Z</time>
      </trkpt>
      <trkpt lat="47.431832" lon="7.998870">
        <ele>712.930028</ele>
        <time>2021-11-17T02:18:26.819Z</time>
      </trkpt>
      <trkpt lat="47.431532" lon="7.997555">
        <ele>708.522334</ele>
        <time>2021-11-17T02:18:42.191Z</time>
      </trkpt>
      <trkpt lat="47.431597" lon="7.997001">
        <ele>707.369381</ele>
        <time>2021-11-17T02:18:48.274Z</time>
      </trkpt>
      <trkpt lat="47.431548" lon="7.996186">
        <ele>705.691613</ele>
        <time>2021-11-17T02:18:56.485Z</time>
      </trkpt>
      <trkpt lat="47.431896" lon="7.995243">
        <ele>702.993001</ele>
        <time>2021-11-17T02:19:06.599Z</time>
      </trkpt>
      <trkpt lat="47.431883" lon="7.995109">
        <ele>702.356657</ele>
        <time>2021-11-17T02:19:07.846Z</time>
      </trkpt>
      <trkpt lat="47.431675" lon="7.994712">
        <ele>699.996187</ele>
        <time>2021-11-17T02:19:12.397Z</time>
      </trkpt>
      <trkpt lat="47.431693" lon="7.994331">
        <ele>698.200837</ele>
        <time>2021-11-17T02:19:15.784Z</time>
      </trkpt>
      <trkpt lat="47.431545" lon="7.993723">
        <ele>695.163368</ele>
        <time>2021-11-17T02:19:21.393Z</time>
      </trkpt>
      <trkpt lat="47.431646" lon="7.993435">
        <ele>693.638438</ele>
        <time>2021-11-17T02:19:24.163Z</time>
      </trkpt>
      <trkpt lat="47.431636" lon="7.993008">
        <ele>691.630012</ele>
        <time>2021-11-17T02:19:27.758Z</time>
      </trkpt>
      <trkpt lat="47.431745" lon="7.992462">
        <ele>686.529752</ele>
        <time>2021-11-17T02:19:32.429Z</time>
      </trkpt>
      <trkpt lat="47.431715" lon="7.991907">
        <ele>681.290738</ele>
        <time>2021-11-17T02:19:36.893Z</time>
      </trkpt>
      <trkpt lat="47.431781" lon="7.991624">
        <ele>678.473991</ele>
        <time>2021-11-17T02:19:39.234Z</time>
      </trkpt>
      <trkpt lat="47.431807" lon="7.991195">
        <ele>674.421079</ele>
        <time>2021-11-17T02:19:42.646Z</time>
      </trkpt>
      <trkpt lat="47.431849" lon="7.991042">
        <ele>672.867379</ele>
        <time>2021-11-17T02:19:43.941Z</time>
      </trkpt>
      <trkpt lat="47.432014" lon="7.990930">
        <ele>670.341835</ele>
        <time>2021-11-17T02:19:46.067Z</time>
      </trkpt>
      <trkpt lat="47.432730" lon="7.990940">
        <ele>659.315878</ele>
        <time>2021-11-17T02:19:54.371Z</time>
      </trkpt>
      <trkpt lat="47.432862" lon="7.990958">
        <ele>657.142896</ele>
        <time>2021-11-17T02:19:55.879Z</time>
      </trkpt>
      <trkpt lat="47.433093" lon="7.991063">
        <ele>653.181295</ele>
        <time>2021-11-17T02:19:58.681Z</time>
      </trkpt>
      <trkpt lat="47.433486" lon="7.991450">
        <ele>645.440672</ele>
        <time>2021-11-17T02:20:04.125Z</time>
      </trkpt>
      <trkpt lat="47.433577" lon="7.991627">
        <ele>642.975457</ele>
        <time>2021-11-17T02:20:05.897Z</time>
      </trkpt>
      <trkpt lat="47.433697" lon="7.992106">
        <ele>637.311495</ele>
        <time>2021-11-17T02:20:09.907Z</time>
      </trkpt>
      <trkpt lat="47.433800" lon="7.992349">
        <ele>635.149419</ele>
        <time>2021-11-17T02:20:12.137Z</time>
      </trkpt>
      <trkpt lat="47.433893" lon="7.992538">
        <ele>633.520771</ele>
        <time>2021-11-17T02:20:14.078Z</time>
      </trkpt>
      <trkpt lat="47.434475" lon="7.993337">
        <ele>625.338617</ele>
        <time>2021-11-17T02:20:23.734Z</time>
      </trkpt>
      <trkpt lat="47.434498" lon="7.993384">
        <ele>624.934381</ele>
        <time>2021-11-17T02:20:24.180Z</time>
      </trkpt>
      <trkpt lat="47.434517" lon="7.993423">
        <ele>624.599464</ele>
        <time>2021-11-17T02:20:24.565Z</time>
      </trkpt>
      <trkpt lat="47.434778" lon="7.994164">
        <ele>618.777781</ele>
        <time>2021-11-17T02:20:31.721Z</time>
      </trkpt>
      <trkpt lat="47.435007" lon="7.994534">
        <ele>617.043679</ele>
        <time>2021-11-17T02:20:36.385Z</time>
      </trkpt>
      <trkpt lat="47.435087" lon="7.994626">
        <ele>616.600578</ele>
        <time>2021-11-17T02:20:37.836Z</time>
      </trkpt>
      <trkpt lat="47.435148" lon="7.994665">
        <ele>616.310029</ele>
        <time>2021-11-17T02:20:38.637Z</time>
      </trkpt>
      <trkpt lat="47.435761" lon="7.994738">
        <ele>613.621437</ele>
        <time>2021-11-17T02:20:47.472Z</time>
      </trkpt>
      <trkpt lat="47.436819" lon="7.994505">
        <ele>608.648179</ele>
        <time>2021-11-17T02:21:02.962Z</time>
      </trkpt>
      <trkpt lat="47.437035" lon="7.994598">
        <ele>607.474222</ele>
        <time>2021-11-17T02:21:06.069Z</time>
      </trkpt>
      <trkpt lat="47.437262" lon="7.995105">
        <ele>605.328199</ele>
        <time>2021-11-17T02:21:11.631Z</time>
      </trkpt>
      <trkpt lat="47.437678" lon="7.996368">
        <ele>600.156832</ele>
        <time>2021-11-17T02:21:23.986Z</time>
      </trkpt>
      <trkpt lat="47.438130" lon="7.996983">
        <ele>596.006356</ele>
        <time>2021-11-17T02:21:31.841Z</time>
      </trkpt>
      <trkpt lat="47.438510" lon="7.997500">
        <ele>592.517140</ele>
        <time>2021-11-17T02:21:38.478Z</time>
      </trkpt>
      <trkpt lat="47.439124" lon="7.998093">
        <ele>587.357862</ele>
        <time>2021-11-17T02:21:48.055Z</time>
      </trkpt>
      <trkpt lat="47.439884" lon="7.999206">
        <ele>579.060257</ele>
        <time>2021-11-17T02:22:01.536Z</time>
      </trkpt>
      <trkpt lat="47.440106" lon="7.999618">
        <ele>576.296663</ele>
        <time>2021-11-17T02:22:06.036Z</time>
      </trkpt>
      <trkpt lat="47.440162" lon="7.999686">
        <ele>575.734560</ele>
        <time>2021-11-17T02:22:06.908Z</time>
      </trkpt>
      <trkpt lat="47.440170" lon="7.999793">
        <ele>575.169778</ele>
        <time>2021-11-17T02:22:07.776Z</time>
      </trkpt>
      <trkpt lat="47.440161" lon="8.000045">
        <ele>573.719866</ele>
        <time>2021-11-17T02:22:10.086Z</time>
      </trkpt>
      <trkpt lat="47.440127" lon="8.000115">
        <ele>573.217872</ele>
        <time>2021-11-17T02:22:10.809Z</time>
      </trkpt>
      <trkpt lat="47.440055" lon="8.000261">
        <ele>572.165373</ele>
        <time>2021-11-17T02:22:12.267Z</time>
      </trkpt>
      <trkpt lat="47.439709" lon="8.000501">
        <ele>568.873907</ele>
        <time>2021-11-17T02:22:17.031Z</time>
      </trkpt>
      <trkpt lat="47.439615" lon="8.000630">
        <ele>567.769367</ele>
        <time>2021-11-17T02:22:18.737Z</time>
      </trkpt>
      <trkpt lat="47.439579" lon="8.000910">
        <ele>566.109157</ele>
        <time>2021-11-17T02:22:21.063Z</time>
      </trkpt>
      <trkpt lat="47.439651" lon="8.001095">
        <ele>564.865863</ele>
        <time>2021-11-17T02:22:22.919Z</time>
      </trkpt>
      <trkpt lat="47.439763" lon="8.001184">
        <ele>563.770804</ele>
        <time>2021-11-17T02:22:24.499Z</time>
      </trkpt>
      <trkpt lat="47.439885" lon="8.001187">
        <ele>562.719969</ele>
        <time>2021-11-17T02:22:25.920Z</time>
      </trkpt>
      <trkpt lat="47.440779" lon="8.000622">
        <ele>556.109143</ele>
        <time>2021-11-17T02:22:38.268Z</time>
      </trkpt>
      <trkpt lat="47.440928" lon="8.000707">
        <ele>555.204296</ele>
        <time>2021-11-17T02:22:40.314Z</time>
      </trkpt>
      <trkpt lat="47.440983" lon="8.000989">
        <ele>554.079642</ele>
        <time>2021-11-17T02:22:42.965Z</time>
      </trkpt>
      <trkpt lat="47.440973" lon="8.001046">
        <ele>553.853991</ele>
        <time>2021-11-17T02:22:43.429Z</time>
      </trkpt>
      <trkpt lat="47.440934" lon="8.001116">
        <ele>553.506461</ele>
        <time>2021-11-17T02:22:44.309Z</time>
      </trkpt>
      <trkpt lat="47.440889" lon="8.001173">
        <ele>553.170736</ele>
        <time>2021-11-17T02:22:45.210Z</time>
      </trkpt>
      <trkpt lat="47.440817" lon="8.001236">
        <ele>552.696722</ele>
        <time>2021-11-17T02:22:46.454Z</time>
      </trkpt>
      <trkpt lat="47.440724" lon="8.001286">
        <ele>552.136058</ele>
        <time>2021-11-17T02:22:47.772Z</time>
      </trkpt>
      <trkpt lat="47.440611" lon="8.001421">
        <ele>551.312950</ele>
        <time>2021-11-17T02:22:49.703Z</time>
      </trkpt>
      <trkpt lat="47.440357" lon="8.001986">
        <ele>549.099378</ele>
        <time>2021-11-17T02:22:56.667Z</time>
      </trkpt>
      <trkpt lat="47.440103" lon="8.002791">
        <ele>547.907734</ele>
        <time>2021-11-17T02:23:05.716Z</time>
      </trkpt>
      <trkpt lat="47.440170" lon="8.003186">
        <ele>547.361429</ele>
        <time>2021-11-17T02:23:10.722Z</time>
      </trkpt>
      <trkpt lat="47.440324" lon="8.003509">
        <ele>546.831285</ele>
        <time>2021-11-17T02:23:14.910Z</time>
      </trkpt>
      <trkpt lat="47.440347" lon="8.003607">
        <ele>546.692128</ele>
        <time>2021-11-17T02:23:18.021Z</time>
      </trkpt>
      <trkpt lat="47.440672" lon="8.003743">
        <ele>546.022194</ele>
        <time>2021-11-17T02:23:21.924Z</time>
      </trkpt>
      <trkpt lat="47.440795" lon="8.003822">
        <ele>545.756209</ele>
        <time>2021-11-17T02:23:23.433Z</time>
      </trkpt>
      <trkpt lat="47.441014" lon="8.004119">
        <ele>544.576264</ele>
        <time>2021-11-17T02:23:26.576Z</time>
      </trkpt>
      <trkpt lat="47.442153" lon="8.004775">
        <ele>539.653717</ele>
        <time>2021-11-17T02:23:38.454Z</time>
      </trkpt>
      <trkpt lat="47.442229" lon="8.004822">
        <ele>539.321967</ele>
        <time>2021-11-17T02:23:39.192Z</time>
      </trkpt>
      <trkpt lat="47.442402" lon="8.004930">
        <ele>538.565731</ele>
        <time>2021-11-17T02:23:40.930Z</time>
      </trkpt>
      <trkpt lat="47.443232" lon="8.005444">
        <ele>532.803972</ele>
        <time>2021-11-17T02:23:49.190Z</time>
      </trkpt>
      <trkpt lat="47.443294" lon="8.005455">
        <ele>532.401258</ele>
        <time>2021-11-17T02:23:49.734Z</time>
      </trkpt>
      <trkpt lat="47.443419" lon="8.005513">
        <ele>531.556356</ele>
        <time>2021-11-17T02:23:50.916Z</time>
      </trkpt>
      <trkpt lat="47.443766" lon="8.005803">
        <ele>528.985776</ele>
        <time>2021-11-17T02:23:54.494Z</time>
      </trkpt>
      <trkpt lat="47.444148" lon="8.005966">
        <ele>526.331528</ele>
        <time>2021-11-17T02:23:58.100Z</time>
      </trkpt>
      <trkpt lat="47.444306" lon="8.005966">
        <ele>525.119293</ele>
        <time>2021-11-17T02:23:59.498Z</time>
      </trkpt>
      <trkpt lat="47.444551" lon="8.005966">
        <ele>523.239562</ele>
        <time>2021-11-17T02:24:01.701Z</time>
      </trkpt>
      <trkpt lat="47.445643" lon="8.006150">
        <ele>514.807109</ele>
        <time>2021-11-17T02:24:11.498Z</time>
      </trkpt>
      <trkpt lat="47.446457" lon="8.006422">
        <ele>507.003800</ele>
        <time>2021-11-17T02:24:18.747Z</time>
      </trkpt>
      <trkpt lat="47.446848" lon="8.006659">
        <ele>502.794055</ele>
        <time>2021-11-17T02:24:22.385Z</time>
      </trkpt>
      <trkpt lat="47.447095" lon="8.006732">
        <ele>500.284745</ele>
        <time>2021-11-17T02:24:24.548Z</time>
      </trkpt>
      <trkpt lat="47.447140" lon="8.006763">
        <ele>499.790188</ele>
        <time>2021-11-17T02:24:24.959Z</time>
      </trkpt>
      <trkpt lat="47.447193" lon="8.006801">
        <ele>499.203403</ele>
        <time>2021-11-17T02:24:25.473Z</time>
      </trkpt>
      <trkpt lat="47.447295" lon="8.006889">
        <ele>498.026960</ele>
        <time>2021-11-17T02:24:26.464Z</time>
      </trkpt>
      <trkpt lat="47.447384" lon="8.006945">
        <ele>497.063401</ele>
        <time>2021-11-17T02:24:27.330Z</time>
      </trkpt>
      <trkpt lat="47.447518" lon="8.006960">
        <ele>495.724658</ele>
        <time>2021-11-17T02:24:28.943Z</time>
      </trkpt>
      <trkpt lat="47.447595" lon="8.006957">
        <ele>494.968220</ele>
        <time>2021-11-17T02:24:29.874Z</time>
      </trkpt>
      <trkpt lat="47.447673" lon="8.006915">
        <ele>494.181997</ele>
        <time>2021-11-17T02:24:30.849Z</time>
      </trkpt>
      <trkpt lat="47.447905" lon="8.006767">
        <ele>491.788879</ele>
        <time>2021-11-17T02:24:33.984Z</time>
      </trkpt>
      <trkpt lat="47.447934" lon="8.006735">
        <ele>491.446164</ele>
        <time>2021-11-17T02:24:34.391Z</time>
      </trkpt>
      <trkpt lat="47.447950" lon="8.006701">
        <ele>491.180852</ele>
        <time>2021-11-17T02:24:34.721Z</time>
      </trkpt>
      <trkpt lat="47.448016" lon="8.006516">
        <ele>489.841130</ele>
        <time>2021-11-17T02:24:36.540Z</time>
      </trkpt>
      <trkpt lat="47.448123" lon="8.006272">
        <ele>487.978462</ele>
        <time>2021-11-17T02:24:38.874Z</time>
      </trkpt>
      <trkpt lat="47.448259" lon="8.006303">
        <ele>486.675142</ele>
        <time>2021-11-17T02:24:40.581Z</time>
      </trkpt>
      <trkpt lat="47.448363" lon="8.006302">
        <ele>485.690098</ele>
        <time>2021-11-17T02:24:41.822Z</time>
      </trkpt>
      <trkpt lat="47.448721" lon="8.006306">
        <ele>482.299250</ele>
        <time>2021-11-17T02:24:46.232Z</time>
      </trkpt>
      <trkpt lat="47.448780" lon="8.006310">
        <ele>481.739852</ele>
        <time>2021-11-17T02:24:46.983Z</time>
      </trkpt>
      <trkpt lat="47.448906" lon="8.006317">
        <ele>480.545617</ele>
        <time>2021-11-17T02:24:48.479Z</time>
      </trkpt>
      <trkpt lat="47.449537" lon="8.006184">
        <ele>476.632141</ele>
        <time>2021-11-17T02:24:56.846Z</time>
      </trkpt>
      <trkpt lat="47.449781" lon="8.006118">
        <ele>475.655370</ele>
        <time>2021-11-17T02:25:00.197Z</time>
      </trkpt>
      <trkpt lat="47.449830" lon="8.006105">
        <ele>475.459336</ele>
        <time>2021-11-17T02:25:00.889Z</time>
      </trkpt>
      <trkpt lat="47.450083" lon="8.005922">
        <ele>474.350271</ele>
        <time>2021-11-17T02:25:04.862Z</time>
      </trkpt>
      <trkpt lat="47.450192" lon="8.005840">
        <ele>473.868699</ele>
        <time>2021-11-17T02:25:06.669Z</time>
      </trkpt>
      <trkpt lat="47.450283" lon="8.005770">
        <ele>473.464776</ele>
        <time>2021-11-17T02:25:08.241Z</time>
      </trkpt>
      <trkpt lat="47.450309" lon="8.005751">
        <ele>473.350573</ele>
        <time>2021-11-17T02:25:08.622Z</time>
      </trkpt>
      <trkpt lat="47.450828" lon="8.005583">
        <ele>471.258453</ele>
        <time>2021-11-17T02:25:17.127Z</time>
      </trkpt>
      <trkpt lat="47.451038" lon="8.005524">
        <ele>470.838448</ele>
        <time>2021-11-17T02:25:20.580Z</time>
      </trkpt>
      <trkpt lat="47.451389" lon="8.005475">
        <ele>470.359669</ele>
        <time>2021-11-17T02:25:26.878Z</time>
      </trkpt>
      <trkpt lat="47.451483" lon="8.005518">
        <ele>470.226049</ele>
        <time>2021-11-17T02:25:28.997Z</time>
      </trkpt>
      <trkpt lat="47.451552" lon="8.005574">
        <ele>470.119163</ele>
        <time>2021-11-17T02:25:30.359Z</time>
      </trkpt>
      <trkpt lat="47.451617" lon="8.005651">
        <ele>470.006064</ele>
        <time>2021-11-17T02:25:31.926Z</time>
      </trkpt>
      <trkpt lat="47.451680" lon="8.005745">
        <ele>469.884529</ele>
        <time>2021-11-17T02:25:33.246Z</time>
      </trkpt>
      <trkpt lat="47.451777" lon="8.005920">
        <ele>469.676738</ele>
        <time>2021-11-17T02:25:35.846Z</time>
      </trkpt>
      <trkpt lat="47.451940" lon="8.005767">
        <ele>469.414559</ele>
        <time>2021-11-17T02:25:38.135Z</time>
      </trkpt>
      <trkpt lat="47.452304" lon="8.005472">
        <ele>468.850883</ele>
        <time>2021-11-17T02:25:42.932Z</time>
      </trkpt>
      <trkpt lat="47.452429" lon="8.005350">
        <ele>468.647497</ele>
        <time>2021-11-17T02:25:44.645Z</time>
      </trkpt>
      <trkpt lat="47.452544" lon="8.005204">
        <ele>468.231680</ele>
        <time>2021-11-17T02:25:46.481Z</time>
      </trkpt>
      <trkpt lat="47.452632" lon="8.005093">
        <ele>467.887426</ele>
        <time>2021-11-17T02:25:47.780Z</time>
      </trkpt>
      <trkpt lat="47.452707" lon="8.004978">
        <ele>467.565867</ele>
        <time>2021-11-17T02:25:49.017Z</time>
      </trkpt>
      <trkpt lat="47.452809" lon="8.004791">
        <ele>467.082324</ele>
        <time>2021-11-17T02:25:50.895Z</time>
      </trkpt>
      <trkpt lat="47.452892" lon="8.004632">
        <ele>466.678056</ele>
        <time>2021-11-17T02:25:52.392Z</time>
      </trkpt>
      <trkpt lat="47.453556" lon="8.003416">
        <ele>463.532392</ele>
        <time>2021-11-17T02:26:02.834Z</time>
      </trkpt>
      <trkpt lat="47.453815" lon="8.002812">
        <ele>461.954812</ele>
        <time>2021-11-17T02:26:07.507Z</time>
      </trkpt>
      <trkpt lat="47.453903" lon="8.002487">
        <ele>461.167139</ele>
        <time>2021-11-17T02:26:09.848Z</time>
      </trkpt>
      <trkpt lat="47.453932" lon="8.002372">
        <ele>460.890990</ele>
        <time>2021-11-17T02:26:10.655Z</time>
      </trkpt>
      <trkpt lat="47.453983" lon="8.002195">
        <ele>460.458106</ele>
        <time>2021-11-17T02:26:11.987Z</time>
      </trkpt>
      <trkpt lat="47.454027" lon="8.002090">
        <ele>460.180177</ele>
        <time>2021-11-17T02:26:12.825Z</time>
      </trkpt>
      <trkpt lat="47.454148" lon="8.001857">
        <ele>459.519181</ele>
        <time>2021-11-17T02:26:14.820Z</time>
      </trkpt>
      <trkpt lat="47.454570" lon="8.001381">
        <ele>457.753224</ele>
        <time>2021-11-17T02:26:20.413Z</time>
      </trkpt>
      <trkpt lat="47.455049" lon="8.001106">
        <ele>456.297392</ele>
        <time>2021-11-17T02:26:25.687Z</time>
      </trkpt>
      <trkpt lat="47.455740" lon="8.000709">
        <ele>454.337342</ele>
        <time>2021-11-17T02:26:33.493Z</time>
      </trkpt>
      <trkpt lat="47.456267" lon="8.000301">
        <ele>452.764564</ele>
        <time>2021-11-17T02:26:39.914Z</time>
      </trkpt>
      <trkpt lat="47.456363" lon="8.000219">
        <ele>452.458902</ele>
        <time>2021-11-17T02:26:40.913Z</time>
      </trkpt>
      <trkpt lat="47.457107" lon="7.999528">
        <ele>449.581429</ele>
        <time>2021-11-17T02:26:50.311Z</time>
      </trkpt>
      <trkpt lat="47.457133" lon="7.999505">
        <ele>449.482201</ele>
        <time>2021-11-17T02:26:50.596Z</time>
      </trkpt>
      <trkpt lat="47.457243" lon="7.999411">
        <ele>449.066103</ele>
        <time>2021-11-17T02:26:51.750Z</time>
      </trkpt>
      <trkpt lat="47.458410" lon="7.998658">
        <ele>445.201454</ele>
        <time>2021-11-17T02:27:04.464Z</time>
      </trkpt>
      <trkpt lat="47.458509" lon="7.998633">
        <ele>444.930370</ele>
        <time>2021-11-17T02:27:05.410Z</time>
      </trkpt>
      <trkpt lat="47.458509" lon="7.998633">
        <ele>444.930370</ele>
        <time>2021-11-17T02:27:05.415Z</time>
      </trkpt>
      <trkpt lat="47.458630" lon="7.998609">
        <ele>444.600848</ele>
        <time>2021-11-17T02:27:06.711Z</time>
      </trkpt>
      <trkpt lat="47.459032" lon="7.998632">
        <ele>443.514975</ele>
        <time>2021-11-17T02:27:11.080Z</time>
      </trkpt>
      <trkpt lat="47.459150" lon="7.998657">
        <ele>443.193224</ele>
        <time>2021-11-17T02:27:12.386Z</time>
      </trkpt>
      <trkpt lat="47.459205" lon="7.998672">
        <ele>443.042267</ele>
        <time>2021-11-17T02:27:12.952Z</time>
      </trkpt>
      <trkpt lat="47.459283" lon="7.998698">
        <ele>442.826452</ele>
        <time>2021-11-17T02:27:13.775Z</time>
      </trkpt>
      <trkpt lat="47.459773" lon="7.998935">
        <ele>441.574453</ele>
        <time>2021-11-17T02:27:19.561Z</time>
      </trkpt>
      <trkpt lat="47.459866" lon="7.998934">
        <ele>441.425491</ele>
        <time>2021-11-17T02:27:20.575Z</time>
      </trkpt>
      <trkpt lat="47.459934" lon="7.998910">
        <ele>441.313518</ele>
        <time>2021-11-17T02:27:21.272Z</time>
      </trkpt>
      <trkpt lat="47.460010" lon="7.998866">
        <ele>441.182797</ele>
        <time>2021-11-17T02:27:22.262Z</time>
      </trkpt>
      <trkpt lat="47.460218" lon="7.998745">
        <ele>440.824803</ele>
        <time>2021-11-17T02:27:24.832Z</time>
      </trkpt>
      <trkpt lat="47.460488" lon="7.998555">
        <ele>440.345895</ele>
        <time>2021-11-17T02:27:28.273Z</time>
      </trkpt>
      <trkpt lat="47.460660" lon="7.998379">
        <ele>440.010903</ele>
        <time>2021-11-17T02:27:30.600Z</time>
      </trkpt>
      <trkpt lat="47.460836" lon="7.998161">
        <ele>439.643213</ele>
        <time>2021-11-17T02:27:33.281Z</time>
      </trkpt>
      <trkpt lat="47.460857" lon="7.998139">
        <ele>439.601995</ele>
        <time>2021-11-17T02:27:33.535Z</time>
      </trkpt>
      <trkpt lat="47.460924" lon="7.998094">
        <ele>439.484135</ele>
        <time>2021-11-17T02:27:34.442Z</time>
      </trkpt>
      <trkpt lat="47.460942" lon="7.998082">
        <ele>439.452512</ele>
        <time>2021-11-17T02:27:34.687Z</time>
      </trkpt>
      <trkpt lat="47.460985" lon="7.998062">
        <ele>439.380314</ele>
        <time>2021-11-17T02:27:35.244Z</time>
      </trkpt>
      <trkpt lat="47.461062" lon="7.998039">
        <ele>439.254494</ele>
        <time>2021-11-17T02:27:36.094Z</time>
      </trkpt>
      <trkpt lat="47.461149" lon="7.998038">
        <ele>439.115143</ele>
        <time>2021-11-17T02:27:37.175Z</time>
      </trkpt>
      <trkpt lat="47.461284" lon="7.998059">
        <ele>438.897722</ele>
        <time>2021-11-17T02:27:38.666Z</time>
      </trkpt>
      <trkpt lat="47.461438" lon="7.998032">
        <ele>438.792318</ele>
        <time>2021-11-17T02:27:40.528Z</time>
      </trkpt>
      <trkpt lat="47.461502" lon="7.997997">
        <ele>438.746076</ele>
        <time>2021-11-17T02:27:41.384Z</time>
      </trkpt>
      <trkpt lat="47.461552" lon="7.997973">
        <ele>438.710451</ele>
        <time>2021-11-17T02:27:41.924Z</time>
      </trkpt>
      <trkpt lat="47.461927" lon="7.997527">
        <ele>438.384347</ele>
        <time>2021-11-17T02:27:48.232Z</time>
      </trkpt>
      <trkpt lat="47.462299" lon="7.997298">
        <ele>438.111281</ele>
        <time>2021-11-17T02:27:53.527Z</time>
      </trkpt>
      <trkpt lat="47.462350" lon="7.997293">
        <ele>438.076643</ele>
        <time>2021-11-17T02:27:54.124Z</time>
      </trkpt>
      <trkpt lat="47.462598" lon="7.997285">
        <ele>437.908533</ele>
        <time>2021-11-17T02:27:57.363Z</time>
      </trkpt>
      <trkpt lat="47.462705" lon="7.997285">
        <ele>437.836020</ele>
        <time>2021-11-17T02:27:58.764Z</time>
      </trkpt>
      <trkpt lat="47.463019" lon="7.997210">
        <ele>437.689091</ele>
        <time>2021-11-17T02:28:03.206Z</time>
      </trkpt>
      <trkpt lat="47.463107" lon="7.997172">
        <ele>437.700745</ele>
        <time>2021-11-17T02:28:04.513Z</time>
      </trkpt>
      <trkpt lat="47.463326" lon="7.997031">
        <ele>437.731109</ele>
        <time>2021-11-17T02:28:08.506Z</time>
      </trkpt>
      <trkpt lat="47.463691" lon="7.996686">
        <ele>437.786176</ele>
        <time>2021-11-17T02:28:15.386Z</time>
      </trkpt>
      <trkpt lat="47.464131" lon="7.996368">
        <ele>437.848432</ele>
        <time>2021-11-17T02:28:23.857Z</time>
      </trkpt>
      <trkpt lat="47.464249" lon="7.996297">
        <ele>437.864627</ele>
        <time>2021-11-17T02:28:26.044Z</time>
      </trkpt>
      <trkpt lat="47.465105" lon="7.995610">
        <ele>437.422619</ele>
        <time>2021-11-17T02:28:39.395Z</time>
      </trkpt>
      <trkpt lat="47.465119" lon="7.995595">
        <ele>437.409564</ele>
        <time>2021-11-17T02:28:39.882Z</time>
      </trkpt>
      <trkpt lat="47.465230" lon="7.995479">
        <ele>437.306928</ele>
        <time>2021-11-17T02:28:41.487Z</time>
      </trkpt>
      <trkpt lat="47.465613" lon="7.995104">
        <ele>436.960070</ele>
        <time>2021-11-17T02:28:47.200Z</time>
      </trkpt>
      <trkpt lat="47.465772" lon="7.994973">
        <ele>436.822626</ele>
        <time>2021-11-17T02:28:49.430Z</time>
      </trkpt>
      <trkpt lat="47.465905" lon="7.994879">
        <ele>436.711310</ele>
        <time>2021-11-17T02:28:51.099Z</time>
      </trkpt>
      <trkpt lat="47.466146" lon="7.994726">
        <ele>436.490306</ele>
        <time>2021-11-17T02:28:54.110Z</time>
      </trkpt>
      <trkpt lat="47.467154" lon="7.994150">
        <ele>435.144294</ele>
        <time>2021-11-17T02:29:06.757Z</time>
      </trkpt>
      <trkpt lat="47.467579" lon="7.993896">
        <ele>434.573332</ele>
        <time>2021-11-17T02:29:12.163Z</time>
      </trkpt>
      <trkpt lat="47.467721" lon="7.993817">
        <ele>434.384359</ele>
        <time>2021-11-17T02:29:14.139Z</time>
      </trkpt>
      <trkpt lat="47.468089" lon="7.993593">
        <ele>434.054410</ele>
        <time>2021-11-17T02:29:19.166Z</time>
      </trkpt>
      <trkpt lat="47.468375" lon="7.993424">
        <ele>433.822350</ele>
        <time>2021-11-17T02:29:22.979Z</time>
      </trkpt>
      <trkpt lat="47.469362" lon="7.992773">
        <ele>433.008064</ele>
        <time>2021-11-17T02:29:36.829Z</time>
      </trkpt>
      <trkpt lat="47.469747" lon="7.992506">
        <ele>432.808916</ele>
        <time>2021-11-17T02:29:42.285Z</time>
      </trkpt>
      <trkpt lat="47.470033" lon="7.992305">
        <ele>432.679406</ele>
        <time>2021-11-17T02:29:46.495Z</time>
      </trkpt>
      <trkpt lat="47.470749" lon="7.991887">
        <ele>432.364568</ele>
        <time>2021-11-17T02:29:57.677Z</time>
      </trkpt>
      <trkpt lat="47.471617" lon="7.991535">
        <ele>430.794985</ele>
        <time>2021-11-17T02:30:09.574Z</time>
      </trkpt>
      <trkpt lat="47.471790" lon="7.991484">
        <ele>430.330150</ele>
        <time>2021-11-17T02:30:11.632Z</time>
      </trkpt>
      <trkpt lat="47.472461" lon="7.991354">
        <ele>428.546899</ele>
        <time>2021-11-17T02:30:18.580Z</time>
      </trkpt>
      <trkpt lat="47.472796" lon="7.991311">
        <ele>427.660824</ele>
        <time>2021-11-17T02:30:21.815Z</time>
      </trkpt>
      <trkpt lat="47.473097" lon="7.991272">
        <ele>425.872441</ele>
        <time>2021-11-17T02:30:24.616Z</time>
      </trkpt>
      <trkpt lat="47.473566" lon="7.991189">
        <ele>422.613073</ele>
        <time>2021-11-17T02:30:28.919Z</time>
      </trkpt>
      <trkpt lat="47.474869" lon="7.990750">
        <ele>413.648226</ele>
        <time>2021-11-17T02:30:40.737Z</time>
      </trkpt>
      <trkpt lat="47.475384" lon="7.990744">
        <ele>410.638945</ele>
        <time>2021-11-17T02:30:45.378Z</time>
      </trkpt>
      <trkpt lat="47.475752" lon="7.990844">
        <ele>408.452722</ele>
        <time>2021-11-17T02:30:48.828Z</time>
      </trkpt>
      <trkpt lat="47.476495" lon="7.991119">
        <ele>404.307866</ele>
        <time>2021-11-17T02:30:56.151Z</time>
      </trkpt>
      <trkpt lat="47.476858" lon="7.991285">
        <ele>403.354307</ele>
        <time>2021-11-17T02:30:59.999Z</time>
      </trkpt>
      <trkpt lat="47.477212" lon="7.991382">
        <ele>402.450752</ele>
        <time>2021-11-17T02:31:03.807Z</time>
      </trkpt>
      <trkpt lat="47.477593" lon="7.991455">
        <ele>401.486558</ele>
        <time>2021-11-17T02:31:08.045Z</time>
      </trkpt>
      <trkpt lat="47.478975" lon="7.991551">
        <ele>398.833888</ele>
        <time>2021-11-17T02:31:23.822Z</time>
      </trkpt>
      <trkpt lat="47.479142" lon="7.991563">
        <ele>398.583840</ele>
        <time>2021-11-17T02:31:25.775Z</time>
      </trkpt>
      <trkpt lat="47.479179" lon="7.991567">
        <ele>398.528358</ele>
        <time>2021-11-17T02:31:26.225Z</time>
      </trkpt>
      <trkpt lat="47.479254" lon="7.991575">
        <ele>398.415902</ele>
        <time>2021-11-17T02:31:27.075Z</time>
      </trkpt>
      <trkpt lat="47.480402" lon="7.991988">
        <ele>396.634725</ele>
        <time>2021-11-17T02:31:40.824Z</time>
      </trkpt>
      <trkpt lat="47.480657" lon="7.991988">
        <ele>396.245618</ele>
        <time>2021-11-17T02:31:43.662Z</time>
      </trkpt>
      <trkpt lat="47.481096" lon="7.991850">
        <ele>395.560795</ele>
        <time>2021-11-17T02:31:48.857Z</time>
      </trkpt>
      <trkpt lat="47.481496" lon="7.991617">
        <ele>394.904839</ele>
        <time>2021-11-17T02:31:53.823Z</time>
      </trkpt>
      <trkpt lat="47.481732" lon="7.991480">
        <ele>394.517555</ele>
        <time>2021-11-17T02:31:56.672Z</time>
      </trkpt>
      <trkpt lat="47.482259" lon="7.991194">
        <ele>393.656762</ele>
        <time>2021-11-17T02:32:03.040Z</time>
      </trkpt>
      <trkpt lat="47.482872" lon="7.991012">
        <ele>392.697992</ele>
        <time>2021-11-17T02:32:10.213Z</time>
      </trkpt>
      <trkpt lat="47.483009" lon="7.990995">
        <ele>392.487165</ele>
        <time>2021-11-17T02:32:11.736Z</time>
      </trkpt>
      <trkpt lat="47.483009" lon="7.990995">
        <ele>392.487165</ele>
        <time>2021-11-17T02:32:11.738Z</time>
      </trkpt>
      <trkpt lat="47.483009" lon="7.990995">
        <ele>392.487165</ele>
        <time>2021-11-17T02:32:11.765Z</time>
      </trkpt>
      <trkpt lat="47.483302" lon="7.991001">
        <ele>392.037808</ele>
        <time>2021-11-17T02:32:15.184Z</time>
      </trkpt>
      <trkpt lat="47.483794" lon="7.991174">
        <ele>391.354964</ele>
        <time>2021-11-17T02:32:21.116Z</time>
      </trkpt>
      <trkpt lat="47.484004" lon="7.991285">
        <ele>391.066932</ele>
        <time>2021-11-17T02:32:23.807Z</time>
      </trkpt>
      <trkpt lat="47.484196" lon="7.991380">
        <ele>390.805438</ele>
        <time>2021-11-17T02:32:26.132Z</time>
      </trkpt>
      <trkpt lat="47.484597" lon="7.991511">
        <ele>390.275015</ele>
        <time>2021-11-17T02:32:30.951Z</time>
      </trkpt>
      <trkpt lat="47.485528" lon="7.991512">
        <ele>389.185491</ele>
        <time>2021-11-17T02:32:42.113Z</time>
      </trkpt>
      <trkpt lat="47.485635" lon="7.991515">
        <ele>389.081661</ele>
        <time>2021-11-17T02:32:43.329Z</time>
      </trkpt>
      <trkpt lat="47.485898" lon="7.991482">
        <ele>388.825584</ele>
        <time>2021-11-17T02:32:46.653Z</time>
      </trkpt>
      <trkpt lat="47.485991" lon="7.991440">
        <ele>388.731247</ele>
        <time>2021-11-17T02:32:47.807Z</time>
      </trkpt>
      <trkpt lat="47.486063" lon="7.991399">
        <ele>388.656400</ele>
        <time>2021-11-17T02:32:48.764Z</time>
      </trkpt>
      <trkpt lat="47.486129" lon="7.991440">
        <ele>388.586954</ele>
        <time>2021-11-17T02:32:50.038Z</time>
      </trkpt>
      <trkpt lat="47.486260" lon="7.991591">
        <ele>388.425850</ele>
        <time>2021-11-17T02:32:53.016Z</time>
      </trkpt>
      <trkpt lat="47.486334" lon="7.991668">
        <ele>388.338084</ele>
        <time>2021-11-17T02:32:54.551Z</time>
      </trkpt>
      <trkpt lat="47.486383" lon="7.991737">
        <ele>388.272460</ele>
        <time>2021-11-17T02:32:55.764Z</time>
      </trkpt>
      <trkpt lat="47.486464" lon="7.991862">
        <ele>388.158917</ele>
        <time>2021-11-17T02:32:57.916Z</time>
      </trkpt>
      <trkpt lat="47.487213" lon="7.993014">
        <ele>387.002044</ele>
        <time>2021-11-17T02:33:16.893Z</time>
      </trkpt>
      <trkpt lat="47.487633" lon="7.993524">
        <ele>386.389446</ele>
        <time>2021-11-17T02:33:26.237Z</time>
      </trkpt>
      <trkpt lat="47.488246" lon="7.994102">
        <ele>385.470981</ele>
        <time>2021-11-17T02:33:38.297Z</time>
      </trkpt>
      <trkpt lat="47.488959" lon="7.994757">
        <ele>384.014960</ele>
        <time>2021-11-17T02:33:51.836Z</time>
      </trkpt>
      <trkpt lat="47.489284" lon="7.995053">
        <ele>383.352857</ele>
        <time>2021-11-17T02:33:57.960Z</time>
      </trkpt>
      <trkpt lat="47.490780" lon="7.996642">
        <ele>379.874351</ele>
        <time>2021-11-17T02:34:27.279Z</time>
      </trkpt>
      <trkpt lat="47.491680" lon="7.997343">
        <ele>377.745151</ele>
        <time>2021-11-17T02:34:43.089Z</time>
      </trkpt>
      <trkpt lat="47.491748" lon="7.997367">
        <ele>377.592354</ele>
        <time>2021-11-17T02:34:44.052Z</time>
      </trkpt>
      <trkpt lat="47.491854" lon="7.997405">
        <ele>377.353967</ele>
        <time>2021-11-17T02:34:45.778Z</time>
      </trkpt>
      <trkpt lat="47.491886" lon="7.997365">
        <ele>377.262414</ele>
        <time>2021-11-17T02:34:46.408Z</time>
      </trkpt>
      <trkpt lat="47.492317" lon="7.997637">
        <ele>376.238292</ele>
        <time>2021-11-17T02:34:51.483Z</time>
      </trkpt>
      <trkpt lat="47.492477" lon="7.997747">
        <ele>375.852685</ele>
        <time>2021-11-17T02:34:53.360Z</time>
      </trkpt>
      <trkpt lat="47.492617" lon="7.997908">
        <ele>375.465162</ele>
        <time>2021-11-17T02:34:55.319Z</time>
      </trkpt>
      <trkpt lat="47.492722" lon="7.998050">
        <ele>375.189235</ele>
        <time>2021-11-17T02:34:56.843Z</time>
      </trkpt>
      <trkpt lat="47.492747" lon="7.998084">
        <ele>375.152669</ele>
        <time>2021-11-17T02:34:57.237Z</time>
      </trkpt>
      <trkpt lat="47.492877" lon="7.998257">
        <ele>374.964385</ele>
        <time>2021-11-17T02:34:59.159Z</time>
      </trkpt>
      <trkpt lat="47.493144" lon="7.998645">
        <ele>374.561389</ele>
        <time>2021-11-17T02:35:03.289Z</time>
      </trkpt>
      <trkpt lat="47.493296" lon="7.998833">
        <ele>374.348049</ele>
        <time>2021-11-17T02:35:05.798Z</time>
      </trkpt>
      <trkpt lat="47.493358" lon="7.998911">
        <ele>374.260411</ele>
        <time>2021-11-17T02:35:06.729Z</time>
      </trkpt>
      <trkpt lat="47.493433" lon="7.998996">
        <ele>374.158675</ele>
        <time>2021-11-17T02:35:07.932Z</time>
      </trkpt>
      <trkpt lat="47.493502" lon="7.999071">
        <ele>374.066475</ele>
        <time>2021-11-17T02:35:09.073Z</time>
      </trkpt>
      <trkpt lat="47.493603" lon="7.999152">
        <ele>373.942757</ele>
        <time>2021-11-17T02:35:10.512Z</time>
      </trkpt>
      <trkpt lat="47.493742" lon="7.999216">
        <ele>373.785980</ele>
        <time>2021-11-17T02:35:12.335Z</time>
      </trkpt>
      <trkpt lat="47.493937" lon="7.999285">
        <ele>373.570049</ele>
        <time>2021-11-17T02:35:15.028Z</time>
      </trkpt>
      <trkpt lat="47.493961" lon="7.999292">
        <ele>373.543705</ele>
        <time>2021-11-17T02:35:15.301Z</time>
      </trkpt>
      <trkpt lat="47.494272" lon="7.999381">
        <ele>373.257108</ele>
        <time>2021-11-17T02:35:19.803Z</time>
      </trkpt>
      <trkpt lat="47.494489" lon="7.999417">
        <ele>373.175516</ele>
        <time>2021-11-17T02:35:23.074Z</time>
      </trkpt>
      <trkpt lat="47.494643" lon="7.999430">
        <ele>373.117878</ele>
        <time>2021-11-17T02:35:25.497Z</time>
      </trkpt>
      <trkpt lat="47.494812" lon="7.999457">
        <ele>373.054362</ele>
        <time>2021-11-17T02:35:27.909Z</time>
      </trkpt>
      <trkpt lat="47.495197" lon="7.999589">
        <ele>372.906692</ele>
        <time>2021-11-17T02:35:33.467Z</time>
      </trkpt>
      <trkpt lat="47.495430" lon="7.999752">
        <ele>372.810393</ele>
        <time>2021-11-17T02:35:36.977Z</time>
      </trkpt>
      <trkpt lat="47.495718" lon="8.000005">
        <ele>372.685250</ele>
        <time>2021-11-17T02:35:41.487Z</time>
      </trkpt>
      <trkpt lat="47.496011" lon="8.000286">
        <ele>372.399570</ele>
        <time>2021-11-17T02:35:45.945Z</time>
      </trkpt>
      <trkpt lat="47.496234" lon="8.000584">
        <ele>371.993001</ele>
        <time>2021-11-17T02:35:49.596Z</time>
      </trkpt>
      <trkpt lat="47.496272" lon="8.000651">
        <ele>371.913022</ele>
        <time>2021-11-17T02:35:50.482Z</time>
      </trkpt>
      <trkpt lat="47.496280" lon="8.000664">
        <ele>371.896945</ele>
        <time>2021-11-17T02:35:50.620Z</time>
      </trkpt>
      <trkpt lat="47.496429" lon="8.000925">
        <ele>371.584537</ele>
        <time>2021-11-17T02:35:53.267Z</time>
      </trkpt>
      <trkpt lat="47.496517" lon="8.001077">
        <ele>371.401524</ele>
        <time>2021-11-17T02:35:55.018Z</time>
      </trkpt>
      <trkpt lat="47.496533" lon="8.001104">
        <ele>371.368689</ele>
        <time>2021-11-17T02:35:55.252Z</time>
      </trkpt>
      <trkpt lat="47.496535" lon="8.001108">
        <ele>371.364139</ele>
        <time>2021-11-17T02:35:55.291Z</time>
      </trkpt>
      <trkpt lat="47.496585" lon="8.001187">
        <ele>371.265169</ele>
        <time>2021-11-17T02:35:56.122Z</time>
      </trkpt>
      <trkpt lat="47.496820" lon="8.001547">
        <ele>370.807499</ele>
        <time>2021-11-17T02:36:00.001Z</time>
      </trkpt>
      <trkpt lat="47.496861" lon="8.001608">
        <ele>370.728831</ele>
        <time>2021-11-17T02:36:00.641Z</time>
      </trkpt>
      <trkpt lat="47.496908" lon="8.001680">
        <ele>370.637297</ele>
        <time>2021-11-17T02:36:01.397Z</time>
      </trkpt>
      <trkpt lat="47.496932" lon="8.001715">
        <ele>370.591703</ele>
        <time>2021-11-17T02:36:01.762Z</time>
      </trkpt>
      <trkpt lat="47.497207" lon="8.002132">
        <ele>370.013815</ele>
        <time>2021-11-17T02:36:06.067Z</time>
      </trkpt>
      <trkpt lat="47.497264" lon="8.002219">
        <ele>369.861731</ele>
        <time>2021-11-17T02:36:07.026Z</time>
      </trkpt>
      <trkpt lat="47.497307" lon="8.002279">
        <ele>369.751965</ele>
        <time>2021-11-17T02:36:07.639Z</time>
      </trkpt>
      <trkpt lat="47.497390" lon="8.002409">
        <ele>369.527503</ele>
        <time>2021-11-17T02:36:09.017Z</time>
      </trkpt>
      <trkpt lat="47.497540" lon="8.002634">
        <ele>369.130825</ele>
        <time>2021-11-17T02:36:11.390Z</time>
      </trkpt>
      <trkpt lat="47.497607" lon="8.002710">
        <ele>368.974032</ele>
        <time>2021-11-17T02:36:12.339Z</time>
      </trkpt>
      <trkpt lat="47.497951" lon="8.003094">
        <ele>368.173727</ele>
        <time>2021-11-17T02:36:17.169Z</time>
      </trkpt>
      <trkpt lat="47.498072" lon="8.003250">
        <ele>367.875670</ele>
        <time>2021-11-17T02:36:18.900Z</time>
      </trkpt>
      <trkpt lat="47.498166" lon="8.003383">
        <ele>367.634130</ele>
        <time>2021-11-17T02:36:20.379Z</time>
      </trkpt>
      <trkpt lat="47.498213" lon="8.003454">
        <ele>367.509390</ele>
        <time>2021-11-17T02:36:21.146Z</time>
      </trkpt>
      <trkpt lat="47.498450" lon="8.003874">
        <ele>366.826768</ele>
        <time>2021-11-17T02:36:25.265Z</time>
      </trkpt>
      <trkpt lat="47.498698" lon="8.004313">
        <ele>366.287061</ele>
        <time>2021-11-17T02:36:29.521Z</time>
      </trkpt>
      <trkpt lat="47.498753" lon="8.004410">
        <ele>366.167627</ele>
        <time>2021-11-17T02:36:30.470Z</time>
      </trkpt>
      <trkpt lat="47.498898" lon="8.004636">
        <ele>365.873680</ele>
        <time>2021-11-17T02:36:32.863Z</time>
      </trkpt>
      <trkpt lat="47.498965" lon="8.004710">
        <ele>365.756980</ele>
        <time>2021-11-17T02:36:33.859Z</time>
      </trkpt>
      <trkpt lat="47.499012" lon="8.004762">
        <ele>365.675065</ele>
        <time>2021-11-17T02:36:34.549Z</time>
      </trkpt>
      <trkpt lat="47.499183" lon="8.004875">
        <ele>365.413643</ele>
        <time>2021-11-17T02:36:36.792Z</time>
      </trkpt>
      <trkpt lat="47.499409" lon="8.005000">
        <ele>365.076844</ele>
        <time>2021-11-17T02:36:39.730Z</time>
      </trkpt>
      <trkpt lat="47.499496" lon="8.005059">
        <ele>364.943253</ele>
        <time>2021-11-17T02:36:41.104Z</time>
      </trkpt>
      <trkpt lat="47.499523" lon="8.005078">
        <ele>364.901519</ele>
        <time>2021-11-17T02:36:41.369Z</time>
      </trkpt>
      <trkpt lat="47.499770" lon="8.005268">
        <ele>364.512928</ele>
        <time>2021-11-17T02:36:45.040Z</time>
      </trkpt>
      <trkpt lat="47.499856" lon="8.005338">
        <ele>364.375919</ele>
        <time>2021-11-17T02:36:46.029Z</time>
      </trkpt>
      <trkpt lat="47.499880" lon="8.005358">
        <ele>364.337471</ele>
        <time>2021-11-17T02:36:46.365Z</time>
      </trkpt>
      <trkpt lat="47.499991" lon="8.005468">
        <ele>364.246167</ele>
        <time>2021-11-17T02:36:48.058Z</time>
      </trkpt>
      <trkpt lat="47.500009" lon="8.005488">
        <ele>364.231614</ele>
        <time>2021-11-17T02:36:48.381Z</time>
      </trkpt>
      <trkpt lat="47.500207" lon="8.005727">
        <ele>364.066413</ele>
        <time>2021-11-17T02:36:51.449Z</time>
      </trkpt>
      <trkpt lat="47.500252" lon="8.005784">
        <ele>364.028117</ele>
        <time>2021-11-17T02:36:52.331Z</time>
      </trkpt>
      <trkpt lat="47.500310" lon="8.005852">
        <ele>363.980275</ele>
        <time>2021-11-17T02:36:53.356Z</time>
      </trkpt>
      <trkpt lat="47.500540" lon="8.006079">
        <ele>363.801528</ele>
        <time>2021-11-17T02:36:56.831Z</time>
      </trkpt>
      <trkpt lat="47.500647" lon="8.006180">
        <ele>363.719471</ele>
        <time>2021-11-17T02:36:58.987Z</time>
      </trkpt>
      <trkpt lat="47.500764" lon="8.006290">
        <ele>363.629848</ele>
        <time>2021-11-17T02:37:00.514Z</time>
      </trkpt>
      <trkpt lat="47.500997" lon="8.006551">
        <ele>363.440911</ele>
        <time>2021-11-17T02:37:04.704Z</time>
      </trkpt>
      <trkpt lat="47.501276" lon="8.006911">
        <ele>363.201589</ele>
        <time>2021-11-17T02:37:09.957Z</time>
      </trkpt>
      <trkpt lat="47.501293" lon="8.006936">
        <ele>363.186094</ele>
        <time>2021-11-17T02:37:10.282Z</time>
      </trkpt>
      <trkpt lat="47.501496" lon="8.007247">
        <ele>362.928819</ele>
        <time>2021-11-17T02:37:14.235Z</time>
      </trkpt>
      <trkpt lat="47.501537" lon="8.007308">
        <ele>362.875942</ele>
        <time>2021-11-17T02:37:14.979Z</time>
      </trkpt>
      <trkpt lat="47.501943" lon="8.008353">
        <ele>362.135172</ele>
        <time>2021-11-17T02:37:25.452Z</time>
      </trkpt>
      <trkpt lat="47.502062" lon="8.008650">
        <ele>361.922981</ele>
        <time>2021-11-17T02:37:28.392Z</time>
      </trkpt>
      <trkpt lat="47.502158" lon="8.008808">
        <ele>361.792399</ele>
        <time>2021-11-17T02:37:30.099Z</time>
      </trkpt>
      <trkpt lat="47.502267" lon="8.008979">
        <ele>361.647929</ele>
        <time>2021-11-17T02:37:31.931Z</time>
      </trkpt>
      <trkpt lat="47.502773" lon="8.009928">
        <ele>360.213464</ele>
        <time>2021-11-17T02:37:40.911Z</time>
      </trkpt>
      <trkpt lat="47.502959" lon="8.010415">
        <ele>359.488825</ele>
        <time>2021-11-17T02:37:45.045Z</time>
      </trkpt>
      <trkpt lat="47.503207" lon="8.011279">
        <ele>358.272869</ele>
        <time>2021-11-17T02:37:51.959Z</time>
      </trkpt>
      <trkpt lat="47.503268" lon="8.011479">
        <ele>358.001499</ele>
        <time>2021-11-17T02:37:53.660Z</time>
      </trkpt>
      <trkpt lat="47.503325" lon="8.011662">
        <ele>357.777017</ele>
        <time>2021-11-17T02:37:55.124Z</time>
      </trkpt>
      <trkpt lat="47.503561" lon="8.012433">
        <ele>356.834092</ele>
        <time>2021-11-17T02:38:01.417Z</time>
      </trkpt>
      <trkpt lat="47.503675" lon="8.012805">
        <ele>356.379050</ele>
        <time>2021-11-17T02:38:04.405Z</time>
      </trkpt>
      <trkpt lat="47.503759" lon="8.013139">
        <ele>355.982039</ele>
        <time>2021-11-17T02:38:07.117Z</time>
      </trkpt>
      <trkpt lat="47.503818" lon="8.013443">
        <ele>355.629695</ele>
        <time>2021-11-17T02:38:09.680Z</time>
      </trkpt>
      <trkpt lat="47.503854" lon="8.013721">
        <ele>355.314375</ele>
        <time>2021-11-17T02:38:12.047Z</time>
      </trkpt>
      <trkpt lat="47.503922" lon="8.014235">
        <ele>354.946545</ele>
        <time>2021-11-17T02:38:16.696Z</time>
      </trkpt>
      <trkpt lat="47.504106" lon="8.015484">
        <ele>354.322806</ele>
        <time>2021-11-17T02:38:27.353Z</time>
      </trkpt>
      <trkpt lat="47.504246" lon="8.016448">
        <ele>353.841703</ele>
        <time>2021-11-17T02:38:35.972Z</time>
      </trkpt>
      <trkpt lat="47.504281" lon="8.016674">
        <ele>353.825709</ele>
        <time>2021-11-17T02:38:38.017Z</time>
      </trkpt>
      <trkpt lat="47.504393" lon="8.017182">
        <ele>353.856376</ele>
        <time>2021-11-17T02:38:43.342Z</time>
      </trkpt>
      <trkpt lat="47.504413" lon="8.017267">
        <ele>353.861542</ele>
        <time>2021-11-17T02:38:44.380Z</time>
      </trkpt>
      <trkpt lat="47.504588" lon="8.017986">
        <ele>353.905401</ele>
        <time>2021-11-17T02:38:52.865Z</time>
      </trkpt>
      <trkpt lat="47.504626" lon="8.018141">
        <ele>353.914864</ele>
        <time>2021-11-17T02:38:54.542Z</time>
      </trkpt>
      <trkpt lat="47.504819" lon="8.018974">
        <ele>353.965402</ele>
        <time>2021-11-17T02:39:03.350Z</time>
      </trkpt>
      <trkpt lat="47.504877" lon="8.019222">
        <ele>354.057460</ele>
        <time>2021-11-17T02:39:06.210Z</time>
      </trkpt>
      <trkpt lat="47.504998" lon="8.019743">
        <ele>354.289016</ele>
        <time>2021-11-17T02:39:12.166Z</time>
      </trkpt>
      <trkpt lat="47.505207" lon="8.020615">
        <ele>354.677900</ele>
        <time>2021-11-17T02:39:23.614Z</time>
      </trkpt>
      <trkpt lat="47.505291" lon="8.020961">
        <ele>354.832429</ele>
        <time>2021-11-17T02:39:28.911Z</time>
      </trkpt>
      <trkpt lat="47.505529" lon="8.021539">
        <ele>355.121538</ele>
        <time>2021-11-17T02:39:36.669Z</time>
      </trkpt>
      <trkpt lat="47.505600" lon="8.021664">
        <ele>355.200870</ele>
        <time>2021-11-17T02:39:38.014Z</time>
      </trkpt>
      <trkpt lat="47.505653" lon="8.021731">
        <ele>355.250987</ele>
        <time>2021-11-17T02:39:39.189Z</time>
      </trkpt>
      <trkpt lat="47.505626" lon="8.021792">
        <ele>355.286413</ele>
        <time>2021-11-17T02:39:40.826Z</time>
      </trkpt>
      <trkpt lat="47.505164" lon="8.022351">
        <ele>355.715485</ele>
        <time>2021-11-17T02:39:49.654Z</time>
      </trkpt>
      <trkpt lat="47.505091" lon="8.022464">
        <ele>355.791437</ele>
        <time>2021-11-17T02:39:52.321Z</time>
      </trkpt>
      <trkpt lat="47.505041" lon="8.022652">
        <ele>355.889583</ele>
        <time>2021-11-17T02:39:54.824Z</time>
      </trkpt>
      <trkpt lat="47.505017" lon="8.022771">
        <ele>355.949910</ele>
        <time>2021-11-17T02:39:55.854Z</time>
      </trkpt>
      <trkpt lat="47.504993" lon="8.022933">
        <ele>356.030474</ele>
        <time>2021-11-17T02:39:57.973Z</time>
      </trkpt>
      <trkpt lat="47.504975" lon="8.023185">
        <ele>356.153569</ele>
        <time>2021-11-17T02:40:01.784Z</time>
      </trkpt>
      <trkpt lat="47.504983" lon="8.023284">
        <ele>356.202002</ele>
        <time>2021-11-17T02:40:02.603Z</time>
      </trkpt>
      <trkpt lat="47.504935" lon="8.023341">
        <ele>356.246252</ele>
        <time>2021-11-17T02:40:03.613Z</time>
      </trkpt>
      <trkpt lat="47.504759" lon="8.023499">
        <ele>356.392475</ele>
        <time>2021-11-17T02:40:08.404Z</time>
      </trkpt>
      <trkpt lat="47.504579" lon="8.023556">
        <ele>356.507304</ele>
        <time>2021-11-17T02:40:11.374Z</time>
      </trkpt>
      <trkpt lat="47.504531" lon="8.023550">
        <ele>356.537354</ele>
        <time>2021-11-17T02:40:12.510Z</time>
      </trkpt>
      <trkpt lat="47.504432" lon="8.023537">
        <ele>356.599355</ele>
        <time>2021-11-17T02:40:14.378Z</time>
      </trkpt>
      <trkpt lat="47.504056" lon="8.023411">
        <ele>356.839848</ele>
        <time>2021-11-17T02:40:21.244Z</time>
      </trkpt>
      <trkpt lat="47.503907" lon="8.023817">
        <ele>357.034562</ele>
        <time>2021-11-17T02:40:26.126Z</time>
      </trkpt>
      <trkpt lat="47.503404" lon="8.024849">
        <ele>357.591815</ele>
        <time>2021-11-17T02:40:40.386Z</time>
      </trkpt>
      <trkpt lat="47.503222" lon="8.025223">
        <ele>357.845901</ele>
        <time>2021-11-17T02:40:45.969Z</time>
      </trkpt>
      <trkpt lat="47.503159" lon="8.025346">
        <ele>357.930990</ele>
        <time>2021-11-17T02:40:47.837Z</time>
      </trkpt>
      <trkpt lat="47.503016" lon="8.025577">
        <ele>358.103706</ele>
        <time>2021-11-17T02:40:51.732Z</time>
      </trkpt>
      <trkpt lat="47.503032" lon="8.025730">
        <ele>358.189052</ele>
        <time>2021-11-17T02:40:54.007Z</time>
      </trkpt>
      <trkpt lat="47.503021" lon="8.025852">
        <ele>358.256900</ele>
        <time>2021-11-17T02:40:56.087Z</time>
      </trkpt>
      <trkpt lat="47.502970" lon="8.026171">
        <ele>358.437606</ele>
        <time>2021-11-17T02:41:01.245Z</time>
      </trkpt>
      <trkpt lat="47.502945" lon="8.026325">
        <ele>358.524915</ele>
        <time>2021-11-17T02:41:03.809Z</time>
      </trkpt>
      <trkpt lat="47.502892" lon="8.026637">
        <ele>358.702259</ele>
        <time>2021-11-17T02:41:09.040Z</time>
      </trkpt>
      <trkpt lat="47.502768" lon="8.027165">
        <ele>359.041410</ele>
        <time>2021-11-17T02:41:18.113Z</time>
      </trkpt>
      <trkpt lat="47.502470" lon="8.027919">
        <ele>359.896899</ele>
        <time>2021-11-17T02:41:32.547Z</time>
      </trkpt>
      <trkpt lat="47.501858" lon="8.029220">
        <ele>361.449456</ele>
        <time>2021-11-17T02:42:01.085Z</time>
      </trkpt>
      <trkpt lat="47.501479" lon="8.030595">
        <ele>363.064130</ele>
        <time>2021-11-17T02:42:29.431Z</time>
      </trkpt>
      <trkpt lat="47.501451" lon="8.030732">
        <ele>363.221254</ele>
        <time>2021-11-17T02:42:32.153Z</time>
      </trkpt>
      <trkpt lat="47.501417" lon="8.030833">
        <ele>363.345129</ele>
        <time>2021-11-17T02:42:34.301Z</time>
      </trkpt>
      <trkpt lat="47.501016" lon="8.032338">
        <ele>364.480585</ele>
        <time>2021-11-17T02:43:01.952Z</time>
      </trkpt>
      <trkpt lat="47.500609" lon="8.033743">
        <ele>364.426660</ele>
        <time>2021-11-17T02:43:22.541Z</time>
      </trkpt>
      <trkpt lat="47.500514" lon="8.034048">
        <ele>364.414812</ele>
        <time>2021-11-17T02:43:26.531Z</time>
      </trkpt>
      <trkpt lat="47.500411" lon="8.034253">
        <ele>364.385733</ele>
        <time>2021-11-17T02:43:29.512Z</time>
      </trkpt>
      <trkpt lat="47.500371" lon="8.034497">
        <ele>364.157720</ele>
        <time>2021-11-17T02:43:32.315Z</time>
      </trkpt>
      <trkpt lat="47.500553" lon="8.034618">
        <ele>363.889530</ele>
        <time>2021-11-17T02:43:53.024Z</time>
      </trkpt>
      <trkpt lat="47.500645" lon="8.034361">
        <ele>363.625403</ele>
        <time>2021-11-17T02:43:55.207Z</time>
      </trkpt>
      <trkpt lat="47.500801" lon="8.034059">
        <ele>363.280168</ele>
        <time>2021-11-17T02:43:58.118Z</time>
      </trkpt>
      <trkpt lat="47.500872" lon="8.033977">
        <ele>363.159115</ele>
        <time>2021-11-17T02:43:59.108Z</time>
      </trkpt>
      <trkpt lat="47.501058" lon="8.033762">
        <ele>362.841890</ele>
        <time>2021-11-17T02:44:01.829Z</time>
      </trkpt>
      <trkpt lat="47.501066" lon="8.033753">
        <ele>362.828383</ele>
        <time>2021-11-17T02:44:01.932Z</time>
      </trkpt>
      <trkpt lat="47.501210" lon="8.033684">
        <ele>362.624927</ele>
        <time>2021-11-17T02:44:03.630Z</time>
      </trkpt>
      <trkpt lat="47.501499" lon="8.033681">
        <ele>362.236442</ele>
        <time>2021-11-17T02:44:07.138Z</time>
      </trkpt>
      <trkpt lat="47.501609" lon="8.033741">
        <ele>362.078859</ele>
        <time>2021-11-17T02:44:08.452Z</time>
      </trkpt>
      <trkpt lat="47.501599" lon="8.033785">
        <ele>362.036702</ele>
        <time>2021-11-17T02:44:08.805Z</time>
      </trkpt>
      <trkpt lat="47.501629" lon="8.033943">
        <ele>361.945320</ele>
        <time>2021-11-17T02:44:10.588Z</time>
      </trkpt>
      <trkpt lat="47.501669" lon="8.033986">
        <ele>361.916728</ele>
        <time>2021-11-17T02:44:11.260Z</time>
      </trkpt>
      <trkpt lat="47.501698" lon="8.034000">
        <ele>361.899087</ele>
        <time>2021-11-17T02:44:11.627Z</time>
      </trkpt>
      <trkpt lat="47.501807" lon="8.033950">
        <ele>361.833089</ele>
        <time>2021-11-17T02:44:13.196Z</time>
      </trkpt>
      <trkpt lat="47.501827" lon="8.033911">
        <ele>361.813958</ele>
        <time>2021-11-17T02:44:13.553Z</time>
      </trkpt>
      <trkpt lat="47.501880" lon="8.033941">
        <ele>361.781141</ele>
        <time>2021-11-17T02:44:19.713Z</time>
      </trkpt>
      <trkpt lat="47.501838" lon="8.034051">
        <ele>361.731773</ele>
        <time>2021-11-17T02:44:21.324Z</time>
      </trkpt>
      <trkpt lat="47.501709" lon="8.034282">
        <ele>361.614673</ele>
        <time>2021-11-17T02:44:23.903Z</time>
      </trkpt>
      <trkpt lat="47.501613" lon="8.034680">
        <ele>361.449554</ele>
        <time>2021-11-17T02:44:28.055Z</time>
      </trkpt>
      <trkpt lat="47.501468" lon="8.035629">
        <ele>361.069398</ele>
        <time>2021-11-17T02:44:36.634Z</time>
      </trkpt>
      <trkpt lat="47.501454" lon="8.035709">
        <ele>361.037109</ele>
        <time>2021-11-17T02:44:37.759Z</time>
      </trkpt>
      <trkpt lat="47.501437" lon="8.035841">
        <ele>360.984605</ele>
        <time>2021-11-17T02:44:39.339Z</time>
      </trkpt>
      <trkpt lat="47.501234" lon="8.038241">
        <ele>359.437853</ele>
        <time>2021-11-17T02:45:07.868Z</time>
      </trkpt>
      <trkpt lat="47.501231" lon="8.038279">
        <ele>359.413010</ele>
        <time>2021-11-17T02:45:08.200Z</time>
      </trkpt>
      <trkpt lat="47.501267" lon="8.038284">
        <ele>359.378256</ele>
        <time>2021-11-17T02:45:08.572Z</time>
      </trkpt>
      <trkpt lat="47.501901" lon="8.038376">
        <ele>359.004751</ele>
        <time>2021-11-17T02:45:16.398Z</time>
      </trkpt>
      <trkpt lat="47.502069" lon="8.038565">
        <ele>358.908644</ele>
        <time>2021-11-17T02:45:18.869Z</time>
      </trkpt>
      <trkpt lat="47.502088" lon="8.038680">
        <ele>358.872216</ele>
        <time>2021-11-17T02:45:20.017Z</time>
      </trkpt>
      <trkpt lat="47.502099" lon="8.038844">
        <ele>358.821507</ele>
        <time>2021-11-17T02:45:21.244Z</time>
      </trkpt>
      <trkpt lat="47.502104" lon="8.038924">
        <ele>358.796787</ele>
        <time>2021-11-17T02:45:21.869Z</time>
      </trkpt>
      <trkpt lat="47.502162" lon="8.040946">
        <ele>358.924931</ele>
        <time>2021-11-17T02:45:43.782Z</time>
      </trkpt>
      <trkpt lat="47.502240" lon="8.041844">
        <ele>359.569704</ele>
        <time>2021-11-17T02:45:55.873Z</time>
      </trkpt>
      <trkpt lat="47.502261" lon="8.042085">
        <ele>359.742754</ele>
        <time>2021-11-17T02:45:59.184Z</time>
      </trkpt>
      <trkpt lat="47.502592" lon="8.044305">
        <ele>361.874556</ele>
        <time>2021-11-17T02:46:31.126Z</time>
      </trkpt>
      <trkpt lat="47.502959" lon="8.047023">
        <ele>364.865083</ele>
        <time>2021-11-17T02:47:11.320Z</time>
      </trkpt>
      <trkpt lat="47.503126" lon="8.048338">
        <ele>366.266647</ele>
        <time>2021-11-17T02:47:30.683Z</time>
      </trkpt>
      <trkpt lat="47.503303" lon="8.050012">
        <ele>367.729477</ele>
        <time>2021-11-17T02:47:53.327Z</time>
      </trkpt>
      <trkpt lat="47.503323" lon="8.050248">
        <ele>367.934823</ele>
        <time>2021-11-17T02:47:56.573Z</time>
      </trkpt>
      <trkpt lat="47.503363" lon="8.050738">
        <ele>368.359031</ele>
        <time>2021-11-17T02:48:02.948Z</time>
      </trkpt>
      <trkpt lat="47.503386" lon="8.051161">
        <ele>368.706938</ele>
        <time>2021-11-17T02:48:08.397Z</time>
      </trkpt>
      <trkpt lat="47.503397" lon="8.051365">
        <ele>368.874714</ele>
        <time>2021-11-17T02:48:11.193Z</time>
      </trkpt>
      <trkpt lat="47.503421" lon="8.051996">
        <ele>369.392842</ele>
        <time>2021-11-17T02:48:19.535Z</time>
      </trkpt>
      <trkpt lat="47.503428" lon="8.052181">
        <ele>369.544747</ele>
        <time>2021-11-17T02:48:21.933Z</time>
      </trkpt>
      <trkpt lat="47.503428" lon="8.052697">
        <ele>369.967775</ele>
        <time>2021-11-17T02:48:28.709Z</time>
      </trkpt>
      <trkpt lat="47.503431" lon="8.052821">
        <ele>370.069498</ele>
        <time>2021-11-17T02:48:30.327Z</time>
      </trkpt>
      <trkpt lat="47.503433" lon="8.053143">
        <ele>370.333492</ele>
        <time>2021-11-17T02:48:35.800Z</time>
      </trkpt>
      <trkpt lat="47.503429" lon="8.053339">
        <ele>370.494251</ele>
        <time>2021-11-17T02:48:39.238Z</time>
      </trkpt>
      <trkpt lat="47.503413" lon="8.053999">
        <ele>371.178378</ele>
        <time>2021-11-17T02:48:51.010Z</time>
      </trkpt>
      <trkpt lat="47.503340" lon="8.055072">
        <ele>372.300642</ele>
        <time>2021-11-17T02:49:10.290Z</time>
      </trkpt>
      <trkpt lat="47.503298" lon="8.055555">
        <ele>372.807423</ele>
        <time>2021-11-17T02:49:18.820Z</time>
      </trkpt>
      <trkpt lat="47.503232" lon="8.056115">
        <ele>373.420913</ele>
        <time>2021-11-17T02:49:28.752Z</time>
      </trkpt>
      <trkpt lat="47.502927" lon="8.057944">
        <ele>375.732699</ele>
        <time>2021-11-17T02:50:04.438Z</time>
      </trkpt>
      <trkpt lat="47.502836" lon="8.058343">
        <ele>376.249475</ele>
        <time>2021-11-17T02:50:12.189Z</time>
      </trkpt>
      <trkpt lat="47.502806" lon="8.058487">
        <ele>376.434394</ele>
        <time>2021-11-17T02:50:15.210Z</time>
      </trkpt>
      <trkpt lat="47.502690" lon="8.058955">
        <ele>377.307007</ele>
        <time>2021-11-17T02:50:24.203Z</time>
      </trkpt>
      <trkpt lat="47.502580" lon="8.059374">
        <ele>378.145152</ele>
        <time>2021-11-17T02:50:32.106Z</time>
      </trkpt>
      <trkpt lat="47.502534" lon="8.059520">
        <ele>378.445520</ele>
        <time>2021-11-17T02:50:35.299Z</time>
      </trkpt>
      <trkpt lat="47.502407" lon="8.059925">
        <ele>379.278033</ele>
        <time>2021-11-17T02:50:44.048Z</time>
      </trkpt>
      <trkpt lat="47.502229" lon="8.060464">
        <ele>380.396657</ele>
        <time>2021-11-17T02:50:57.801Z</time>
      </trkpt>
      <trkpt lat="47.502130" lon="8.060761">
        <ele>381.014161</ele>
        <time>2021-11-17T02:51:05.462Z</time>
      </trkpt>
      <trkpt lat="47.501846" lon="8.060631">
        <ele>382.193857</ele>
        <time>2021-11-17T02:51:43.387Z</time>
      </trkpt>
      <trkpt lat="47.501802" lon="8.060823">
        <ele>382.987721</ele>
        <time>2021-11-17T02:51:48.980Z</time>
      </trkpt>
      <trkpt lat="47.502009" lon="8.060892">
        <ele>384.217528</ele>
        <time>2021-11-17T02:51:56.329Z</time>
      </trkpt>
      <trkpt lat="47.502226" lon="8.060977">
        <ele>385.518541</ele>
        <time>2021-11-17T02:52:05.789Z</time>
      </trkpt>
      <trkpt lat="47.502612" lon="8.061128">
        <ele>387.832587</ele>
        <time>2021-11-17T02:52:22.410Z</time>
      </trkpt>
      <trkpt lat="47.502725" lon="8.061108">
        <ele>388.492196</ele>
        <time>2021-11-17T02:52:26.946Z</time>
      </trkpt>
      <trkpt lat="47.502780" lon="8.061071">
        <ele>388.842349</ele>
        <time>2021-11-17T02:52:29.970Z</time>
      </trkpt>
      <trkpt lat="47.502857" lon="8.060989">
        <ele>389.392130</ele>
        <time>2021-11-17T02:52:35.860Z</time>
      </trkpt>
      <trkpt lat="47.503219" lon="8.060489">
        <ele>392.330103</ele>
        <time>2021-11-17T02:52:59.960Z</time>
      </trkpt>
      <trkpt lat="47.503370" lon="8.060338">
        <ele>393.605685</ele>
        <time>2021-11-17T02:53:10.330Z</time>
      </trkpt>
      <trkpt lat="47.503390" lon="8.060324">
        <ele>393.760548</ele>
        <time>2021-11-17T02:53:11.843Z</time>
      </trkpt>
      <trkpt lat="47.503788" lon="8.060053">
        <ele>396.827140</ele>
        <time>2021-11-17T02:53:34.172Z</time>
      </trkpt>
      <trkpt lat="47.503958" lon="8.059935">
        <ele>398.141463</ele>
        <time>2021-11-17T02:53:42.191Z</time>
      </trkpt>
      <trkpt lat="47.504078" lon="8.059826">
        <ele>399.126992</ele>
        <time>2021-11-17T02:53:50.080Z</time>
      </trkpt>
      <trkpt lat="47.504169" lon="8.059693">
        <ele>400.022151</ele>
        <time>2021-11-17T02:53:54.697Z</time>
      </trkpt>
      <trkpt lat="47.504282" lon="8.059500">
        <ele>401.229875</ele>
        <time>2021-11-17T02:54:02.848Z</time>
      </trkpt>
      <trkpt lat="47.505291" lon="8.057302">
        <ele>413.478091</ele>
        <time>2021-11-17T02:55:26.127Z</time>
      </trkpt>
      <trkpt lat="47.505423" lon="8.056514">
        <ele>417.459425</ele>
        <time>2021-11-17T02:55:50.338Z</time>
      </trkpt>
      <trkpt lat="47.505441" lon="8.056483">
        <ele>417.747669</ele>
        <time>2021-11-17T02:55:52.036Z</time>
      </trkpt>
      <trkpt lat="47.505475" lon="8.056464">
        <ele>418.127020</ele>
        <time>2021-11-17T02:55:56.072Z</time>
      </trkpt>
      <trkpt lat="47.505625" lon="8.056515">
        <ele>419.733542</ele>
        <time>2021-11-17T02:56:02.905Z</time>
      </trkpt>
      <trkpt lat="47.505677" lon="8.056765">
        <ele>421.578043</ele>
        <time>2021-11-17T02:56:11.738Z</time>
      </trkpt>
      <trkpt lat="47.505517" lon="8.058346">
        <ele>432.850574</ele>
        <time>2021-11-17T02:57:23.222Z</time>
      </trkpt>
      <trkpt lat="47.505451" lon="8.058764">
        <ele>435.940784</ele>
        <time>2021-11-17T02:57:44.163Z</time>
      </trkpt>
      <trkpt lat="47.505424" lon="8.058918">
        <ele>437.231487</ele>
        <time>2021-11-17T02:57:51.563Z</time>
      </trkpt>
      <trkpt lat="47.505387" lon="8.059133">
        <ele>439.031366</ele>
        <time>2021-11-17T02:58:01.827Z</time>
      </trkpt>
      <trkpt lat="47.505370" lon="8.059258">
        <ele>440.065765</ele>
        <time>2021-11-17T02:58:07.160Z</time>
      </trkpt>
      <trkpt lat="47.505307" lon="8.059618">
        <ele>443.082646</ele>
        <time>2021-11-17T02:58:25.043Z</time>
      </trkpt>
      <trkpt lat="47.504942" lon="8.061411">
        <ele>458.068481</ele>
        <time>2021-11-17T02:59:53.303Z</time>
      </trkpt>
      <trkpt lat="47.503369" lon="8.065330">
        <ele>488.525350</ele>
        <time>2021-11-17T03:02:53.389Z</time>
      </trkpt>
      <trkpt lat="47.503323" lon="8.065713">
        <ele>491.096094</ele>
        <time>2021-11-17T03:03:09.078Z</time>
      </trkpt>
      <trkpt lat="47.503327" lon="8.066232">
        <ele>494.566914</ele>
        <time>2021-11-17T03:03:31.322Z</time>
      </trkpt>
      <trkpt lat="47.503405" lon="8.066731">
        <ele>498.023312</ele>
        <time>2021-11-17T03:03:53.243Z</time>
      </trkpt>
      <trkpt lat="47.503534" lon="8.067213">
        <ele>501.521976</ele>
        <time>2021-11-17T03:04:14.573Z</time>
      </trkpt>
      <trkpt lat="47.503632" lon="8.067340">
        <ele>502.823088</ele>
        <time>2021-11-17T03:04:22.741Z</time>
      </trkpt>
      <trkpt lat="47.503779" lon="8.067381">
        <ele>504.317378</ele>
        <time>2021-11-17T03:04:31.255Z</time>
      </trkpt>
      <trkpt lat="47.504036" lon="8.067372">
        <ele>506.885389</ele>
        <time>2021-11-17T03:04:47.717Z</time>
      </trkpt>
      <trkpt lat="47.504101" lon="8.067367">
        <ele>507.535580</ele>
        <time>2021-11-17T03:04:51.003Z</time>
      </trkpt>
      <trkpt lat="47.504397" lon="8.067358">
        <ele>510.493086</ele>
        <time>2021-11-17T03:05:08.813Z</time>
      </trkpt>
      <trkpt lat="47.505081" lon="8.067225">
        <ele>515.126383</ele>
        <time>2021-11-17T03:05:45.845Z</time>
      </trkpt>
      <trkpt lat="47.505473" lon="8.067198">
        <ele>517.748133</ele>
        <time>2021-11-17T03:06:05.490Z</time>
      </trkpt>
      <trkpt lat="47.505540" lon="8.066896">
        <ele>519.182706</ele>
        <time>2021-11-17T03:06:18.040Z</time>
      </trkpt>
      <trkpt lat="47.506010" lon="8.064980">
        <ele>524.164290</ele>
        <time>2021-11-17T03:07:30.430Z</time>
      </trkpt>
      <trkpt lat="47.506078" lon="8.064758">
        <ele>524.464250</ele>
        <time>2021-11-17T03:07:38.130Z</time>
      </trkpt>
      <trkpt lat="47.506276" lon="8.063954">
        <ele>525.517322</ele>
        <time>2021-11-17T03:08:00.264Z</time>
      </trkpt>
      <trkpt lat="47.506664" lon="8.062340">
        <ele>523.174534</ele>
        <time>2021-11-17T03:08:36.552Z</time>
      </trkpt>
      <trkpt lat="47.506799" lon="8.061960">
        <ele>522.371188</ele>
        <time>2021-11-17T03:08:44.799Z</time>
      </trkpt>
      <trkpt lat="47.506834" lon="8.061792">
        <ele>522.042237</ele>
        <time>2021-11-17T03:08:46.406Z</time>
      </trkpt>
      <trkpt lat="47.506868" lon="8.061294">
        <ele>521.105694</ele>
        <time>2021-11-17T03:08:51.135Z</time>
      </trkpt>
      <trkpt lat="47.507095" lon="8.060549">
        <ele>519.072753</ele>
        <time>2021-11-17T03:08:59.060Z</time>
      </trkpt>
      <trkpt lat="47.507282" lon="8.059981">
        <ele>517.432717</ele>
        <time>2021-11-17T03:09:05.113Z</time>
      </trkpt>
      <trkpt lat="47.507442" lon="8.059522">
        <ele>516.092100</ele>
        <time>2021-11-17T03:09:10.106Z</time>
      </trkpt>
      <trkpt lat="47.507796" lon="8.058923">
        <ele>514.026362</ele>
        <time>2021-11-17T03:09:17.799Z</time>
      </trkpt>
      <trkpt lat="47.508101" lon="8.058498">
        <ele>511.028147</ele>
        <time>2021-11-17T03:09:23.588Z</time>
      </trkpt>
      <trkpt lat="47.508257" lon="8.058324">
        <ele>509.604973</ele>
        <time>2021-11-17T03:09:26.136Z</time>
      </trkpt>
      <trkpt lat="47.509137" lon="8.057413">
        <ele>501.780835</ele>
        <time>2021-11-17T03:09:39.613Z</time>
      </trkpt>
      <trkpt lat="47.509761" lon="8.057079">
        <ele>495.280271</ele>
        <time>2021-11-17T03:09:47.661Z</time>
      </trkpt>
      <trkpt lat="47.509954" lon="8.057004">
        <ele>493.207698</ele>
        <time>2021-11-17T03:09:50.064Z</time>
      </trkpt>
      <trkpt lat="47.510082" lon="8.056966">
        <ele>491.851712</ele>
        <time>2021-11-17T03:09:51.662Z</time>
      </trkpt>
      <trkpt lat="47.510829" lon="8.056804">
        <ele>484.009924</ele>
        <time>2021-11-17T03:10:00.790Z</time>
      </trkpt>
      <trkpt lat="47.511847" lon="8.056597">
        <ele>472.906350</ele>
        <time>2021-11-17T03:10:13.246Z</time>
      </trkpt>
      <trkpt lat="47.512296" lon="8.056517">
        <ele>467.980297</ele>
        <time>2021-11-17T03:10:18.731Z</time>
      </trkpt>
      <trkpt lat="47.512855" lon="8.056583">
        <ele>461.901953</ele>
        <time>2021-11-17T03:10:25.432Z</time>
      </trkpt>
      <trkpt lat="47.513354" lon="8.056772">
        <ele>456.526467</ele>
        <time>2021-11-17T03:10:31.628Z</time>
      </trkpt>
      <trkpt lat="47.513766" lon="8.057043">
        <ele>451.821424</ele>
        <time>2021-11-17T03:10:37.067Z</time>
      </trkpt>
      <trkpt lat="47.513979" lon="8.057155">
        <ele>449.462438</ele>
        <time>2021-11-17T03:10:39.788Z</time>
      </trkpt>
      <trkpt lat="47.514860" lon="8.057684">
        <ele>440.856819</ele>
        <time>2021-11-17T03:10:51.596Z</time>
      </trkpt>
      <trkpt lat="47.514913" lon="8.057730">
        <ele>440.413072</ele>
        <time>2021-11-17T03:10:52.308Z</time>
      </trkpt>
      <trkpt lat="47.514980" lon="8.057838">
        <ele>439.697674</ele>
        <time>2021-11-17T03:10:53.576Z</time>
      </trkpt>
      <trkpt lat="47.515549" lon="8.058544">
        <ele>434.335439</ele>
        <time>2021-11-17T03:11:03.308Z</time>
      </trkpt>
      <trkpt lat="47.516592" lon="8.059424">
        <ele>425.871699</ele>
        <time>2021-11-17T03:11:18.867Z</time>
      </trkpt>
      <trkpt lat="47.516879" lon="8.059595">
        <ele>423.726877</ele>
        <time>2021-11-17T03:11:22.908Z</time>
      </trkpt>
      <trkpt lat="47.517045" lon="8.059678">
        <ele>422.512155</ele>
        <time>2021-11-17T03:11:25.108Z</time>
      </trkpt>
      <trkpt lat="47.517499" lon="8.059959">
        <ele>419.100649</ele>
        <time>2021-11-17T03:11:31.421Z</time>
      </trkpt>
      <trkpt lat="47.517603" lon="8.060042">
        <ele>418.284272</ele>
        <time>2021-11-17T03:11:32.901Z</time>
      </trkpt>
      <trkpt lat="47.517670" lon="8.060139">
        <ele>417.659075</ele>
        <time>2021-11-17T03:11:34.044Z</time>
      </trkpt>
      <trkpt lat="47.517743" lon="8.060294">
        <ele>416.807589</ele>
        <time>2021-11-17T03:11:35.701Z</time>
      </trkpt>
      <trkpt lat="47.517774" lon="8.060359">
        <ele>416.449031</ele>
        <time>2021-11-17T03:11:36.373Z</time>
      </trkpt>
      <trkpt lat="47.517832" lon="8.060561">
        <ele>415.459973</ele>
        <time>2021-11-17T03:11:38.189Z</time>
      </trkpt>
      <trkpt lat="47.517920" lon="8.060669">
        <ele>414.697377</ele>
        <time>2021-11-17T03:11:39.652Z</time>
      </trkpt>
      <trkpt lat="47.518058" lon="8.060729">
        <ele>413.737771</ele>
        <time>2021-11-17T03:11:41.459Z</time>
      </trkpt>
      <trkpt lat="47.518109" lon="8.060687">
        <ele>413.348412</ele>
        <time>2021-11-17T03:11:42.169Z</time>
      </trkpt>
      <trkpt lat="47.518153" lon="8.060621">
        <ele>412.930530</ele>
        <time>2021-11-17T03:11:42.947Z</time>
      </trkpt>
      <trkpt lat="47.518168" lon="8.060542">
        <ele>412.560758</ele>
        <time>2021-11-17T03:11:43.708Z</time>
      </trkpt>
      <trkpt lat="47.518185" lon="8.060410">
        <ele>411.955252</ele>
        <time>2021-11-17T03:11:44.952Z</time>
      </trkpt>
      <trkpt lat="47.518145" lon="8.060201">
        <ele>410.976419</ele>
        <time>2021-11-17T03:11:46.247Z</time>
      </trkpt>
      <trkpt lat="47.518115" lon="8.059928">
        <ele>409.730111</ele>
        <time>2021-11-17T03:11:48.039Z</time>
      </trkpt>
      <trkpt lat="47.518107" lon="8.059678">
        <ele>408.602354</ele>
        <time>2021-11-17T03:11:49.552Z</time>
      </trkpt>
      <trkpt lat="47.518111" lon="8.059250">
        <ele>406.673614</ele>
        <time>2021-11-17T03:11:52.296Z</time>
      </trkpt>
      <trkpt lat="47.518110" lon="8.059176">
        <ele>406.345262</ele>
        <time>2021-11-17T03:11:52.737Z</time>
      </trkpt>
      <trkpt lat="47.518153" lon="8.058825">
        <ele>405.368789</ele>
        <time>2021-11-17T03:11:55.132Z</time>
      </trkpt>
      <trkpt lat="47.518181" lon="8.058723">
        <ele>405.067401</ele>
        <time>2021-11-17T03:11:55.801Z</time>
      </trkpt>
      <trkpt lat="47.518245" lon="8.058536">
        <ele>404.493551</ele>
        <time>2021-11-17T03:11:57.122Z</time>
      </trkpt>
      <trkpt lat="47.518297" lon="8.058380">
        <ele>404.017352</ele>
        <time>2021-11-17T03:11:58.382Z</time>
      </trkpt>
      <trkpt lat="47.518370" lon="8.058169">
        <ele>403.368407</ele>
        <time>2021-11-17T03:11:59.827Z</time>
      </trkpt>
      <trkpt lat="47.518693" lon="8.057336">
        <ele>400.739147</ele>
        <time>2021-11-17T03:12:06.271Z</time>
      </trkpt>
      <trkpt lat="47.519179" lon="8.056358">
        <ele>397.458520</ele>
        <time>2021-11-17T03:12:14.791Z</time>
      </trkpt>
      <trkpt lat="47.519217" lon="8.056276">
        <ele>397.193415</ele>
        <time>2021-11-17T03:12:15.504Z</time>
      </trkpt>
      <trkpt lat="47.519301" lon="8.056122">
        <ele>396.665713</ele>
        <time>2021-11-17T03:12:16.852Z</time>
      </trkpt>
      <trkpt lat="47.519792" lon="8.055311">
        <ele>393.762251</ele>
        <time>2021-11-17T03:12:23.965Z</time>
      </trkpt>
      <trkpt lat="47.520109" lon="8.054903">
        <ele>392.104361</ele>
        <time>2021-11-17T03:12:28.026Z</time>
      </trkpt>
      <trkpt lat="47.520138" lon="8.054877">
        <ele>391.970544</ele>
        <time>2021-11-17T03:12:28.322Z</time>
      </trkpt>
      <trkpt lat="47.520200" lon="8.054838">
        <ele>391.634242</ele>
        <time>2021-11-17T03:12:28.925Z</time>
      </trkpt>
      <trkpt lat="47.520447" lon="8.054686">
        <ele>390.291166</ele>
        <time>2021-11-17T03:12:31.488Z</time>
      </trkpt>
      <trkpt lat="47.520495" lon="8.054640">
        <ele>390.004077</ele>
        <time>2021-11-17T03:12:31.983Z</time>
      </trkpt>
      <trkpt lat="47.520622" lon="8.054507">
        <ele>389.223020</ele>
        <time>2021-11-17T03:12:33.485Z</time>
      </trkpt>
      <trkpt lat="47.520983" lon="8.054002">
        <ele>386.729409</ele>
        <time>2021-11-17T03:12:38.223Z</time>
      </trkpt>
      <trkpt lat="47.521342" lon="8.053276">
        <ele>383.678203</ele>
        <time>2021-11-17T03:12:43.829Z</time>
      </trkpt>
      <trkpt lat="47.521468" lon="8.053086">
        <ele>382.804915</ele>
        <time>2021-11-17T03:12:45.545Z</time>
      </trkpt>
      <trkpt lat="47.521510" lon="8.053033">
        <ele>382.580277</ele>
        <time>2021-11-17T03:12:46.057Z</time>
      </trkpt>
      <trkpt lat="47.521555" lon="8.052973">
        <ele>382.333769</ele>
        <time>2021-11-17T03:12:46.624Z</time>
      </trkpt>
      <trkpt lat="47.521761" lon="8.052748">
        <ele>381.291725</ele>
        <time>2021-11-17T03:12:49.119Z</time>
      </trkpt>
      <trkpt lat="47.521902" lon="8.052655">
        <ele>380.663367</ele>
        <time>2021-11-17T03:12:50.629Z</time>
      </trkpt>
      <trkpt lat="47.522238" lon="8.052476">
        <ele>379.209728</ele>
        <time>2021-11-17T03:12:54.104Z</time>
      </trkpt>
      <trkpt lat="47.523089" lon="8.052118">
        <ele>375.608847</ele>
        <time>2021-11-17T03:13:02.783Z</time>
      </trkpt>
      <trkpt lat="47.523941" lon="8.051728">
        <ele>373.096002</ele>
        <time>2021-11-17T03:13:12.003Z</time>
      </trkpt>
      <trkpt lat="47.524373" lon="8.051538">
        <ele>371.826160</ele>
        <time>2021-11-17T03:13:16.747Z</time>
      </trkpt>
      <trkpt lat="47.525100" lon="8.051220">
        <ele>369.635051</ele>
        <time>2021-11-17T03:13:24.833Z</time>
      </trkpt>
      <trkpt lat="47.527655" lon="8.049761">
        <ele>360.939115</ele>
        <time>2021-11-17T03:13:52.639Z</time>
      </trkpt>
      <trkpt lat="47.527953" lon="8.049615">
        <ele>359.875945</ele>
        <time>2021-11-17T03:13:55.698Z</time>
      </trkpt>
      <trkpt lat="47.528839" lon="8.049183">
        <ele>357.012476</ele>
        <time>2021-11-17T03:14:04.927Z</time>
      </trkpt>
      <trkpt lat="47.529656" lon="8.048773">
        <ele>354.460692</ele>
        <time>2021-11-17T03:14:13.879Z</time>
      </trkpt>
      <trkpt lat="47.530227" lon="8.048487">
        <ele>353.036902</ele>
        <time>2021-11-17T03:14:20.510Z</time>
      </trkpt>
      <trkpt lat="47.530578" lon="8.048313">
        <ele>352.314758</ele>
        <time>2021-11-17T03:14:24.671Z</time>
      </trkpt>
      <trkpt lat="47.531509" lon="8.047769">
        <ele>350.362124</ele>
        <time>2021-11-17T03:14:35.920Z</time>
      </trkpt>
      <trkpt lat="47.531748" lon="8.047580">
        <ele>349.739958</ele>
        <time>2021-11-17T03:14:38.844Z</time>
      </trkpt>
      <trkpt lat="47.532024" lon="8.047221">
        <ele>348.851453</ele>
        <time>2021-11-17T03:14:42.715Z</time>
      </trkpt>
      <trkpt lat="47.532368" lon="8.046806">
        <ele>347.778274</ele>
        <time>2021-11-17T03:14:47.357Z</time>
      </trkpt>
      <trkpt lat="47.532987" lon="8.046028">
        <ele>345.823940</ele>
        <time>2021-11-17T03:14:55.946Z</time>
      </trkpt>
      <trkpt lat="47.533268" lon="8.045675">
        <ele>345.075421</ele>
        <time>2021-11-17T03:14:59.869Z</time>
      </trkpt>
      <trkpt lat="47.533321" lon="8.045604">
        <ele>344.930247</ele>
        <time>2021-11-17T03:15:00.647Z</time>
      </trkpt>
      <trkpt lat="47.533634" lon="8.045197">
        <ele>344.084122</ele>
        <time>2021-11-17T03:15:05.094Z</time>
      </trkpt>
      <trkpt lat="47.533862" lon="8.044961">
        <ele>343.519050</ele>
        <time>2021-11-17T03:15:08.153Z</time>
      </trkpt>
      <trkpt lat="47.533961" lon="8.044883">
        <ele>343.291250</ele>
        <time>2021-11-17T03:15:09.394Z</time>
      </trkpt>
      <trkpt lat="47.534054" lon="8.044829">
        <ele>343.088324</ele>
        <time>2021-11-17T03:15:10.519Z</time>
      </trkpt>
      <trkpt lat="47.534374" lon="8.044734">
        <ele>342.425323</ele>
        <time>2021-11-17T03:15:14.273Z</time>
      </trkpt>
      <trkpt lat="47.534636" lon="8.044665">
        <ele>342.043746</ele>
        <time>2021-11-17T03:15:17.348Z</time>
      </trkpt>
      <trkpt lat="47.534737" lon="8.044640">
        <ele>341.934617</ele>
        <time>2021-11-17T03:15:18.607Z</time>
      </trkpt>
      <trkpt lat="47.534992" lon="8.044570">
        <ele>341.658235</ele>
        <time>2021-11-17T03:15:21.555Z</time>
      </trkpt>
      <trkpt lat="47.536130" lon="8.044277">
        <ele>340.427280</ele>
        <time>2021-11-17T03:15:35.720Z</time>
      </trkpt>
      <trkpt lat="47.536364" lon="8.044230">
        <ele>340.193961</ele>
        <time>2021-11-17T03:15:38.588Z</time>
      </trkpt>
      <trkpt lat="47.536508" lon="8.044238">
        <ele>340.062605</ele>
        <time>2021-11-17T03:15:40.800Z</time>
      </trkpt>
      <trkpt lat="47.536646" lon="8.044284">
        <ele>339.933665</ele>
        <time>2021-11-17T03:15:42.526Z</time>
      </trkpt>
      <trkpt lat="47.536844" lon="8.044412">
        <ele>339.736737</ele>
        <time>2021-11-17T03:15:45.910Z</time>
      </trkpt>
      <trkpt lat="47.537460" lon="8.044932">
        <ele>339.090436</ele>
        <time>2021-11-17T03:15:54.892Z</time>
      </trkpt>
      <trkpt lat="47.537686" lon="8.045112">
        <ele>338.856533</ele>
        <time>2021-11-17T03:15:57.876Z</time>
      </trkpt>
      <trkpt lat="47.538203" lon="8.045387">
        <ele>338.010016</ele>
        <time>2021-11-17T03:16:04.138Z</time>
      </trkpt>
      <trkpt lat="47.538294" lon="8.045418">
        <ele>337.829045</ele>
        <time>2021-11-17T03:16:05.171Z</time>
      </trkpt>
      <trkpt lat="47.538340" lon="8.045430">
        <ele>337.738521</ele>
        <time>2021-11-17T03:16:05.760Z</time>
      </trkpt>
      <trkpt lat="47.538479" lon="8.045444">
        <ele>337.468503</ele>
        <time>2021-11-17T03:16:07.288Z</time>
      </trkpt>
      <trkpt lat="47.538763" lon="8.045382">
        <ele>336.912138</ele>
        <time>2021-11-17T03:16:10.506Z</time>
      </trkpt>
      <trkpt lat="47.538912" lon="8.045281">
        <ele>336.594562</ele>
        <time>2021-11-17T03:16:12.277Z</time>
      </trkpt>
      <trkpt lat="47.538984" lon="8.045208">
        <ele>336.425462</ele>
        <time>2021-11-17T03:16:13.211Z</time>
      </trkpt>
      <trkpt lat="47.539049" lon="8.045146">
        <ele>336.275627</ele>
        <time>2021-11-17T03:16:14.111Z</time>
      </trkpt>
      <trkpt lat="47.539168" lon="8.044994">
        <ele>335.971090</ele>
        <time>2021-11-17T03:16:15.736Z</time>
      </trkpt>
      <trkpt lat="47.539357" lon="8.044726">
        <ele>335.464012</ele>
        <time>2021-11-17T03:16:18.525Z</time>
      </trkpt>
      <trkpt lat="47.539485" lon="8.044571">
        <ele>335.181419</ele>
        <time>2021-11-17T03:16:20.268Z</time>
      </trkpt>
      <trkpt lat="47.539769" lon="8.044372">
        <ele>335.264073</ele>
        <time>2021-11-17T03:16:23.608Z</time>
      </trkpt>
      <trkpt lat="47.540105" lon="8.044383">
        <ele>335.352492</ele>
        <time>2021-11-17T03:16:27.486Z</time>
      </trkpt>
      <trkpt lat="47.540316" lon="8.044416">
        <ele>335.408312</ele>
        <time>2021-11-17T03:16:30.551Z</time>
      </trkpt>
      <trkpt lat="47.540345" lon="8.044329">
        <ele>335.425544</ele>
        <time>2021-11-17T03:16:31.425Z</time>
      </trkpt>
      <trkpt lat="47.540360" lon="8.044061">
        <ele>335.473305</ele>
        <time>2021-11-17T03:16:34.723Z</time>
      </trkpt>
      <trkpt lat="47.540394" lon="8.043626">
        <ele>335.551078</ele>
        <time>2021-11-17T03:16:41.925Z</time>
      </trkpt>
      <trkpt lat="47.540392" lon="8.043542">
        <ele>335.566006</ele>
        <time>2021-11-17T03:16:43.575Z</time>
      </trkpt>
      <trkpt lat="47.540358" lon="8.043349">
        <ele>335.601431</ele>
        <time>2021-11-17T03:16:47.809Z</time>
      </trkpt>
      <trkpt lat="47.540311" lon="8.043099">
        <ele>335.647521</ele>
        <time>2021-11-17T03:16:51.878Z</time>
      </trkpt>
      <trkpt lat="47.540230" lon="8.042774">
        <ele>335.764863</ele>
        <time>2021-11-17T03:16:58.087Z</time>
      </trkpt>
      <trkpt lat="47.540115" lon="8.042499">
        <ele>335.876708</ele>
        <time>2021-11-17T03:17:02.867Z</time>
      </trkpt>
      <trkpt lat="47.540094" lon="8.042446">
        <ele>335.897956</ele>
        <time>2021-11-17T03:17:04.224Z</time>
      </trkpt>
      <trkpt lat="47.540072" lon="8.042391">
        <ele>335.920060</ele>
        <time>2021-11-17T03:17:05.277Z</time>
      </trkpt>
      <trkpt lat="47.540034" lon="8.042303">
        <ele>335.956178</ele>
        <time>2021-11-17T03:17:08.280Z</time>
      </trkpt>
      <trkpt lat="47.540021" lon="8.042268">
        <ele>335.969990</ele>
        <time>2021-11-17T03:17:09.449Z</time>
      </trkpt>
      <trkpt lat="47.539991" lon="8.042065">
        <ele>336.041839</ele>
        <time>2021-11-17T03:17:14.766Z</time>
      </trkpt>
      <trkpt lat="47.539983" lon="8.041866">
        <ele>336.110764</ele>
        <time>2021-11-17T03:17:20.235Z</time>
      </trkpt>
      <trkpt lat="47.539998" lon="8.041644">
        <ele>336.187904</ele>
        <time>2021-11-17T03:17:23.040Z</time>
      </trkpt>
      <trkpt lat="47.540031" lon="8.041477">
        <ele>336.248067</ele>
        <time>2021-11-17T03:17:25.454Z</time>
      </trkpt>
      <trkpt lat="47.540079" lon="8.041350">
        <ele>336.298390</ele>
        <time>2021-11-17T03:17:27.306Z</time>
      </trkpt>
      <trkpt lat="47.540116" lon="8.041253">
        <ele>336.336911</ele>
        <time>2021-11-17T03:17:28.388Z</time>
      </trkpt>
      <trkpt lat="47.540240" lon="8.040995">
        <ele>336.446412</ele>
        <time>2021-11-17T03:17:31.289Z</time>
      </trkpt>
      <trkpt lat="47.540564" lon="8.040358">
        <ele>335.515360</ele>
        <time>2021-11-17T03:17:37.453Z</time>
      </trkpt>
      <trkpt lat="47.540612" lon="8.040244">
        <ele>335.190246</ele>
        <time>2021-11-17T03:17:38.492Z</time>
      </trkpt>
      <trkpt lat="47.540755" lon="8.039911">
        <ele>334.235243</ele>
        <time>2021-11-17T03:17:41.097Z</time>
      </trkpt>
      <trkpt lat="47.540973" lon="8.039326">
        <ele>332.618321</ele>
        <time>2021-11-17T03:17:45.367Z</time>
      </trkpt>
      <trkpt lat="47.541029" lon="8.038776">
        <ele>331.272400</ele>
        <time>2021-11-17T03:17:48.855Z</time>
      </trkpt>
      <trkpt lat="47.541015" lon="8.038511">
        <ele>330.629203</ele>
        <time>2021-11-17T03:17:50.490Z</time>
      </trkpt>
      <trkpt lat="47.541006" lon="8.038351">
        <ele>330.240700</ele>
        <time>2021-11-17T03:17:51.543Z</time>
      </trkpt>
      <trkpt lat="47.540394" lon="8.031575">
        <ele>321.859385</ele>
        <time>2021-11-17T03:18:43.362Z</time>
      </trkpt>
      <trkpt lat="47.540324" lon="8.030594">
        <ele>321.068684</ele>
        <time>2021-11-17T03:18:51.916Z</time>
      </trkpt>
      <trkpt lat="47.540275" lon="8.029790">
        <ele>320.820738</ele>
        <time>2021-11-17T03:18:59.253Z</time>
      </trkpt>
      <trkpt lat="47.540273" lon="8.028579">
        <ele>320.671037</ele>
        <time>2021-11-17T03:19:10.947Z</time>
      </trkpt>
      <trkpt lat="47.540306" lon="8.026756">
        <ele>320.898743</ele>
        <time>2021-11-17T03:19:29.598Z</time>
      </trkpt>
      <trkpt lat="47.540408" lon="8.025334">
        <ele>321.397653</ele>
        <time>2021-11-17T03:19:45.666Z</time>
      </trkpt>
      <trkpt lat="47.540490" lon="8.024315">
        <ele>322.950677</ele>
        <time>2021-11-17T03:19:59.448Z</time>
      </trkpt>
      <trkpt lat="47.540537" lon="8.023536">
        <ele>324.468256</ele>
        <time>2021-11-17T03:20:12.214Z</time>
      </trkpt>
      <trkpt lat="47.540454" lon="8.023022">
        <ele>325.493748</ele>
        <time>2021-11-17T03:20:22.115Z</time>
      </trkpt>
      <trkpt lat="47.540354" lon="8.022332">
        <ele>327.127380</ele>
        <time>2021-11-17T03:20:37.901Z</time>
      </trkpt>
      <trkpt lat="47.540204" lon="8.020975">
        <ele>333.330194</ele>
        <time>2021-11-17T03:21:15.424Z</time>
      </trkpt>
      <trkpt lat="47.540134" lon="8.020585">
        <ele>335.150570</ele>
        <time>2021-11-17T03:21:27.767Z</time>
      </trkpt>
      <trkpt lat="47.540098" lon="8.020321">
        <ele>336.365505</ele>
        <time>2021-11-17T03:21:36.550Z</time>
      </trkpt>
      <trkpt lat="47.540052" lon="8.019825">
        <ele>338.623936</ele>
        <time>2021-11-17T03:21:52.146Z</time>
      </trkpt>
      <trkpt lat="47.540031" lon="8.019456">
        <ele>340.142354</ele>
        <time>2021-11-17T03:22:03.401Z</time>
      </trkpt>
      <trkpt lat="47.540012" lon="8.018657">
        <ele>343.408718</ele>
        <time>2021-11-17T03:22:27.274Z</time>
      </trkpt>
      <trkpt lat="47.539979" lon="8.017566">
        <ele>347.870506</ele>
        <time>2021-11-17T03:22:56.549Z</time>
      </trkpt>
      <trkpt lat="47.539918" lon="8.015722">
        <ele>351.170598</ele>
        <time>2021-11-17T03:23:29.291Z</time>
      </trkpt>
      <trkpt lat="47.539908" lon="8.015397">
        <ele>351.535069</ele>
        <time>2021-11-17T03:23:33.944Z</time>
      </trkpt>
      <trkpt lat="47.539903" lon="8.015200">
        <ele>351.755922</ele>
        <time>2021-11-17T03:23:35.686Z</time>
      </trkpt>
      <trkpt lat="47.539798" lon="8.012369">
        <ele>351.200997</ele>
        <time>2021-11-17T03:23:59.987Z</time>
      </trkpt>
      <trkpt lat="47.539703" lon="8.011107">
        <ele>350.350243</ele>
        <time>2021-11-17T03:24:09.680Z</time>
      </trkpt>
      <trkpt lat="47.539645" lon="8.009866">
        <ele>349.485758</ele>
        <time>2021-11-17T03:24:19.631Z</time>
      </trkpt>
      <trkpt lat="47.539569" lon="8.007914">
        <ele>349.282820</ele>
        <time>2021-11-17T03:24:38.079Z</time>
      </trkpt>
      <trkpt lat="47.539590" lon="8.005890">
        <ele>349.222122</ele>
        <time>2021-11-17T03:25:03.679Z</time>
      </trkpt>
      <trkpt lat="47.539492" lon="8.004516">
        <ele>348.409191</ele>
        <time>2021-11-17T03:25:16.853Z</time>
      </trkpt>
      <trkpt lat="47.539434" lon="8.003156">
        <ele>345.325281</ele>
        <time>2021-11-17T03:25:26.002Z</time>
      </trkpt>
      <trkpt lat="47.539437" lon="8.002963">
        <ele>344.586295</ele>
        <time>2021-11-17T03:25:27.223Z</time>
      </trkpt>
      <trkpt lat="47.539437" lon="8.002525">
        <ele>342.909662</ele>
        <time>2021-11-17T03:25:29.962Z</time>
      </trkpt>
      <trkpt lat="47.539400" lon="8.001871">
        <ele>340.397421</ele>
        <time>2021-11-17T03:25:33.969Z</time>
      </trkpt>
      <trkpt lat="47.539365" lon="8.001150">
        <ele>337.573092</ele>
        <time>2021-11-17T03:25:38.310Z</time>
      </trkpt>
      <trkpt lat="47.539569" lon="7.998315">
        <ele>323.852527</ele>
        <time>2021-11-17T03:25:55.434Z</time>
      </trkpt>
      <trkpt lat="47.539590" lon="7.998122">
        <ele>323.241975</ele>
        <time>2021-11-17T03:25:56.620Z</time>
      </trkpt>
      <trkpt lat="47.539726" lon="7.997265">
        <ele>320.492464</ele>
        <time>2021-11-17T03:26:02.269Z</time>
      </trkpt>
      <trkpt lat="47.539838" lon="7.996117">
        <ele>316.869830</ele>
        <time>2021-11-17T03:26:09.924Z</time>
      </trkpt>
      <trkpt lat="47.539876" lon="7.995796">
        <ele>316.140995</ele>
        <time>2021-11-17T03:26:12.200Z</time>
      </trkpt>
      <trkpt lat="47.540013" lon="7.995140">
        <ele>315.473039</ele>
        <time>2021-11-17T03:26:17.541Z</time>
      </trkpt>
      <trkpt lat="47.540089" lon="7.994896">
        <ele>315.211645</ele>
        <time>2021-11-17T03:26:19.585Z</time>
      </trkpt>
      <trkpt lat="47.540316" lon="7.993620">
        <ele>313.928058</ele>
        <time>2021-11-17T03:26:30.498Z</time>
      </trkpt>
      <trkpt lat="47.540262" lon="7.992244">
        <ele>313.607372</ele>
        <time>2021-11-17T03:26:42.723Z</time>
      </trkpt>
      <trkpt lat="47.540194" lon="7.991768">
        <ele>313.575917</ele>
        <time>2021-11-17T03:26:47.677Z</time>
      </trkpt>
      <trkpt lat="47.540140" lon="7.991504">
        <ele>313.558083</ele>
        <time>2021-11-17T03:26:50.570Z</time>
      </trkpt>
      <trkpt lat="47.540104" lon="7.991287">
        <ele>313.543637</ele>
        <time>2021-11-17T03:27:07.549Z</time>
      </trkpt>
      <trkpt lat="47.540056" lon="7.990982">
        <ele>313.523389</ele>
        <time>2021-11-17T03:27:10.983Z</time>
      </trkpt>
      <trkpt lat="47.540018" lon="7.990553">
        <ele>313.577088</ele>
        <time>2021-11-17T03:27:15.811Z</time>
      </trkpt>
      <trkpt lat="47.540011" lon="7.990131">
        <ele>313.730639</ele>
        <time>2021-11-17T03:27:20.652Z</time>
      </trkpt>
      <trkpt lat="47.539990" lon="7.989097">
        <ele>314.106932</ele>
        <time>2021-11-17T03:27:32.660Z</time>
      </trkpt>
      <trkpt lat="47.539978" lon="7.988189">
        <ele>314.437285</ele>
        <time>2021-11-17T03:27:43.490Z</time>
      </trkpt>
      <trkpt lat="47.540321" lon="7.987087">
        <ele>314.643009</ele>
        <time>2021-11-17T03:27:56.788Z</time>
      </trkpt>
      <trkpt lat="47.540335" lon="7.986933">
        <ele>314.666375</ele>
        <time>2021-11-17T03:27:58.686Z</time>
      </trkpt>
      <trkpt lat="47.540347" lon="7.986737">
        <ele>314.695969</ele>
        <time>2021-11-17T03:28:00.788Z</time>
      </trkpt>
      <trkpt lat="47.540113" lon="7.986673">
        <ele>314.748974</ele>
        <time>2021-11-17T03:28:04.735Z</time>
      </trkpt>
      <trkpt lat="47.539952" lon="7.986630">
        <ele>314.785415</ele>
        <time>2021-11-17T03:28:07.044Z</time>
      </trkpt>
      <trkpt lat="47.539549" lon="7.986535">
        <ele>314.876313</ele>
        <time>2021-11-17T03:28:12.597Z</time>
      </trkpt>
      <trkpt lat="47.539415" lon="7.986507">
        <ele>314.975112</ele>
        <time>2021-11-17T03:28:14.570Z</time>
      </trkpt>
      <trkpt lat="47.539274" lon="7.986488">
        <ele>315.081589</ele>
        <time>2021-11-17T03:28:16.271Z</time>
      </trkpt>
      <trkpt lat="47.538630" lon="7.986438">
        <ele>315.566574</ele>
        <time>2021-11-17T03:28:27.256Z</time>
      </trkpt>
      <trkpt lat="47.538514" lon="7.986428">
        <ele>315.653959</ele>
        <time>2021-11-17T03:28:28.786Z</time>
      </trkpt>
      <trkpt lat="47.538277" lon="7.986431">
        <ele>315.832201</ele>
        <time>2021-11-17T03:28:34.233Z</time>
      </trkpt>
      <trkpt lat="47.538112" lon="7.986430">
        <ele>315.956291</ele>
        <time>2021-11-17T03:28:37.019Z</time>
      </trkpt>
      <trkpt lat="47.537897" lon="7.986428">
        <ele>316.117984</ele>
        <time>2021-11-17T03:28:42.313Z</time>
      </trkpt>
      <trkpt lat="47.537821" lon="7.986433">
        <ele>316.175197</ele>
        <time>2021-11-17T03:28:43.345Z</time>
      </trkpt>
      <trkpt lat="47.537815" lon="7.986191">
        <ele>316.432949</ele>
        <time>2021-11-17T03:28:47.134Z</time>
      </trkpt>
      <trkpt lat="47.537812" lon="7.986127">
        <ele>316.530175</ele>
        <time>2021-11-17T03:28:48.703Z</time>
      </trkpt>
      <trkpt lat="47.537884" lon="7.985939">
        <ele>316.857741</ele>
        <time>2021-11-17T03:28:51.051Z</time>
      </trkpt>
      <trkpt lat="47.538208" lon="7.985592">
        <ele>317.755268</ele>
        <time>2021-11-17T03:28:59.735Z</time>
      </trkpt>
      <trkpt lat="47.538160" lon="7.985490">
        <ele>317.943697</ele>
        <time>2021-11-17T03:29:01.796Z</time>
      </trkpt>
      <trkpt lat="47.537773" lon="7.984992">
        <ele>319.094493</ele>
        <time>2021-11-17T03:29:14.534Z</time>
      </trkpt>
      <trkpt lat="47.537732" lon="7.984941">
        <ele>319.214680</ele>
        <time>2021-11-17T03:29:15.534Z</time>
      </trkpt>
      <trkpt lat="47.537175" lon="7.984220">
        <ele>321.144578</ele>
        <time>2021-11-17T03:29:35.296Z</time>
      </trkpt>
      <trkpt lat="47.536849" lon="7.983808">
        <ele>322.533228</ele>
        <time>2021-11-17T03:29:45.830Z</time>
      </trkpt>
      <trkpt lat="47.536410" lon="7.983244">
        <ele>324.416337</ele>
        <time>2021-11-17T03:30:02.322Z</time>
      </trkpt>
      <trkpt lat="47.536530" lon="7.982859">
        <ele>325.344034</ele>
        <time>2021-11-17T03:30:10.691Z</time>
      </trkpt>
      <trkpt lat="47.536764" lon="7.982225">
        <ele>326.881277</ele>
        <time>2021-11-17T03:30:25.832Z</time>
      </trkpt>
      <trkpt lat="47.536775" lon="7.982096">
        <ele>327.150795</ele>
        <time>2021-11-17T03:30:28.427Z</time>
      </trkpt>
      <trkpt lat="47.536842" lon="7.981878">
        <ele>327.647292</ele>
        <time>2021-11-17T03:30:33.517Z</time>
      </trkpt>
      <trkpt lat="47.536896" lon="7.981697">
        <ele>328.057474</ele>
        <time>2021-11-17T03:30:37.573Z</time>
      </trkpt>
      <trkpt lat="47.536959" lon="7.981602">
        <ele>328.333503</ele>
        <time>2021-11-17T03:30:40.053Z</time>
      </trkpt>
      <trkpt lat="47.537107" lon="7.981082">
        <ele>329.503236</ele>
        <time>2021-11-17T03:30:51.003Z</time>
      </trkpt>
      <trkpt lat="47.537461" lon="7.980118">
        <ele>331.618161</ele>
        <time>2021-11-17T03:31:09.556Z</time>
      </trkpt>
      <trkpt lat="47.537583" lon="7.979760">
        <ele>331.615069</ele>
        <time>2021-11-17T03:31:15.560Z</time>
      </trkpt>
      <trkpt lat="47.537955" lon="7.978125">
        <ele>331.601766</ele>
        <time>2021-11-17T03:31:31.902Z</time>
      </trkpt>
      <trkpt lat="47.538107" lon="7.977240">
        <ele>331.045512</ele>
        <time>2021-11-17T03:31:38.808Z</time>
      </trkpt>
      <trkpt lat="47.538242" lon="7.976347">
        <ele>329.926781</ele>
        <time>2021-11-17T03:31:45.685Z</time>
      </trkpt>
      <trkpt lat="47.538706" lon="7.974459">
        <ele>327.272382</ele>
        <time>2021-11-17T03:32:00.615Z</time>
      </trkpt>
      <trkpt lat="47.539262" lon="7.971768">
        <ele>322.948585</ele>
        <time>2021-11-17T03:32:20.958Z</time>
      </trkpt>
      <trkpt lat="47.539783" lon="7.969587">
        <ele>319.434830</ele>
        <time>2021-11-17T03:32:37.439Z</time>
      </trkpt>
      <trkpt lat="47.540214" lon="7.967628">
        <ele>317.020632</ele>
        <time>2021-11-17T03:32:53.238Z</time>
      </trkpt>
      <trkpt lat="47.540896" lon="7.964711">
        <ele>315.081930</ele>
        <time>2021-11-17T03:33:19.344Z</time>
      </trkpt>
      <trkpt lat="47.541095" lon="7.964204">
        <ele>314.742424</ele>
        <time>2021-11-17T03:33:24.380Z</time>
      </trkpt>
      <trkpt lat="47.541169" lon="7.964123">
        <ele>314.663521</ele>
        <time>2021-11-17T03:33:25.339Z</time>
      </trkpt>
      <trkpt lat="47.541129" lon="7.964008">
        <ele>314.588631</ele>
        <time>2021-11-17T03:33:26.781Z</time>
      </trkpt>
      <trkpt lat="47.541019" lon="7.963815">
        <ele>314.442409</ele>
        <time>2021-11-17T03:33:29.131Z</time>
      </trkpt>
      <trkpt lat="47.541123" lon="7.963520">
        <ele>314.249750</ele>
        <time>2021-11-17T03:33:31.865Z</time>
      </trkpt>
      <trkpt lat="47.541217" lon="7.963187">
        <ele>314.040803</ele>
        <time>2021-11-17T03:33:34.767Z</time>
      </trkpt>
      <trkpt lat="47.541258" lon="7.962975">
        <ele>313.913141</ele>
        <time>2021-11-17T03:33:37.161Z</time>
      </trkpt>
      <trkpt lat="47.541293" lon="7.962730">
        <ele>313.768171</ele>
        <time>2021-11-17T03:33:39.146Z</time>
      </trkpt>
      <trkpt lat="47.541308" lon="7.962513">
        <ele>313.508251</ele>
        <time>2021-11-17T03:33:41.170Z</time>
      </trkpt>
      <trkpt lat="47.541314" lon="7.962377">
        <ele>313.310367</ele>
        <time>2021-11-17T03:33:42.523Z</time>
      </trkpt>
      <trkpt lat="47.541316" lon="7.962197">
        <ele>313.048983</ele>
        <time>2021-11-17T03:33:43.868Z</time>
      </trkpt>
      <trkpt lat="47.541242" lon="7.961294">
        <ele>311.728260</ele>
        <time>2021-11-17T03:33:50.891Z</time>
      </trkpt>
      <trkpt lat="47.541153" lon="7.960814">
        <ele>311.005519</ele>
        <time>2021-11-17T03:33:54.421Z</time>
      </trkpt>
      <trkpt lat="47.541060" lon="7.960321">
        <ele>310.262289</ele>
        <time>2021-11-17T03:33:58.011Z</time>
      </trkpt>
      <trkpt lat="47.541027" lon="7.959944">
        <ele>309.609588</ele>
        <time>2021-11-17T03:34:00.514Z</time>
      </trkpt>
      <trkpt lat="47.541019" lon="7.959792">
        <ele>309.241141</ele>
        <time>2021-11-17T03:34:01.559Z</time>
      </trkpt>
      <trkpt lat="47.541012" lon="7.959578">
        <ele>308.723369</ele>
        <time>2021-11-17T03:34:03.033Z</time>
      </trkpt>
      <trkpt lat="47.541016" lon="7.959388">
        <ele>308.263980</ele>
        <time>2021-11-17T03:34:04.236Z</time>
      </trkpt>
      <trkpt lat="47.541081" lon="7.958828">
        <ele>306.890792</ele>
        <time>2021-11-17T03:34:08.005Z</time>
      </trkpt>
      <trkpt lat="47.541226" lon="7.958150">
        <ele>305.172041</ele>
        <time>2021-11-17T03:34:12.765Z</time>
      </trkpt>
      <trkpt lat="47.541305" lon="7.957787">
        <ele>304.250336</ele>
        <time>2021-11-17T03:34:15.250Z</time>
      </trkpt>
      <trkpt lat="47.541355" lon="7.957559">
        <ele>303.670996</ele>
        <time>2021-11-17T03:34:16.951Z</time>
      </trkpt>
      <trkpt lat="47.541450" lon="7.956897">
        <ele>302.741559</ele>
        <time>2021-11-17T03:34:21.585Z</time>
      </trkpt>
      <trkpt lat="47.541464" lon="7.956698">
        <ele>302.504109</ele>
        <time>2021-11-17T03:34:22.991Z</time>
      </trkpt>
      <trkpt lat="47.541533" lon="7.955526">
        <ele>301.107915</ele>
        <time>2021-11-17T03:34:31.825Z</time>
      </trkpt>
      <trkpt lat="47.541554" lon="7.955311">
        <ele>300.850099</ele>
        <time>2021-11-17T03:34:33.863Z</time>
      </trkpt>
      <trkpt lat="47.541735" lon="7.953892">
        <ele>300.351017</ele>
        <time>2021-11-17T03:34:48.071Z</time>
      </trkpt>
      <trkpt lat="47.541773" lon="7.953695">
        <ele>300.370513</ele>
        <time>2021-11-17T03:34:50.319Z</time>
      </trkpt>
      <trkpt lat="47.541791" lon="7.953601">
        <ele>300.379811</ele>
        <time>2021-11-17T03:34:51.354Z</time>
      </trkpt>
      <trkpt lat="47.541991" lon="7.952667">
        <ele>300.473052</ele>
        <time>2021-11-17T03:35:02.210Z</time>
      </trkpt>
      <trkpt lat="47.542169" lon="7.951815">
        <ele>300.581595</ele>
        <time>2021-11-17T03:35:11.947Z</time>
      </trkpt>
      <trkpt lat="47.542192" lon="7.951713">
        <ele>300.597393</ele>
        <time>2021-11-17T03:35:13.210Z</time>
      </trkpt>
      <trkpt lat="47.542357" lon="7.951037">
        <ele>300.702995</ele>
        <time>2021-11-17T03:35:20.674Z</time>
      </trkpt>
      <trkpt lat="47.542444" lon="7.950687">
        <ele>300.757788</ele>
        <time>2021-11-17T03:35:24.505Z</time>
      </trkpt>
      <trkpt lat="47.542546" lon="7.950274">
        <ele>300.822393</ele>
        <time>2021-11-17T03:35:28.852Z</time>
      </trkpt>
      <trkpt lat="47.542554" lon="7.950231">
        <ele>300.828946</ele>
        <time>2021-11-17T03:35:29.339Z</time>
      </trkpt>
      <trkpt lat="47.542560" lon="7.950202">
        <ele>300.833402</ele>
        <time>2021-11-17T03:35:29.672Z</time>
      </trkpt>
      <trkpt lat="47.542609" lon="7.949914">
        <ele>300.877034</ele>
        <time>2021-11-17T03:35:32.671Z</time>
      </trkpt>
      <trkpt lat="47.542719" lon="7.949175">
        <ele>301.246121</ele>
        <time>2021-11-17T03:35:40.575Z</time>
      </trkpt>
      <trkpt lat="47.542826" lon="7.948298">
        <ele>301.786909</ele>
        <time>2021-11-17T03:35:51.517Z</time>
      </trkpt>
      <trkpt lat="47.542838" lon="7.948225">
        <ele>301.832500</ele>
        <time>2021-11-17T03:35:52.345Z</time>
      </trkpt>
      <trkpt lat="47.542875" lon="7.948001">
        <ele>301.972434</ele>
        <time>2021-11-17T03:35:55.228Z</time>
      </trkpt>
      <trkpt lat="47.542928" lon="7.947798">
        <ele>302.104507</ele>
        <time>2021-11-17T03:35:58.151Z</time>
      </trkpt>
      <trkpt lat="47.542957" lon="7.947651">
        <ele>302.197438</ele>
        <time>2021-11-17T03:35:59.859Z</time>
      </trkpt>
      <trkpt lat="47.543050" lon="7.947411">
        <ele>302.365359</ele>
        <time>2021-11-17T03:36:04.224Z</time>
      </trkpt>
      <trkpt lat="47.543087" lon="7.947317">
        <ele>302.431387</ele>
        <time>2021-11-17T03:36:05.503Z</time>
      </trkpt>
      <trkpt lat="47.543092" lon="7.947257">
        <ele>302.468071</ele>
        <time>2021-11-17T03:36:06.292Z</time>
      </trkpt>
      <trkpt lat="47.543097" lon="7.947186">
        <ele>302.511388</ele>
        <time>2021-11-17T03:36:07.142Z</time>
      </trkpt>
      <trkpt lat="47.543086" lon="7.947052">
        <ele>302.671990</ele>
        <time>2021-11-17T03:36:08.971Z</time>
      </trkpt>
      <trkpt lat="47.543056" lon="7.946935">
        <ele>302.832522</ele>
        <time>2021-11-17T03:36:11.338Z</time>
      </trkpt>
      <trkpt lat="47.543045" lon="7.946881">
        <ele>302.904870</ele>
        <time>2021-11-17T03:36:12.450Z</time>
      </trkpt>
      <trkpt lat="47.542982" lon="7.946547">
        <ele>303.349687</ele>
        <time>2021-11-17T03:36:17.050Z</time>
      </trkpt>
      <trkpt lat="47.542974" lon="7.946495">
        <ele>303.418095</ele>
        <time>2021-11-17T03:36:18.263Z</time>
      </trkpt>
      <trkpt lat="47.542960" lon="7.946400">
        <ele>303.542817</ele>
        <time>2021-11-17T03:36:20.099Z</time>
      </trkpt>
      <trkpt lat="47.542916" lon="7.945730">
        <ele>304.406253</ele>
        <time>2021-11-17T03:36:30.676Z</time>
      </trkpt>
      <trkpt lat="47.542913" lon="7.945267">
        <ele>305.000150</ele>
        <time>2021-11-17T03:36:38.162Z</time>
      </trkpt>
      <trkpt lat="47.543007" lon="7.943867">
        <ele>306.163934</ele>
        <time>2021-11-17T03:36:58.901Z</time>
      </trkpt>
      <trkpt lat="47.543161" lon="7.942213">
        <ele>306.718001</ele>
        <time>2021-11-17T03:37:17.308Z</time>
      </trkpt>
      <trkpt lat="47.543435" lon="7.940670">
        <ele>305.667922</ele>
        <time>2021-11-17T03:37:30.256Z</time>
      </trkpt>
      <trkpt lat="47.543826" lon="7.939433">
        <ele>304.428497</ele>
        <time>2021-11-17T03:37:40.657Z</time>
      </trkpt>
      <trkpt lat="47.544472" lon="7.937932">
        <ele>302.263335</ele>
        <time>2021-11-17T03:37:53.981Z</time>
      </trkpt>
      <trkpt lat="47.544705" lon="7.937395">
        <ele>301.484194</ele>
        <time>2021-11-17T03:37:58.820Z</time>
      </trkpt>
      <trkpt lat="47.544903" lon="7.936917">
        <ele>300.864409</ele>
        <time>2021-11-17T03:38:03.081Z</time>
      </trkpt>
      <trkpt lat="47.545074" lon="7.936484">
        <ele>300.363795</ele>
        <time>2021-11-17T03:38:06.912Z</time>
      </trkpt>
      <trkpt lat="47.545457" lon="7.935110">
        <ele>298.880364</ele>
        <time>2021-11-17T03:38:18.280Z</time>
      </trkpt>
      <trkpt lat="47.545674" lon="7.933625">
        <ele>298.625076</ele>
        <time>2021-11-17T03:38:31.360Z</time>
      </trkpt>
      <trkpt lat="47.545702" lon="7.933290">
        <ele>298.663672</ele>
        <time>2021-11-17T03:38:34.940Z</time>
      </trkpt>
      <trkpt lat="47.545724" lon="7.932758">
        <ele>298.724614</ele>
        <time>2021-11-17T03:38:41.207Z</time>
      </trkpt>
      <trkpt lat="47.545721" lon="7.931992">
        <ele>298.939229</ele>
        <time>2021-11-17T03:38:51.247Z</time>
      </trkpt>
      <trkpt lat="47.545696" lon="7.931497">
        <ele>299.593108</ele>
        <time>2021-11-17T03:38:58.452Z</time>
      </trkpt>
      <trkpt lat="47.545661" lon="7.930955">
        <ele>300.310338</ele>
        <time>2021-11-17T03:39:07.147Z</time>
      </trkpt>
      <trkpt lat="47.545563" lon="7.929641">
        <ele>302.051788</ele>
        <time>2021-11-17T03:39:29.487Z</time>
      </trkpt>
      <trkpt lat="47.545475" lon="7.928419">
        <ele>301.965080</ele>
        <time>2021-11-17T03:39:45.790Z</time>
      </trkpt>
      <trkpt lat="47.545421" lon="7.927686">
        <ele>301.718651</ele>
        <time>2021-11-17T03:39:51.893Z</time>
      </trkpt>
      <trkpt lat="47.545406" lon="7.927306">
        <ele>301.591435</ele>
        <time>2021-11-17T03:39:54.797Z</time>
      </trkpt>
      <trkpt lat="47.545407" lon="7.927001">
        <ele>301.489500</ele>
        <time>2021-11-17T03:39:57.084Z</time>
      </trkpt>
      <trkpt lat="47.545409" lon="7.926773">
        <ele>301.372596</ele>
        <time>2021-11-17T03:39:58.713Z</time>
      </trkpt>
      <trkpt lat="47.545417" lon="7.925848">
        <ele>299.095427</ele>
        <time>2021-11-17T03:40:05.048Z</time>
      </trkpt>
      <trkpt lat="47.545446" lon="7.925350">
        <ele>297.864996</ele>
        <time>2021-11-17T03:40:08.340Z</time>
      </trkpt>
      <trkpt lat="47.545466" lon="7.924880">
        <ele>296.705747</ele>
        <time>2021-11-17T03:40:11.393Z</time>
      </trkpt>
      <trkpt lat="47.545481" lon="7.924396">
        <ele>295.513077</ele>
        <time>2021-11-17T03:40:14.476Z</time>
      </trkpt>
      <trkpt lat="47.545521" lon="7.923709">
        <ele>294.189061</ele>
        <time>2021-11-17T03:40:19.002Z</time>
      </trkpt>
      <trkpt lat="47.545536" lon="7.923407">
        <ele>293.710053</ele>
        <time>2021-11-17T03:40:21.391Z</time>
      </trkpt>
      <trkpt lat="47.545553" lon="7.923142">
        <ele>293.288977</ele>
        <time>2021-11-17T03:40:23.112Z</time>
      </trkpt>
      <trkpt lat="47.545587" lon="7.922895">
        <ele>292.890221</ele>
        <time>2021-11-17T03:40:25.513Z</time>
      </trkpt>
      <trkpt lat="47.545641" lon="7.922610">
        <ele>292.421973</ele>
        <time>2021-11-17T03:40:27.512Z</time>
      </trkpt>
      <trkpt lat="47.545690" lon="7.922369">
        <ele>292.023832</ele>
        <time>2021-11-17T03:40:30.203Z</time>
      </trkpt>
      <trkpt lat="47.545699" lon="7.922325">
        <ele>291.951105</ele>
        <time>2021-11-17T03:40:30.464Z</time>
      </trkpt>
      <trkpt lat="47.545714" lon="7.922249">
        <ele>291.825852</ele>
        <time>2021-11-17T03:40:31.054Z</time>
      </trkpt>
      <trkpt lat="47.545778" lon="7.921947">
        <ele>291.325148</ele>
        <time>2021-11-17T03:40:34.210Z</time>
      </trkpt>
      <trkpt lat="47.545810" lon="7.921755">
        <ele>291.012315</ele>
        <time>2021-11-17T03:40:35.568Z</time>
      </trkpt>
      <trkpt lat="47.545881" lon="7.921096">
        <ele>290.495244</ele>
        <time>2021-11-17T03:40:40.916Z</time>
      </trkpt>
      <trkpt lat="47.545913" lon="7.920765">
        <ele>290.379936</ele>
        <time>2021-11-17T03:40:43.783Z</time>
      </trkpt>
      <trkpt lat="47.545973" lon="7.920313">
        <ele>290.221082</ele>
        <time>2021-11-17T03:40:48.930Z</time>
      </trkpt>
      <trkpt lat="47.546128" lon="7.919617">
        <ele>289.968346</ele>
        <time>2021-11-17T03:40:55.393Z</time>
      </trkpt>
      <trkpt lat="47.546262" lon="7.919081">
        <ele>289.771241</ele>
        <time>2021-11-17T03:41:01.392Z</time>
      </trkpt>
      <trkpt lat="47.546821" lon="7.916867">
        <ele>288.951232</ele>
        <time>2021-11-17T03:41:22.145Z</time>
      </trkpt>
      <trkpt lat="47.547032" lon="7.916218">
        <ele>288.781988</ele>
        <time>2021-11-17T03:41:28.636Z</time>
      </trkpt>
      <trkpt lat="47.547091" lon="7.916039">
        <ele>288.768372</ele>
        <time>2021-11-17T03:41:30.453Z</time>
      </trkpt>
      <trkpt lat="47.547113" lon="7.915971">
        <ele>288.763218</ele>
        <time>2021-11-17T03:41:31.052Z</time>
      </trkpt>
      <trkpt lat="47.547423" lon="7.915080">
        <ele>288.694703</ele>
        <time>2021-11-17T03:41:40.696Z</time>
      </trkpt>
      <trkpt lat="47.547994" lon="7.913433">
        <ele>289.040497</ele>
        <time>2021-11-17T03:42:00.416Z</time>
      </trkpt>
      <trkpt lat="47.548027" lon="7.913334">
        <ele>289.102162</ele>
        <time>2021-11-17T03:42:01.775Z</time>
      </trkpt>
      <trkpt lat="47.548412" lon="7.912168">
        <ele>289.827091</ele>
        <time>2021-11-17T03:42:18.178Z</time>
      </trkpt>
      <trkpt lat="47.549012" lon="7.910340">
        <ele>291.321350</ele>
        <time>2021-11-17T03:42:45.109Z</time>
      </trkpt>
      <trkpt lat="47.549102" lon="7.910058">
        <ele>291.568766</ele>
        <time>2021-11-17T03:42:49.226Z</time>
      </trkpt>
      <trkpt lat="47.549195" lon="7.909756">
        <ele>291.832054</ele>
        <time>2021-11-17T03:42:53.550Z</time>
      </trkpt>
      <trkpt lat="47.549337" lon="7.909284">
        <ele>292.255148</ele>
        <time>2021-11-17T03:43:00.239Z</time>
      </trkpt>
      <trkpt lat="47.549520" lon="7.908678">
        <ele>293.122636</ele>
        <time>2021-11-17T03:43:08.828Z</time>
      </trkpt>
      <trkpt lat="47.549539" lon="7.908625">
        <ele>293.201052</ele>
        <time>2021-11-17T03:43:09.562Z</time>
      </trkpt>
      <trkpt lat="47.550497" lon="7.905558">
        <ele>298.685811</ele>
        <time>2021-11-17T03:44:04.475Z</time>
      </trkpt>
      <trkpt lat="47.550283" lon="7.905413">
        <ele>299.395868</ele>
        <time>2021-11-17T03:44:12.641Z</time>
      </trkpt>
      <trkpt lat="47.550067" lon="7.905245">
        <ele>300.131988</ele>
        <time>2021-11-17T03:44:21.327Z</time>
      </trkpt>
      <trkpt lat="47.549867" lon="7.905155">
        <ele>300.762701</ele>
        <time>2021-11-17T03:44:28.956Z</time>
      </trkpt>
      <trkpt lat="47.549868" lon="7.905010">
        <ele>301.058028</ele>
        <time>2021-11-17T03:44:32.361Z</time>
      </trkpt>
      <trkpt lat="47.550025" lon="7.904774">
        <ele>301.891419</ele>
        <time>2021-11-17T03:44:40.512Z</time>
      </trkpt>
      <trkpt lat="47.550302" lon="7.904164">
        <ele>303.783066</ele>
        <time>2021-11-17T03:44:58.811Z</time>
      </trkpt>
      <trkpt lat="47.550498" lon="7.903445">
        <ele>305.778190</ele>
        <time>2021-11-17T03:45:18.383Z</time>
      </trkpt>
      <trkpt lat="47.550688" lon="7.902451">
        <ele>308.455406</ele>
        <time>2021-11-17T03:45:40.931Z</time>
      </trkpt>
      <trkpt lat="47.550757" lon="7.901591">
        <ele>310.778779</ele>
        <time>2021-11-17T03:46:00.728Z</time>
      </trkpt>
      <trkpt lat="47.550769" lon="7.901362">
        <ele>311.394968</ele>
        <time>2021-11-17T03:46:06.636Z</time>
      </trkpt>
      <trkpt lat="47.550801" lon="7.900244">
        <ele>314.396928</ele>
        <time>2021-11-17T03:46:31.033Z</time>
      </trkpt>
      <trkpt lat="47.550819" lon="7.898109">
        <ele>319.900529</ele>
        <time>2021-11-17T03:47:18.073Z</time>
      </trkpt>
      <trkpt lat="47.550648" lon="7.896481">
        <ele>322.822336</ele>
        <time>2021-11-17T03:47:45.728Z</time>
      </trkpt>
      <trkpt lat="47.550639" lon="7.896345">
        <ele>322.961591</ele>
        <time>2021-11-17T03:47:48.104Z</time>
      </trkpt>
      <trkpt lat="47.550660" lon="7.896255">
        <ele>323.058631</ele>
        <time>2021-11-17T03:47:48.904Z</time>
      </trkpt>
      <trkpt lat="47.550838" lon="7.895509">
        <ele>323.864945</ele>
        <time>2021-11-17T03:47:59.072Z</time>
      </trkpt>
      <trkpt lat="47.550878" lon="7.895158">
        <ele>324.227691</ele>
        <time>2021-11-17T03:48:03.134Z</time>
      </trkpt>
      <trkpt lat="47.550908" lon="7.894308">
        <ele>325.326255</ele>
        <time>2021-11-17T03:48:13.607Z</time>
      </trkpt>
      <trkpt lat="47.550892" lon="7.893176">
        <ele>327.122504</ele>
        <time>2021-11-17T03:48:28.324Z</time>
      </trkpt>
      <trkpt lat="47.550904" lon="7.891725">
        <ele>330.171680</ele>
        <time>2021-11-17T03:48:58.086Z</time>
      </trkpt>
      <trkpt lat="47.550915" lon="7.890600">
        <ele>334.535719</ele>
        <time>2021-11-17T03:49:26.926Z</time>
      </trkpt>
      <trkpt lat="47.550833" lon="7.889069">
        <ele>340.564974</ele>
        <time>2021-11-17T03:50:09.560Z</time>
      </trkpt>
      <trkpt lat="47.550831" lon="7.888611">
        <ele>342.444244</ele>
        <time>2021-11-17T03:50:22.130Z</time>
      </trkpt>
      <trkpt lat="47.550789" lon="7.887816">
        <ele>345.716206</ele>
        <time>2021-11-17T03:50:42.742Z</time>
      </trkpt>
      <trkpt lat="47.550758" lon="7.887295">
        <ele>347.862226</ele>
        <time>2021-11-17T03:50:56.563Z</time>
      </trkpt>
      <trkpt lat="47.550677" lon="7.886476">
        <ele>351.076627</ele>
        <time>2021-11-17T03:51:18.052Z</time>
      </trkpt>
      <trkpt lat="47.550548" lon="7.885799">
        <ele>353.476771</ele>
        <time>2021-11-17T03:51:35.255Z</time>
      </trkpt>
      <trkpt lat="47.550391" lon="7.885109">
        <ele>355.961168</ele>
        <time>2021-11-17T03:51:52.893Z</time>
      </trkpt>
      <trkpt lat="47.550332" lon="7.884727">
        <ele>357.298210</ele>
        <time>2021-11-17T03:52:01.583Z</time>
      </trkpt>
      <trkpt lat="47.550234" lon="7.883221">
        <ele>361.537362</ele>
        <time>2021-11-17T03:52:34.415Z</time>
      </trkpt>
      <trkpt lat="47.549927" lon="7.881490">
        <ele>365.898638</ele>
        <time>2021-11-17T03:53:06.678Z</time>
      </trkpt>
      <trkpt lat="47.549726" lon="7.880786">
        <ele>368.032930</ele>
        <time>2021-11-17T03:53:22.655Z</time>
      </trkpt>
      <trkpt lat="47.549327" lon="7.879547">
        <ele>371.865990</ele>
        <time>2021-11-17T03:53:52.439Z</time>
      </trkpt>
      <trkpt lat="47.549318" lon="7.879398">
        <ele>372.283684</ele>
        <time>2021-11-17T03:53:55.627Z</time>
      </trkpt>
      <trkpt lat="47.549140" lon="7.879391">
        <ele>373.020294</ele>
        <time>2021-11-17T03:54:02.498Z</time>
      </trkpt>
      <trkpt lat="47.548718" lon="7.879258">
        <ele>374.335924</ele>
        <time>2021-11-17T03:54:16.168Z</time>
      </trkpt>
      <trkpt lat="47.548422" lon="7.878959">
        <ele>375.392027</ele>
        <time>2021-11-17T03:54:26.815Z</time>
      </trkpt>
      <trkpt lat="47.548234" lon="7.878638">
        <ele>376.237664</ele>
        <time>2021-11-17T03:54:35.247Z</time>
      </trkpt>
      <trkpt lat="47.547992" lon="7.877974">
        <ele>377.739168</ele>
        <time>2021-11-17T03:54:48.344Z</time>
      </trkpt>
      <trkpt lat="47.547574" lon="7.876801">
        <ele>377.367759</ele>
        <time>2021-11-17T03:55:02.108Z</time>
      </trkpt>
      <trkpt lat="47.547126" lon="7.875801">
        <ele>375.978841</ele>
        <time>2021-11-17T03:55:10.890Z</time>
      </trkpt>
      <trkpt lat="47.546309" lon="7.874154">
        <ele>369.758159</ele>
        <time>2021-11-17T03:55:24.079Z</time>
      </trkpt>
      <trkpt lat="47.546135" lon="7.873859">
        <ele>368.321543</ele>
        <time>2021-11-17T03:55:26.461Z</time>
      </trkpt>
      <trkpt lat="47.546077" lon="7.873763">
        <ele>367.849081</ele>
        <time>2021-11-17T03:55:27.272Z</time>
      </trkpt>
      <trkpt lat="47.545934" lon="7.873549">
        <ele>366.744817</ele>
        <time>2021-11-17T03:55:29.076Z</time>
      </trkpt>
      <trkpt lat="47.545746" lon="7.873302">
        <ele>365.619585</ele>
        <time>2021-11-17T03:55:31.365Z</time>
      </trkpt>
      <trkpt lat="47.545515" lon="7.873015">
        <ele>365.619585</ele>
        <time>2021-11-17T03:55:34.071Z</time>
      </trkpt>
      <trkpt lat="47.545478" lon="7.872968">
        <ele>365.619585</ele>
        <time>2021-11-17T03:55:34.514Z</time>
      </trkpt>
      <trkpt lat="47.545375" lon="7.872836">
        <ele>365.619585</ele>
        <time>2021-11-17T03:55:35.712Z</time>
      </trkpt>
      <trkpt lat="47.545131" lon="7.872664">
        <ele>365.619585</ele>
        <time>2021-11-17T03:55:38.193Z</time>
      </trkpt>
      <trkpt lat="47.544883" lon="7.872555">
        <ele>365.619585</ele>
        <time>2021-11-17T03:55:40.543Z</time>
      </trkpt>
      <trkpt lat="47.544390" lon="7.872423">
        <ele>365.619585</ele>
        <time>2021-11-17T03:55:45.166Z</time>
      </trkpt>
      <trkpt lat="47.543445" lon="7.872256">
        <ele>365.619585</ele>
        <time>2021-11-17T03:55:54.537Z</time>
      </trkpt>
    </trkseg>
  </trk>
</gpx>